[[{"header":{"parameterUnit":"m.s-1","parameterCategory":1,"la1":31.0,"la2":29.5877,"lo1":-88.7671,"lo2":-86.6584,"dx":0.0162,"dy":0.0185,"nx":115,"ny":88,"refTime":"2023-01-28T18:00:00:Z","depth":0,"parameterNumber":2,"parameterNumberName":"U-component_of_WINDS"},"data":[0.0,0.0,0.0,0.0,0.0,0.0,0.0,0.0,0.0,0.0,0.0,0.0,0.0,0.0,0.0,0.0,0.0,0.0,0.0,0.0,0.0,0.0,0.0,0.0,0.0,0.0,0.0,0.0,0.0,0.0,0.0,0.0,0.0,0.0,0.0,0.0,0.0,0.0,0.0,0.0,0.0,0.0,0.0,0.0,0.0,0.0,0.0,0.0,0.0,0.0,0.0,0.0,0.0,0.0,0.0,0.0,0.0,0.0,0.0,0.0,0.0,0.0,0.0,0.0,0.0,0.0,0.0,0.0,0.0,0.0,0.0,0.0,0.0,0.0,0.0,0.0,0.0,0.0,0.0,0.0,0.0,0.0,0.0,0.0,0.0,0.0,0.0,0.0,0.0,0.0,0.0,0.0,0.0,0.0,0.0,0.0,0.0,0.0,0.0,0.0,0.0,0.0,0.0,0.0,0.0,0.0,0.0,0.0,0.0,0.0,0.0,0.0,0.0,0.0,0.0,0.0,0.0,0.0,0.0,0.0,0.0,0.0,0.0,0.0,0.0,0.0,0.0,0.0,0.0,0.0,0.0,0.0,0.0,0.0,0.0,0.0,0.0,0.0,0.0,0.0,0.0,0.0,0.0,0.0,0.0,0.0,0.0,0.0,0.0,0.0,0.0,0.0,0.0,0.0,0.0,0.0,0.0,0.0,0.0,0.0,0.0,0.0,0.0,0.0,0.0,0.0,0.0,0.0,0.0,0.0,0.0,0.0,0.0,0.0,0.0,0.0,0.0,0.0,0.0,0.0,0.0,0.0,0.0,0.0,0.0,0.0,0.0,0.0,0.0,0.0,0.0,0.0,0.0,0.0,0.0,0.0,0.0,0.0,0.0,0.0,0.0,0.0,0.0,0.0,0.0,0.0,0.0,0.0,0.0,0.0,0.0,0.0,0.0,0.0,0.0,0.0,0.0,0.0,0.0,0.0,0.0,0.0,0.0,0.0,0.0,0.0,0.0,0.0,0.0,0.0,0.0,0.0,0.0,0.0,0.0,0.0,0.0,0.0,0.0,0.0,0.0,0.0,0.0,0.0,0.0,0.0,0.0,0.0,0.0,0.0,0.0,0.0,0.0,0.0,0.0,0.0,0.0,0.0,0.0,0.0,0.0,0.0,0.0,0.0,0.0,0.0,0.0,0.0,0.0,0.0,0.0,0.0,0.0,0.0,0.0,0.0,0.0,0.0,0.0,0.0,0.0,0.0,0.0,0.0,0.0,0.0,0.0,0.0,0.0,0.0,0.0,0.0,0.0,0.0,0.0,0.0,0.0,0.0,0.0,0.0,0.0,0.0,0.0,0.0,0.0,0.0,0.0,0.0,0.0,0.0,0.0,0.0,0.0,0.0,0.0,0.0,0.0,0.0,0.0,0.0,0.0,0.0,0.0,0.0,0.0,0.0,0.0,0.0,0.0,0.0,0.0,0.0,0.0,0.0,0.0,0.0,0.0,0.0,0.0,0.0,0.0,0.0,0.0,0.0,0.0,0.0,0.0,0.0,0.0,0.0,0.0,0.0,0.0,0.0,0.0,0.0,0.0,0.0,0.0,0.0,0.0,0.0,0.0,0.0,0.0,0.0,0.0,0.0,0.0,0.0,0.0,0.0,0.0,0.0,0.0,0.0,0.0,0.0,0.0,0.0,0.0,0.0,0.0,0.0,0.0,0.0,0.0,0.0,0.0,0.0,0.0,0.0,0.0,0.0,0.0,0.0,0.0,0.0,0.0,0.0,0.0,0.0,0.0,0.0,0.0,0.0,0.0,0.0,0.0,0.0,0.0,0.0,0.0,0.0,0.0,0.0,0.0,0.0,0.0,0.0,0.0,0.0,0.0,0.0,0.0,0.0,0.0,0.0,0.0,0.0,0.0,0.0,0.0,0.0,0.0,0.0,0.0,0.0,0.0,0.0,0.0,0.0,0.0,0.0,0.0,0.0,0.0,0.0,0.0,0.0,0.0,0.0,0.0,0.0,0.0,0.0,0.0,0.0,0.0,0.0,0.0,0.0,0.0,0.0,0.0,0.0,0.0,0.0,0.0,0.0,0.0,0.0,0.0,0.0,0.0,0.0,0.0,0.0,0.0,0.0,0.0,0.0,0.0,0.0,0.0,0.0,0.0,0.0,0.0,0.0,0.0,0.0,0.0,0.0,0.0,0.0,0.0,0.0,0.0,0.0,0.0,0.0,0.0,0.0,0.0,0.0,0.0,0.0,0.0,0.0,0.0,0.0,0.0,0.0,0.0,0.0,0.0,0.0,0.0,0.0,0.0,0.0,0.0,0.0,0.0,0.0,0.0,0.0,0.0,0.0,0.0,0.0,0.0,0.0,0.0,0.0,0.0,0.0,0.0,0.0,0.0,0.0,0.0,0.0,0.0,0.0,0.0,0.0,0.0,0.0,0.0,0.0,0.0,0.0,0.0,0.0,0.0,0.0,0.0,0.0,0.0,0.0,0.0,0.0,0.0,0.0,0.0,0.0,0.0,0.0,0.0,0.0,0.0,0.0,0.0,0.0,0.0,0.0,0.0,0.0,0.0,0.0,0.0,0.0,0.0,0.0,0.0,0.0,0.0,0.0,0.0,0.0,0.0,0.0,0.0,0.0,0.0,0.0,0.0,0.0,0.0,0.0,0.0,0.0,0.0,0.0,0.0,0.0,0.0,0.0,0.0,0.0,0.0,0.0,0.0,0.0,0.0,0.0,0.0,0.0,0.0,0.0,0.0,0.0,0.0,0.0,0.0,0.0,0.0,0.0,0.0,0.0,0.0,0.0,0.0,0.0,0.0,0.0,0.0,0.0,0.0,0.0,0.0,0.0,0.0,0.0,0.0,0.0,0.0,0.0,0.0,0.0,0.0,0.0,0.0,0.0,0.0,0.0,0.0,0.0,0.0,0.0,0.0,0.0,0.0,0.0,0.0,0.0,0.0,0.0,0.0,0.0,0.0,0.0,0.0,0.0,0.0,0.0,0.0,0.0,0.0,0.0,0.0,0.0,0.0,0.0,0.0,0.0,0.0,0.0,0.0,0.0,0.0,0.0,0.0,0.0,0.0,0.0,0.0,0.0,0.0,0.0,0.0,0.0,0.0,0.0,0.0,0.0,0.0,0.0,0.0,0.0,0.0,0.0,0.0,0.0,0.0,0.0,0.0,0.0,0.0,0.0,0.0,0.0,0.0,0.0,0.0,0.0,0.0,0.0,0.0,0.0,0.0,0.0,0.0,0.0,0.0,0.0,0.0,0.0,0.0,0.0,0.0,0.0,0.0,0.0,0.0,0.0,0.0,0.0,0.0,0.0,0.0,0.0,0.0,0.0,0.0,0.0,0.0,0.0,0.0,0.0,0.0,0.0,0.0,0.0,0.0,0.0,0.0,0.0,0.0,0.0,0.0,0.0,0.0,0.0,0.0,0.0,0.0,0.0,0.0,0.0,0.0,0.0,0.0,0.0,0.0,0.0,0.0,0.0,0.0,0.0,0.0,0.0,0.0,0.0,0.0,0.0,0.0,0.0,0.0,0.0,0.0,0.0,0.0,0.0,0.0,0.0,0.0,0.0,0.0,0.0,0.0,0.0,0.0,0.0,0.0,0.0,0.0,0.0,0.0,0.0,0.0,0.0,0.0,0.0,0.0,0.0,0.0,0.0,0.0,0.0,0.0,0.0,0.0,0.0,0.0,0.0,0.0,0.0,0.0,0.0,0.0,0.0,0.0,0.0,0.0,0.0,0.0,0.0,0.0,0.0,0.0,0.0,0.0,0.0,0.0,0.0,0.0,0.0,0.0,0.0,0.0,0.0,0.0,0.0,0.0,0.0,0.0,0.0,0.0,0.0,0.0,0.0,0.0,0.0,0.0,0.0,0.0,0.0,0.0,0.0,0.0,0.0,0.0,0.0,0.0,0.0,0.0,0.0,0.0,0.0,0.0,0.0,0.0,0.0,0.0,0.0,0.0,0.0,0.0,0.0,0.0,0.0,0.0,0.0,0.0,0.0,0.0,0.0,0.0,0.0,0.0,0.0,0.0,0.0,0.0,0.0,0.0,0.0,0.0,0.0,0.0,0.0,0.0,0.0,0.0,0.0,0.0,0.0,0.0,0.0,0.0,0.0,0.0,0.0,0.0,0.0,0.0,0.0,0.0,0.0,0.0,0.0,0.0,0.0,0.0,0.0,0.0,0.0,0.0,0.0,0.0,0.0,0.0,0.0,0.0,0.0,0.0,0.0,0.0,0.0,0.0,0.0,0.0,0.0,-3.5562,0.0,0.0,0.0,0.0,0.0,0.0,0.0,0.0,0.0,0.0,0.0,0.0,0.0,0.0,0.0,0.0,0.0,0.0,0.0,0.0,0.0,0.0,0.0,0.0,0.0,0.0,0.0,0.0,0.0,0.0,0.0,0.0,0.0,0.0,0.0,0.0,0.0,0.0,0.0,0.0,0.0,0.0,0.0,0.0,0.0,0.0,0.0,0.0,0.0,0.0,0.0,0.0,0.0,0.0,0.0,0.0,0.0,0.0,0.0,0.0,0.0,0.0,0.0,0.0,0.0,0.0,0.0,0.0,0.0,0.0,0.0,0.0,0.0,0.0,0.0,0.0,0.0,0.0,0.0,0.0,0.0,0.0,0.0,0.0,0.0,0.0,0.0,0.0,0.0,0.0,0.0,0.0,0.0,0.0,0.0,0.0,0.0,0.0,0.0,0.0,0.0,0.0,0.0,0.0,0.0,0.0,0.0,0.0,0.0,0.0,-3.6212,-3.5279,-3.6348,-3.6998,-3.7139,0.0,0.0,0.0,0.0,0.0,0.0,0.0,0.0,0.0,0.0,0.0,0.0,0.0,0.0,0.0,0.0,0.0,0.0,0.0,0.0,0.0,0.0,0.0,0.0,0.0,0.0,0.0,0.0,0.0,0.0,0.0,0.0,0.0,0.0,0.0,0.0,0.0,0.0,0.0,0.0,0.0,0.0,0.0,0.0,0.0,0.0,0.0,0.0,0.0,0.0,0.0,0.0,0.0,0.0,0.0,0.0,0.0,0.0,0.0,0.0,0.0,0.0,0.0,0.0,0.0,0.0,0.0,0.0,0.0,0.0,0.0,0.0,0.0,0.0,0.0,0.0,0.0,0.0,0.0,0.0,0.0,0.0,0.0,0.0,0.0,0.0,0.0,0.0,0.0,0.0,0.0,0.0,0.0,0.0,0.0,0.0,0.0,0.0,0.0,0.0,0.0,0.0,0.0,0.0,0.0,0.0,0.0,0.0,0.0,0.0,0.0,0.0,-3.7741,-3.8363,-3.8597,0.0,0.0,0.0,0.0,0.0,0.0,0.0,0.0,0.0,0.0,0.0,0.0,0.0,0.0,0.0,0.0,0.0,0.0,0.0,0.0,0.0,0.0,0.0,0.0,0.0,0.0,0.0,0.0,0.0,0.0,0.0,0.0,0.0,0.0,0.0,0.0,0.0,0.0,0.0,0.0,0.0,0.0,0.0,0.0,0.0,0.0,0.0,0.0,0.0,0.0,0.0,0.0,0.0,0.0,0.0,0.0,0.0,0.0,0.0,0.0,0.0,0.0,0.0,0.0,0.0,0.0,0.0,0.0,0.0,0.0,0.0,0.0,0.0,0.0,0.0,0.0,0.0,0.0,0.0,0.0,0.0,0.0,0.0,0.0,0.0,0.0,0.0,0.0,0.0,0.0,0.0,0.0,0.0,0.0,0.0,0.0,0.0,0.0,0.0,0.0,0.0,0.0,0.0,0.0,0.0,0.0,0.0,0.0,0.0,0.0,-3.8006,-3.7427,-3.8049,0.0,-3.9183,0.0,0.0,0.0,0.0,0.0,0.0,0.0,0.0,0.0,0.0,0.0,0.0,0.0,0.0,0.0,0.0,0.0,0.0,0.0,0.0,0.0,0.0,0.0,0.0,0.0,0.0,0.0,0.0,0.0,0.0,0.0,0.0,0.0,0.0,0.0,0.0,0.0,0.0,0.0,0.0,0.0,0.0,0.0,0.0,0.0,0.0,0.0,0.0,0.0,0.0,0.0,0.0,0.0,0.0,0.0,0.0,0.0,0.0,0.0,0.0,0.0,0.0,0.0,0.0,0.0,0.0,0.0,0.0,0.0,0.0,0.0,0.0,0.0,0.0,0.0,0.0,0.0,0.0,0.0,0.0,0.0,0.0,0.0,0.0,0.0,0.0,0.0,0.0,0.0,0.0,0.0,0.0,0.0,0.0,0.0,0.0,0.0,0.0,0.0,0.0,0.0,0.0,0.0,0.0,0.0,0.0,0.0,0.0,0.0,0.0,-3.883,-3.8586,-3.8803,-3.9074,0.0,0.0,0.0,0.0,0.0,0.0,0.0,0.0,0.0,0.0,0.0,0.0,0.0,0.0,0.0,0.0,0.0,0.0,0.0,0.0,0.0,0.0,0.0,0.0,0.0,0.0,0.0,0.0,0.0,0.0,0.0,0.0,0.0,0.0,0.0,0.0,0.0,0.0,0.0,0.0,0.0,0.0,0.0,0.0,0.0,0.0,0.0,0.0,0.0,0.0,0.0,0.0,0.0,0.0,0.0,0.0,0.0,0.0,0.0,0.0,0.0,0.0,0.0,0.0,0.0,0.0,0.0,0.0,0.0,0.0,0.0,0.0,0.0,0.0,0.0,0.0,0.0,0.0,0.0,0.0,0.0,0.0,0.0,0.0,0.0,0.0,0.0,0.0,0.0,0.0,0.0,0.0,0.0,0.0,0.0,0.0,0.0,0.0,0.0,0.0,0.0,0.0,0.0,0.0,0.0,0.0,0.0,0.0,0.0,0.0,-3.9319,-3.9319,-3.9319,-3.9319,-3.9319,-3.9319,0.0,0.0,0.0,0.0,0.0,0.0,0.0,0.0,0.0,0.0,0.0,0.0,0.0,0.0,0.0,0.0,0.0,0.0,0.0,0.0,0.0,0.0,0.0,0.0,0.0,0.0,0.0,0.0,0.0,0.0,0.0,0.0,0.0,0.0,0.0,0.0,0.0,0.0,0.0,0.0,0.0,0.0,0.0,0.0,0.0,0.0,0.0,0.0,0.0,0.0,0.0,0.0,0.0,0.0,0.0,0.0,0.0,0.0,0.0,0.0,0.0,0.0,0.0,0.0,0.0,0.0,0.0,0.0,0.0,0.0,0.0,0.0,0.0,0.0,0.0,0.0,0.0,0.0,0.0,0.0,0.0,0.0,0.0,0.0,0.0,0.0,0.0,0.0,0.0,0.0,0.0,0.0,0.0,0.0,0.0,0.0,0.0,0.0,0.0,0.0,0.0,0.0,0.0,0.0,0.0,0.0,0.0,0.0,-3.9319,-3.9319,-3.9319,-3.9319,-3.9319,-3.9319,0.0,0.0,0.0,0.0,0.0,0.0,0.0,0.0,0.0,0.0,0.0,0.0,0.0,0.0,0.0,0.0,0.0,0.0,0.0,0.0,0.0,0.0,0.0,0.0,0.0,0.0,0.0,0.0,0.0,0.0,0.0,0.0,0.0,0.0,0.0,0.0,0.0,0.0,0.0,0.0,0.0,0.0,0.0,0.0,0.0,0.0,0.0,0.0,0.0,0.0,0.0,0.0,0.0,0.0,0.0,0.0,0.0,0.0,0.0,0.0,0.0,0.0,0.0,0.0,0.0,0.0,0.0,0.0,0.0,0.0,0.0,0.0,0.0,0.0,0.0,0.0,0.0,0.0,0.0,0.0,0.0,0.0,0.0,0.0,0.0,0.0,0.0,0.0,0.0,0.0,0.0,0.0,0.0,0.0,0.0,0.0,0.0,0.0,0.0,0.0,0.0,0.0,0.0,0.0,0.0,0.0,0.0,0.0,0.0,-3.9319,-3.9319,-3.9319,-3.9319,-3.9319,-3.9319,0.0,0.0,0.0,0.0,0.0,0.0,0.0,0.0,0.0,0.0,0.0,0.0,0.0,0.0,0.0,0.0,0.0,0.0,0.0,0.0,0.0,0.0,0.0,0.0,0.0,0.0,0.0,0.0,0.0,0.0,0.0,0.0,0.0,0.0,0.0,0.0,0.0,0.0,0.0,0.0,0.0,0.0,0.0,0.0,0.0,0.0,0.0,0.0,0.0,0.0,0.0,0.0,0.0,0.0,0.0,0.0,0.0,0.0,0.0,0.0,0.0,0.0,0.0,0.0,0.0,0.0,0.0,0.0,0.0,0.0,0.0,0.0,0.0,0.0,0.0,0.0,0.0,0.0,0.0,0.0,0.0,0.0,0.0,0.0,0.0,0.0,0.0,0.0,0.0,0.0,0.0,0.0,0.0,0.0,0.0,0.0,0.0,0.0,0.0,0.0,0.0,0.0,0.0,0.0,0.0,0.0,0.0,0.0,0.0,-3.9319,0.0,-3.9319,-3.9319,-3.9319,-3.9319,0.0,0.0,0.0,0.0,0.0,0.0,0.0,0.0,0.0,0.0,0.0,0.0,0.0,0.0,0.0,0.0,0.0,0.0,0.0,0.0,0.0,0.0,0.0,0.0,0.0,0.0,0.0,0.0,0.0,0.0,0.0,0.0,0.0,0.0,0.0,0.0,0.0,0.0,0.0,0.0,0.0,0.0,0.0,0.0,0.0,0.0,0.0,0.0,0.0,0.0,0.0,0.0,0.0,0.0,0.0,0.0,0.0,0.0,0.0,0.0,0.0,0.0,0.0,0.0,0.0,0.0,0.0,0.0,0.0,0.0,0.0,0.0,0.0,0.0,0.0,0.0,0.0,0.0,0.0,0.0,0.0,0.0,0.0,0.0,0.0,0.0,0.0,0.0,0.0,0.0,0.0,0.0,0.0,0.0,0.0,0.0,0.0,0.0,0.0,0.0,0.0,0.0,0.0,0.0,0.0,0.0,0.0,0.0,-3.9319,-3.9319,-3.9319,-3.9319,-3.9319,-3.9319,-3.9319,0.0,0.0,0.0,0.0,0.0,0.0,0.0,0.0,0.0,0.0,0.0,0.0,0.0,0.0,0.0,0.0,0.0,0.0,0.0,0.0,0.0,0.0,0.0,0.0,0.0,0.0,0.0,0.0,0.0,0.0,0.0,0.0,0.0,0.0,0.0,0.0,0.0,0.0,0.0,0.0,0.0,0.0,0.0,0.0,0.0,0.0,0.0,0.0,0.0,0.0,0.0,0.0,0.0,0.0,0.0,0.0,0.0,0.0,0.0,0.0,0.0,0.0,0.0,0.0,0.0,0.0,0.0,0.0,0.0,0.0,0.0,0.0,0.0,0.0,0.0,0.0,0.0,0.0,0.0,0.0,0.0,0.0,0.0,0.0,0.0,0.0,0.0,0.0,0.0,0.0,0.0,0.0,0.0,0.0,0.0,0.0,0.0,0.0,0.0,0.0,0.0,0.0,0.0,0.0,0.0,0.0,0.0,0.0,0.0,-3.9319,-3.9319,-3.9319,-3.9319,-3.9319,-3.9319,0.0,0.0,0.0,0.0,0.0,0.0,0.0,0.0,0.0,0.0,0.0,0.0,0.0,0.0,0.0,0.0,0.0,0.0,0.0,0.0,0.0,0.0,0.0,0.0,0.0,0.0,0.0,0.0,0.0,0.0,0.0,0.0,0.0,0.0,0.0,0.0,0.0,0.0,0.0,0.0,0.0,0.0,0.0,0.0,0.0,0.0,0.0,0.0,0.0,0.0,0.0,0.0,0.0,0.0,0.0,0.0,0.0,0.0,0.0,0.0,0.0,0.0,0.0,0.0,0.0,0.0,0.0,0.0,0.0,0.0,0.0,0.0,0.0,0.0,0.0,0.0,0.0,0.0,0.0,0.0,0.0,0.0,0.0,0.0,0.0,0.0,0.0,0.0,0.0,0.0,0.0,0.0,0.0,0.0,0.0,0.0,0.0,0.0,0.0,0.0,0.0,0.0,0.0,0.0,0.0,0.0,0.0,0.0,0.0,-3.9051,-3.9114,-3.9203,-3.9319,-3.9319,-3.9319,-3.9319,0.0,0.0,0.0,0.0,0.0,0.0,0.0,0.0,0.0,0.0,0.0,0.0,0.0,0.0,0.0,0.0,0.0,0.0,0.0,0.0,0.0,0.0,0.0,0.0,0.0,0.0,0.0,0.0,0.0,0.0,0.0,0.0,0.0,0.0,0.0,0.0,0.0,0.0,0.0,0.0,0.0,0.0,0.0,0.0,0.0,0.0,0.0,0.0,0.0,0.0,0.0,0.0,0.0,0.0,0.0,0.0,0.0,0.0,0.0,0.0,0.0,0.0,0.0,0.0,0.0,0.0,0.0,0.0,0.0,0.0,0.0,0.0,0.0,0.0,0.0,0.0,0.0,0.0,0.0,0.0,0.0,0.0,0.0,0.0,0.0,0.0,0.0,0.0,0.0,0.0,0.0,0.0,0.0,0.0,0.0,0.0,0.0,0.0,0.0,0.0,0.0,0.0,0.0,0.0,0.0,0.0,0.0,0.0,-3.8557,-3.8756,-3.9024,-3.9247,-3.9292,-3.9319,0.0,0.0,0.0,0.0,0.0,0.0,0.0,0.0,0.0,0.0,0.0,0.0,0.0,0.0,0.0,0.0,0.0,0.0,0.0,0.0,0.0,0.0,0.0,0.0,0.0,0.0,0.0,0.0,0.0,0.0,0.0,0.0,0.0,0.0,0.0,0.0,0.0,0.0,0.0,0.0,0.0,0.0,0.0,0.0,0.0,0.0,0.0,0.0,0.0,0.0,0.0,0.0,0.0,0.0,0.0,0.0,0.0,0.0,0.0,0.0,0.0,0.0,0.0,0.0,0.0,0.0,0.0,0.0,0.0,0.0,0.0,0.0,0.0,0.0,0.0,0.0,0.0,0.0,0.0,0.0,0.0,0.0,0.0,0.0,0.0,0.0,0.0,0.0,0.0,0.0,0.0,0.0,0.0,0.0,0.0,0.0,0.0,0.0,0.0,0.0,0.0,0.0,0.0,0.0,0.0,0.0,0.0,0.0,0.0,-3.752,-3.805,-3.8621,-3.8997,-3.9203,-3.9319,0.0,0.0,0.0,0.0,0.0,0.0,0.0,0.0,0.0,0.0,0.0,0.0,0.0,0.0,0.0,0.0,0.0,0.0,0.0,0.0,0.0,0.0,0.0,0.0,0.0,0.0,0.0,0.0,0.0,0.0,0.0,0.0,0.0,0.0,0.0,0.0,0.0,0.0,0.0,0.0,0.0,0.0,0.0,0.0,0.0,0.0,0.0,0.0,0.0,0.0,0.0,0.0,0.0,0.0,0.0,0.0,0.0,0.0,0.0,0.0,0.0,0.0,0.0,0.0,0.0,0.0,0.0,0.0,0.0,0.0,0.0,0.0,0.0,0.0,0.0,0.0,0.0,0.0,0.0,0.0,0.0,0.0,0.0,0.0,0.0,0.0,0.0,0.0,0.0,0.0,0.0,0.0,0.0,0.0,0.0,0.0,0.0,0.0,0.0,0.0,0.0,0.0,0.0,0.0,0.0,0.0,0.0,0.0,-3.805,-3.6777,-3.7821,-3.844,-3.8594,-3.8845,-3.9024,0.0,0.0,0.0,0.0,0.0,0.0,0.0,0.0,0.0,0.0,0.0,0.0,0.0,0.0,0.0,0.0,0.0,0.0,0.0,0.0,0.0,0.0,0.0,0.0,0.0,0.0,0.0,0.0,0.0,0.0,0.0,0.0,0.0,0.0,0.0,0.0,0.0,0.0,0.0,0.0,0.0,0.0,0.0,0.0,0.0,0.0,0.0,0.0,0.0,0.0,0.0,0.0,0.0,0.0,0.0,0.0,0.0,0.0,0.0,0.0,0.0,0.0,0.0,0.0,0.0,0.0,0.0,0.0,0.0,0.0,0.0,0.0,0.0,0.0,0.0,0.0,0.0,0.0,0.0,0.0,0.0,0.0,0.0,0.0,0.0,0.0,0.0,0.0,0.0,0.0,0.0,0.0,0.0,0.0,0.0,0.0,0.0,0.0,0.0,0.0,0.0,0.0,0.0,0.0,0.0,0.0,0.0,0.0,-3.7886,-3.6341,-3.7774,-3.8398,-3.8188,-3.8474,-3.8711,0.0,0.0,0.0,0.0,0.0,0.0,0.0,0.0,0.0,0.0,0.0,0.0,0.0,0.0,0.0,0.0,0.0,0.0,0.0,0.0,0.0,0.0,0.0,0.0,0.0,0.0,0.0,0.0,0.0,0.0,0.0,0.0,0.0,0.0,0.0,0.0,0.0,0.0,0.0,0.0,0.0,0.0,0.0,0.0,0.0,0.0,0.0,0.0,0.0,0.0,0.0,0.0,0.0,0.0,0.0,0.0,0.0,0.0,0.0,0.0,0.0,0.0,0.0,0.0,0.0,0.0,0.0,0.0,0.0,0.0,0.0,0.0,0.0,0.0,0.0,0.0,0.0,0.0,0.0,0.0,0.0,0.0,0.0,0.0,0.0,0.0,0.0,0.0,0.0,0.0,0.0,0.0,0.0,0.0,0.0,0.0,0.0,0.0,0.0,0.0,0.0,0.0,0.0,0.0,0.0,0.0,0.0,0.0,-3.6825,-3.6328,-3.7441,-3.8003,-3.7954,-3.8364,-3.8737,0.0,0.0,0.0,0.0,0.0,0.0,0.0,0.0,0.0,0.0,0.0,0.0,0.0,0.0,0.0,0.0,0.0,0.0,0.0,0.0,0.0,0.0,0.0,0.0,0.0,0.0,0.0,0.0,0.0,0.0,0.0,0.0,0.0,0.0,0.0,0.0,0.0,0.0,0.0,0.0,0.0,0.0,0.0,0.0,0.0,0.0,0.0,0.0,-4.3871,0.0,0.0,0.0,0.0,0.0,0.0,0.0,0.0,0.0,0.0,0.0,0.0,0.0,0.0,0.0,0.0,0.0,0.0,0.0,0.0,0.0,0.0,0.0,0.0,0.0,0.0,0.0,0.0,0.0,0.0,0.0,0.0,0.0,0.0,0.0,0.0,0.0,0.0,0.0,0.0,0.0,0.0,0.0,0.0,0.0,0.0,0.0,0.0,0.0,0.0,0.0,0.0,0.0,0.0,0.0,0.0,0.0,0.0,0.0,-3.6213,-3.5549,-3.7044,-3.7668,-3.717,-3.8402,-3.8853,0.0,0.0,0.0,0.0,0.0,0.0,0.0,0.0,0.0,0.0,0.0,0.0,0.0,0.0,0.0,0.0,0.0,0.0,0.0,0.0,0.0,0.0,0.0,0.0,0.0,0.0,0.0,0.0,0.0,0.0,0.0,0.0,0.0,0.0,0.0,0.0,0.0,0.0,0.0,0.0,0.0,0.0,0.0,0.0,0.0,0.0,0.0,0.0,0.0,0.0,0.0,0.0,0.0,0.0,0.0,0.0,0.0,0.0,0.0,0.0,0.0,0.0,0.0,0.0,0.0,0.0,0.0,0.0,0.0,0.0,0.0,0.0,0.0,0.0,0.0,0.0,0.0,0.0,0.0,0.0,0.0,0.0,0.0,0.0,0.0,0.0,0.0,0.0,0.0,0.0,0.0,0.0,0.0,0.0,0.0,0.0,0.0,0.0,0.0,0.0,0.0,0.0,0.0,0.0,0.0,0.0,0.0,-3.6504,-3.5808,-3.4975,-3.6681,-3.7189,-3.6272,-3.8066,-3.8677,-3.7848,0.0,0.0,0.0,0.0,0.0,0.0,0.0,0.0,0.0,0.0,0.0,0.0,0.0,0.0,0.0,0.0,0.0,0.0,0.0,0.0,0.0,0.0,0.0,0.0,0.0,0.0,0.0,0.0,0.0,0.0,0.0,0.0,0.0,0.0,0.0,0.0,0.0,0.0,-4.2819,-4.29,0.0,0.0,0.0,0.0,0.0,0.0,0.0,0.0,-4.29,0.0,0.0,0.0,0.0,0.0,0.0,0.0,0.0,0.0,0.0,0.0,0.0,0.0,0.0,0.0,0.0,0.0,0.0,0.0,0.0,0.0,0.0,0.0,0.0,0.0,0.0,0.0,0.0,0.0,0.0,0.0,0.0,0.0,0.0,0.0,0.0,0.0,0.0,0.0,0.0,0.0,0.0,0.0,0.0,0.0,0.0,0.0,0.0,0.0,0.0,0.0,0.0,0.0,0.0,0.0,0.0,-3.6684,-3.5491,-3.5186,-3.5925,-3.6302,-3.641,-3.6248,-3.657,-3.7082,-3.7837,0.0,0.0,0.0,0.0,0.0,0.0,0.0,0.0,0.0,0.0,0.0,0.0,0.0,0.0,0.0,0.0,0.0,0.0,0.0,0.0,0.0,0.0,0.0,0.0,0.0,0.0,0.0,0.0,0.0,0.0,0.0,0.0,0.0,0.0,0.0,0.0,0.0,0.0,0.0,-4.29,-4.29,0.0,0.0,0.0,0.0,0.0,0.0,0.0,0.0,-4.3018,0.0,0.0,0.0,0.0,0.0,0.0,0.0,0.0,0.0,0.0,0.0,0.0,0.0,0.0,0.0,0.0,0.0,0.0,0.0,0.0,0.0,0.0,0.0,0.0,0.0,0.0,0.0,0.0,0.0,0.0,0.0,0.0,0.0,0.0,0.0,0.0,0.0,0.0,0.0,0.0,0.0,0.0,0.0,0.0,0.0,0.0,0.0,0.0,0.0,0.0,0.0,0.0,0.0,0.0,0.0,-3.7073,-3.5378,-3.4791,-3.5323,-3.5904,-3.5904,-3.5378,-3.648,-3.7464,0.0,0.0,0.0,0.0,0.0,0.0,0.0,0.0,0.0,0.0,0.0,0.0,0.0,0.0,0.0,0.0,0.0,0.0,0.0,0.0,0.0,0.0,0.0,0.0,0.0,0.0,0.0,0.0,0.0,0.0,0.0,0.0,0.0,0.0,0.0,0.0,0.0,0.0,0.0,0.0,-4.29,-4.29,-4.29,0.0,0.0,0.0,0.0,0.0,0.0,-4.29,-4.29,0.0,0.0,0.0,0.0,0.0,0.0,0.0,0.0,0.0,0.0,0.0,0.0,0.0,0.0,0.0,0.0,0.0,0.0,0.0,0.0,0.0,0.0,0.0,0.0,0.0,0.0,0.0,0.0,0.0,0.0,0.0,0.0,0.0,0.0,0.0,0.0,0.0,0.0,0.0,0.0,0.0,0.0,0.0,0.0,0.0,0.0,0.0,0.0,0.0,0.0,0.0,0.0,0.0,0.0,0.0,-3.7713,-3.5576,-3.4479,-3.4534,-3.5378,-3.5433,-3.4568,-3.6263,-3.7666,0.0,0.0,0.0,0.0,0.0,0.0,0.0,0.0,0.0,0.0,0.0,0.0,0.0,0.0,0.0,0.0,0.0,0.0,0.0,0.0,0.0,0.0,0.0,0.0,0.0,0.0,0.0,0.0,0.0,0.0,0.0,0.0,0.0,0.0,0.0,0.0,0.0,0.0,0.0,0.0,0.0,-4.29,-4.29,-4.29,0.0,0.0,0.0,0.0,-4.29,-4.29,0.0,0.0,0.0,0.0,0.0,0.0,0.0,0.0,0.0,0.0,0.0,0.0,0.0,0.0,0.0,0.0,0.0,0.0,0.0,0.0,0.0,0.0,0.0,0.0,0.0,0.0,0.0,0.0,0.0,0.0,0.0,0.0,0.0,0.0,0.0,0.0,0.0,0.0,0.0,0.0,0.0,0.0,0.0,0.0,0.0,0.0,0.0,0.0,0.0,0.0,0.0,0.0,0.0,0.0,0.0,0.0,-3.8457,-3.5881,-3.4479,-3.4513,-3.4646,-3.4624,-3.4534,-3.4791,-3.61,0.0,0.0,0.0,0.0,0.0,0.0,0.0,0.0,0.0,0.0,0.0,0.0,0.0,0.0,0.0,0.0,0.0,0.0,0.0,0.0,0.0,0.0,0.0,0.0,0.0,0.0,0.0,0.0,0.0,0.0,0.0,0.0,0.0,0.0,0.0,0.0,0.0,0.0,0.0,0.0,0.0,-4.29,-4.29,-4.29,-4.29,0.0,0.0,-4.29,-4.29,-4.29,0.0,0.0,0.0,0.0,0.0,0.0,0.0,0.0,0.0,0.0,0.0,0.0,0.0,0.0,0.0,0.0,0.0,0.0,0.0,0.0,0.0,0.0,0.0,0.0,0.0,0.0,0.0,0.0,0.0,0.0,0.0,0.0,0.0,0.0,0.0,0.0,0.0,0.0,0.0,0.0,0.0,0.0,0.0,0.0,0.0,0.0,0.0,0.0,0.0,0.0,0.0,0.0,0.0,0.0,0.0,-3.7796,-3.7287,-3.5488,-3.4479,-3.4479,-3.4479,-3.4479,-3.4479,-3.4479,-3.5576,0.0,0.0,0.0,0.0,0.0,0.0,0.0,0.0,0.0,0.0,0.0,0.0,0.0,0.0,0.0,0.0,0.0,0.0,0.0,0.0,0.0,0.0,0.0,0.0,0.0,0.0,0.0,0.0,0.0,0.0,0.0,0.0,0.0,0.0,0.0,0.0,0.0,0.0,0.0,0.0,0.0,0.0,-4.29,-4.29,0.0,0.0,0.0,-4.29,-4.29,0.0,0.0,0.0,0.0,0.0,0.0,0.0,0.0,0.0,0.0,0.0,0.0,0.0,0.0,0.0,0.0,0.0,0.0,0.0,0.0,0.0,0.0,0.0,0.0,0.0,0.0,0.0,0.0,0.0,0.0,0.0,0.0,0.0,0.0,0.0,0.0,0.0,0.0,0.0,0.0,0.0,0.0,0.0,0.0,0.0,0.0,0.0,0.0,0.0,0.0,0.0,0.0,0.0,0.0,0.0,0.0,0.0,-3.6363,-3.5124,-3.4479,-3.4479,-3.4479,-3.4479,-3.4479,-3.4479,0.0,0.0,0.0,0.0,0.0,0.0,0.0,0.0,0.0,0.0,0.0,0.0,0.0,0.0,0.0,0.0,0.0,0.0,0.0,0.0,0.0,0.0,0.0,0.0,0.0,0.0,0.0,-4.29,0.0,0.0,0.0,0.0,0.0,0.0,0.0,0.0,0.0,0.0,0.0,0.0,0.0,0.0,-4.29,-4.29,-4.29,-4.29,0.0,0.0,-4.29,-4.29,-4.29,-4.29,0.0,0.0,0.0,0.0,0.0,0.0,0.0,0.0,0.0,0.0,0.0,0.0,0.0,0.0,0.0,0.0,0.0,0.0,0.0,0.0,0.0,0.0,0.0,0.0,0.0,0.0,0.0,0.0,0.0,0.0,0.0,0.0,0.0,0.0,0.0,0.0,0.0,0.0,0.0,0.0,0.0,0.0,0.0,0.0,0.0,0.0,0.0,0.0,0.0,0.0,0.0,0.0,0.0,0.0,0.0,-3.6565,-3.5212,-3.4479,-3.4479,-3.4479,-3.4479,-3.4479,-3.4479,-3.5157,0.0,0.0,0.0,0.0,0.0,0.0,0.0,0.0,0.0,0.0,0.0,0.0,0.0,0.0,0.0,0.0,0.0,0.0,0.0,0.0,0.0,0.0,0.0,0.0,0.0,0.0,0.0,0.0,0.0,0.0,0.0,0.0,0.0,0.0,0.0,0.0,0.0,0.0,0.0,0.0,0.0,-4.29,-4.29,-4.29,-4.29,0.0,0.0,-4.29,-4.29,-4.29,-4.29,-4.29,0.0,0.0,0.0,0.0,0.0,0.0,0.0,0.0,0.0,0.0,0.0,0.0,0.0,0.0,0.0,0.0,0.0,0.0,0.0,0.0,0.0,0.0,0.0,0.0,0.0,0.0,0.0,0.0,0.0,0.0,0.0,0.0,0.0,0.0,0.0,0.0,0.0,0.0,0.0,0.0,0.0,0.0,0.0,0.0,0.0,0.0,0.0,0.0,0.0,0.0,0.0,0.0,0.0,-3.6634,-3.6394,-3.5179,-3.4479,-3.4479,-3.4479,-3.4479,-3.4479,-3.4479,-3.4958,0.0,0.0,0.0,0.0,0.0,0.0,0.0,0.0,0.0,0.0,0.0,0.0,0.0,0.0,0.0,0.0,0.0,0.0,0.0,0.0,0.0,0.0,0.0,0.0,0.0,0.0,0.0,0.0,-4.29,-4.29,-4.29,0.0,0.0,0.0,0.0,0.0,0.0,0.0,0.0,0.0,0.0,-4.29,-4.29,-4.29,0.0,0.0,-4.29,-4.29,-4.29,-4.29,-4.29,-4.29,-4.29,0.0,0.0,0.0,0.0,0.0,0.0,0.0,0.0,0.0,0.0,0.0,0.0,0.0,0.0,0.0,0.0,0.0,0.0,0.0,0.0,0.0,0.0,0.0,0.0,0.0,0.0,0.0,0.0,0.0,0.0,0.0,0.0,0.0,0.0,0.0,0.0,0.0,0.0,0.0,0.0,0.0,0.0,0.0,0.0,0.0,0.0,0.0,0.0,0.0,0.0,0.0,0.0,-3.6114,-3.5785,-3.4902,-3.4479,-3.4479,-3.4479,-3.4479,-3.4479,-3.4479,-3.468,0.0,0.0,0.0,0.0,0.0,0.0,0.0,0.0,0.0,0.0,0.0,0.0,0.0,0.0,0.0,0.0,0.0,0.0,0.0,0.0,0.0,0.0,0.0,0.0,0.0,0.0,0.0,0.0,-4.29,-4.29,-4.29,0.0,0.0,0.0,0.0,0.0,0.0,0.0,0.0,0.0,0.0,-4.29,-4.29,-4.29,-4.29,-4.29,-4.29,-4.29,-4.29,-4.29,-4.29,-4.29,0.0,0.0,0.0,0.0,0.0,0.0,0.0,0.0,0.0,0.0,0.0,0.0,0.0,0.0,0.0,0.0,0.0,0.0,0.0,0.0,0.0,0.0,0.0,0.0,0.0,0.0,0.0,0.0,0.0,0.0,-3.6013,0.0,0.0,0.0,0.0,0.0,0.0,0.0,0.0,0.0,0.0,0.0,0.0,0.0,0.0,0.0,0.0,0.0,0.0,0.0,0.0,0.0,0.0,-3.573,-3.4568,-3.4513,-3.4479,-3.4479,-3.4479,-3.4479,-3.4479,-3.4479,-3.4513,-3.4534,0.0,0.0,0.0,0.0,0.0,0.0,0.0,0.0,0.0,0.0,0.0,0.0,0.0,0.0,0.0,0.0,0.0,0.0,0.0,0.0,0.0,0.0,0.0,0.0,0.0,0.0,-4.29,-4.29,-4.29,0.0,0.0,0.0,0.0,0.0,0.0,0.0,0.0,0.0,0.0,-4.29,-4.29,-4.29,-4.29,-4.29,-4.29,-4.29,-4.29,-4.29,-4.29,-4.29,0.0,0.0,0.0,0.0,0.0,0.0,0.0,0.0,0.0,0.0,0.0,0.0,0.0,0.0,0.0,0.0,0.0,0.0,0.0,0.0,0.0,0.0,0.0,0.0,0.0,0.0,0.0,-3.4479,-3.4479,0.0,0.0,0.0,0.0,0.0,0.0,0.0,0.0,0.0,0.0,0.0,-3.5124,-3.5069,0.0,0.0,0.0,0.0,0.0,0.0,0.0,0.0,0.0,0.0,0.0,0.0,-3.5895,-3.5102,-3.468,-3.4479,-3.4479,-3.4479,-3.4479,-3.4479,-3.4479,-3.4479,-3.4534,0.0,0.0,0.0,0.0,0.0,0.0,0.0,0.0,0.0,0.0,0.0,0.0,0.0,0.0,0.0,0.0,0.0,0.0,0.0,0.0,0.0,0.0,0.0,0.0,0.0,-4.29,0.0,0.0,0.0,0.0,0.0,0.0,0.0,0.0,0.0,0.0,0.0,-4.29,-4.29,-4.29,-4.29,-4.29,-4.29,-4.29,0.0,0.0,0.0,0.0,0.0,0.0,0.0,0.0,0.0,0.0,0.0,0.0,0.0,0.0,-4.4149,-4.4366,-4.4393,-4.4447,-4.4664,0.0,0.0,0.0,0.0,0.0,0.0,0.0,0.0,0.0,0.0,0.0,0.0,0.0,0.0,-3.4479,0.0,-3.4479,0.0,0.0,0.0,0.0,0.0,0.0,0.0,0.0,-3.4479,-3.4479,-3.4479,-3.4479,-3.4479,0.0,-3.4479,-3.5157,0.0,0.0,0.0,0.0,0.0,0.0,0.0,0.0,-3.5653,-3.5102,-3.468,-3.4479,-3.4479,-3.4479,-3.4479,-3.4479,-3.4479,-3.4479,-3.4457,-3.5046,-3.5378,0.0,0.0,0.0,0.0,0.0,0.0,0.0,0.0,0.0,0.0,0.0,0.0,0.0,0.0,0.0,0.0,0.0,0.0,0.0,0.0,0.0,0.0,0.0,-4.29,0.0,0.0,0.0,0.0,0.0,0.0,0.0,0.0,0.0,-4.29,-4.29,-4.29,-4.29,-4.29,-4.29,-4.29,0.0,0.0,0.0,0.0,0.0,0.0,0.0,-4.366,-4.404,-4.4094,-4.4312,-4.4908,-4.5017,-4.5071,-4.5288,0.0,0.0,-4.5044,-4.5017,-4.5071,-4.5288,-4.5641,-4.5777,-4.5397,-4.5614,-4.5912,0.0,0.0,0.0,0.0,0.0,0.0,0.0,0.0,-3.4479,-3.4479,0.0,-3.4479,0.0,0.0,0.0,0.0,0.0,-3.4479,0.0,0.0,-3.4479,-3.4479,-3.4479,-3.4479,-3.4479,-3.4479,-3.4479,-3.4534,-3.4568,-3.5102,0.0,0.0,0.0,0.0,0.0,0.0,-3.5102,-3.4534,-3.4513,-3.4479,-3.4479,-3.4479,-3.4479,-3.4479,-3.4479,-3.4479,-3.4534,-3.5046,-3.5378,-3.5433,-3.6417,0.0,0.0,0.0,0.0,0.0,0.0,0.0,0.0,0.0,0.0,0.0,0.0,0.0,0.0,0.0,0.0,0.0,0.0,0.0,0.0,-4.29,0.0,0.0,0.0,0.0,0.0,0.0,0.0,0.0,0.0,0.0,-4.29,-4.29,-4.29,-4.29,0.0,0.0,0.0,0.0,-4.2928,-4.2928,-4.3416,-4.3796,-4.3796,-4.4312,-4.4691,-4.4719,0.0,0.0,-4.5533,-4.5614,-4.5804,-4.6347,-4.6453,-4.6292,-4.5723,-4.5614,-4.5777,-4.6372,-4.648,-4.6508,-4.6508,-4.6426,-4.6428,-3.4479,0.0,0.0,0.0,0.0,-3.4479,-3.4479,-3.4479,-3.4479,-3.4479,-3.4479,-3.4479,0.0,0.0,0.0,0.0,0.0,0.0,-3.4479,-3.4479,-3.4479,-3.4479,-3.4479,-3.4479,-3.4479,-3.4479,-3.4479,-3.4479,-3.4534,-3.468,-3.5069,-3.5653,0.0,0.0,0.0,0.0,-3.5102,-3.4534,-3.4479,-3.4479,-3.4479,-3.4479,-3.4479,-3.4479,-3.4479,-3.4479,-3.4479,-3.468,-3.4958,-3.5378,-3.5708,0.0,0.0,0.0,0.0,0.0,0.0,0.0,0.0,0.0,0.0,0.0,0.0,0.0,0.0,0.0,0.0,0.0,0.0,0.0,-4.29,-4.29,-4.29,0.0,0.0,0.0,0.0,0.0,0.0,0.0,0.0,0.0,-4.29,-4.29,-4.29,0.0,0.0,-4.29,-4.29,-4.3253,-4.3574,-4.3525,0.0,0.0,0.0,-4.4583,-4.4854,-4.5261,-4.5695,-4.6021,-4.6236,-4.6263,-4.6317,-4.6508,-4.6535,-4.6401,-4.6265,-4.6211,-4.6345,-4.6455,-4.6535,-4.6535,-4.6535,-4.6535,-4.6535,-3.4479,-3.4479,-3.4479,-3.4479,-3.4479,-3.4479,-3.4479,-3.4534,-3.4653,-3.4797,-3.4818,-3.5015,-3.5212,-3.5386,-3.5386,0.0,0.0,0.0,-3.4797,-3.4797,-3.46,-3.4479,-3.4479,-3.4479,-3.4479,-3.4479,-3.4479,-3.4479,-3.4479,-3.4479,-3.468,-3.5046,0.0,0.0,-3.5046,-3.5046,-3.4847,-3.4534,-3.4479,-3.4479,-3.4479,-3.4479,-3.4479,-3.4479,-3.4479,-3.4479,-3.4479,-3.4479,-3.468,-3.5013,-3.5268,-3.5543,0.0,0.0,0.0,0.0,0.0,0.0,0.0,0.0,0.0,0.0,0.0,-4.1322,-4.1647,0.0,0.0,0.0,-4.2679,-4.29,-4.29,-4.29,0.0,0.0,0.0,0.0,0.0,0.0,0.0,-4.29,-4.29,-4.29,-4.29,-4.309,-4.3145,-4.2928,-4.309,-4.3226,-4.3226,0.0,-4.4149,-4.4149,-4.4664,-4.5071,-4.5071,-4.5261,-4.5533,-4.5885,-4.6238,-4.6508,-4.6535,-4.6535,-4.6535,-4.6535,-4.6535,-4.6535,-4.6535,-4.6535,-4.6535,-4.6535,-4.6535,-4.6535,-4.6535,-4.6535,-4.6535,-3.46,-3.4622,-3.4644,-3.4622,-3.4522,-3.4622,-3.4644,-3.4666,-3.5081,-3.5277,-3.5299,-3.5758,-3.6216,-3.6631,-3.6631,0.0,-3.5991,-3.5474,-3.5255,-3.5255,-3.484,-3.4622,-3.4578,-3.4522,-3.4556,-3.4479,-3.4479,-3.4479,-3.4479,-3.4479,-3.4479,-3.4479,-3.4479,-3.4479,-3.4479,-3.4479,-3.4479,-3.4479,-3.4479,-3.4479,-3.4479,-3.4479,-3.4479,-3.4479,-3.4479,-3.4479,-3.4479,-3.4479,-3.4479,-3.4534,-3.5046,-3.5323,-3.5323,0.0,0.0,0.0,0.0,0.0,0.0,0.0,0.0,0.0,0.0,0.0,0.0,0.0,0.0,0.0,-4.2484,0.0,-4.29,-4.29,0.0,0.0,0.0,-4.29,-4.29,-4.29,-4.29,-4.29,0.0,0.0,-4.2955,0.0,-4.3628,-4.309,-4.3497,-4.39,-4.385,-4.4366,-4.4773,-4.4773,-4.5288,-4.5641,-4.5668,-4.6075,-4.6426,-4.6453,-4.6535,-4.6535,-4.6535,-4.6616,-4.6589,-4.6643,-4.6591,-4.6645,-4.6645,-4.6699,-4.6618,-4.6672,-4.6564,-4.6482,-4.6564,-4.6643,-4.6671,-3.5277,-3.5627,-3.5627,-3.5408,-3.5081,-3.5452,-3.5627,-3.5648,-3.5736,-3.578,-3.5801,-3.5969,-3.6042,-3.6129,-3.6151,-3.6085,-3.6012,-3.5845,-3.578,-3.578,-3.567,-3.5408,-3.5037,-3.5059,-3.4862,-3.4479,-3.4479,-3.4479,-3.4479,-3.4479,-3.4479,-3.4479,-3.4479,-3.4479,-3.4479,-3.4479,-3.4479,-3.4479,-3.4479,-3.4479,-3.4479,-3.4479,-3.4479,-3.4479,-3.4479,-3.4479,-3.4479,-3.4479,-3.4479,-3.4513,-3.4624,-3.4736,-3.4736,-3.5708,0.0,0.0,0.0,0.0,0.0,0.0,0.0,0.0,0.0,-3.9827,-4.0642,0.0,-4.1246,0.0,-4.2776,-4.29,-4.29,-4.29,0.0,0.0,-4.29,-4.29,-4.29,-4.29,-4.29,-4.29,-4.29,-4.3063,-4.3547,-4.3737,-4.3904,-4.4203,-4.4393,-4.4474,-4.4501,-4.499,-4.537,-4.5424,-4.5885,-4.6265,-4.629,-4.6426,-4.6482,-4.6535,-4.6535,-4.6535,-4.6535,-4.6915,-4.7187,-4.7241,-4.7541,-4.7785,-4.7785,-4.7812,-4.7812,-4.7758,-4.7106,-4.6618,-4.7105,-4.7214,-4.7269,-3.5714,-3.6034,-3.6195,-3.6129,-3.5889,-3.5932,-3.6012,-3.6056,-3.6195,-3.6304,-3.6362,-3.65,-3.6647,-3.6647,-3.6588,-3.6647,-3.6647,-3.6369,-3.6282,-3.6282,-3.6063,-3.5823,-3.5539,-3.5321,-3.5081,-3.4818,-3.4622,-3.4479,-3.4479,-3.4479,-3.4479,-3.4479,-3.4479,-3.4479,-3.4479,-3.4479,-3.4479,-3.4479,-3.4479,-3.4479,-3.4479,-3.4479,-3.4479,-3.4479,-3.4479,-3.4479,-3.4479,-3.4479,-3.4624,-3.4902,-3.4902,-3.4902,-3.4902,-3.5785,-3.6168,0.0,0.0,0.0,0.0,0.0,0.0,0.0,0.0,0.0,0.0,0.0,-4.1069,-4.2728,-4.29,-4.29,-4.29,-4.29,-4.29,-4.29,-4.29,-4.29,-4.29,-4.29,-4.3009,-4.3253,-4.328,-4.3497,-4.4094,-4.442,-4.4691,-4.5071,-4.5316,-4.5397,-4.5207,-4.5614,-4.5994,-4.5994,-4.6265,-4.6535,-4.6535,-4.6485,-4.6568,-4.6862,-4.6972,-4.7054,-4.7269,-4.7513,-4.7758,-4.7785,-4.8029,-4.8192,-4.8192,-4.8192,-4.8192,-4.811,-4.7731,-4.7432,-4.7676,-4.7758,-4.7866,-3.6166,-3.6253,-3.661,-3.6784,-3.6762,-3.6326,-3.6209,-3.6173,-3.6588,-3.6784,-3.6806,-3.7199,-3.7374,-3.7374,-3.7374,-3.7374,-3.7352,-3.6981,-3.6784,-3.6762,-3.6406,-3.6166,-3.61,-3.5605,-3.5364,-3.5299,-3.4818,-3.4544,-3.46,-3.45,-3.4479,-3.4479,-3.4479,-3.4479,-3.4479,-3.4479,-3.4479,-3.4479,-3.4479,-3.4479,-3.4479,-3.4479,-3.4479,-3.4479,-3.4479,-3.4479,-3.4479,-3.4479,-3.4736,-3.5268,-3.5378,-3.5378,-3.5433,-3.6059,-3.6363,0.0,-3.6928,0.0,0.0,0.0,0.0,0.0,0.0,0.0,0.0,-4.0667,-4.1345,-4.2776,-4.29,-4.29,-4.29,-4.29,-4.29,-4.29,-4.29,-4.29,-4.29,-4.2955,-4.3199,-4.3715,-4.3823,-4.4122,-4.4746,-4.5288,-4.5587,-4.5723,-4.6075,-4.6184,-4.5858,-4.6182,-4.648,-4.6535,-4.6589,-4.6725,-4.6672,-4.6677,-4.684,-4.7406,-4.765,-4.7866,-4.8083,-4.8219,-4.83,-4.8327,-4.8408,-4.8463,-4.8408,-4.8435,-4.8435,-4.849,-4.8463,-4.8381,-4.8327,-4.83,-4.8327,-3.6784,-3.7112,-3.7199,-3.7243,-3.7243,-3.7156,-3.7172,-3.7134,-3.7199,-3.7243,-3.7265,-3.7352,-3.7374,-3.7374,-3.7374,-3.7374,-3.7374,-3.7287,-3.7243,-3.7243,-3.7156,-3.6915,-3.6566,-3.6457,-3.6195,-3.5801,-3.5321,-3.5081,-3.5081,-3.4709,-3.4479,-3.4479,-3.4479,-3.4479,-3.4479,0.0,0.0,0.0,-3.4479,-3.4479,-3.4479,-3.4479,-3.4479,-3.4479,-3.4479,0.0,-3.4479,-3.4479,-3.4568,-3.468,-3.5157,0.0,0.0,0.0,0.0,0.0,0.0,0.0,0.0,0.0,0.0,0.0,-3.808,-3.8973,-4.1222,-4.2016,-4.2582,-4.29,-4.29,-4.29,-4.29,-4.29,-4.29,-4.29,-4.29,-4.29,-4.29,-4.3308,-4.371,-4.3791,-4.4203,-4.4746,-4.5343,-4.5533,-4.5777,-4.6236,-4.6401,-4.6428,-4.6372,-4.6374,-4.6535,-4.6562,-4.6889,-4.7214,-4.7241,-4.7298,-4.7487,-4.8002,-4.8382,-4.8491,-4.8355,-4.8652,-4.8896,-4.8923,-4.9359,-4.9657,-4.963,-4.9684,-4.9603,-4.9657,-4.9657,-4.9521,-4.9005,-4.8896,-4.9032,-3.7156,0.0,-3.7374,-3.7374,0.0,-3.7374,-3.7374,-3.7374,-3.7374,-3.7374,-3.7374,-3.7374,-3.7374,-3.7374,-3.7374,-3.7374,-3.7374,-3.7374,-3.7374,-3.7374,-3.7374,-3.7265,-3.7025,-3.6806,-3.6566,-3.6304,-3.5823,-3.5583,-3.5561,-3.5102,-3.4862,-3.4862,-3.4644,-3.4479,-3.4479,-3.4479,-3.4479,-3.4479,-3.4479,-3.4479,-3.4479,-3.4479,-3.4479,-3.4479,0.0,0.0,0.0,0.0,0.0,0.0,0.0,0.0,0.0,0.0,0.0,-3.712,-3.7679,-3.7974,-3.7974,-3.7974,-3.8344,-3.9156,-3.9981,-4.0592,-4.1045,-4.219,-4.29,-4.29,-4.29,-4.29,-4.29,-4.29,-4.29,-4.29,-4.3145,-4.3335,-4.3389,-4.385,-4.4339,-4.4637,-4.4963,-4.537,-4.5967,-4.6021,-4.613,-4.648,-4.6535,-4.6535,-4.6535,-4.6535,-4.6564,-4.6915,-4.7405,-4.7785,-4.7812,-4.7866,-4.808,-4.8543,-4.9061,-4.9251,-4.9142,-4.9359,-4.9576,-4.9576,-4.982,-5.001,-5.001,-5.001,-5.001,-5.001,-5.001,-4.9928,-4.9603,-4.9549,-4.963,-3.7374,-3.7374,-3.7374,-3.7374,-3.7374,-3.7374,-3.7374,-3.7374,0.0,0.0,0.0,-3.7374,-3.7374,-3.7374,-3.7374,-3.7374,-3.7374,-3.7374,-3.7374,-3.7374,-3.7374,-3.7374,-3.7352,-3.7003,-3.6806,-3.6784,-3.6326,-3.6107,-3.6063,-3.5583,-3.5343,-3.5299,-3.4971,-3.4731,-3.4644,-3.4556,-3.4479,-3.4479,-3.4479,-3.4479,-3.4479,-3.4479,-3.4479,-3.4479,-3.4479,-3.4479,-3.4479,-3.4624,-3.4847,-3.5212,-3.5433,-3.5708,-3.6145,-3.6742,-3.712,-3.712,-3.7814,-3.8185,-3.8185,-3.8344,-3.9,-4.0313,-4.1819,-4.2164,-4.0919,-4.2115,-4.29,-4.29,-4.29,-4.2928,-4.3036,-4.3063,-4.309,-4.3199,-4.366,-4.3932,-4.4008,-4.4474,-4.5044,-4.5505,-4.5668,-4.5912,-4.6426,-4.6508,-4.6535,-4.6535,-4.6643,-4.6699,-4.6754,-4.6754,-4.6942,-4.7486,-4.8002,-4.8327,-4.8381,-4.8514,-4.8728,-4.9194,-4.9684,-4.9983,-5.001,-5.001,-5.001,-4.9956,-5.001,-5.001,-5.001,-5.001,-5.001,-5.001,-5.001,-5.001,-5.001,-5.001,-4.9983,-3.7374,-3.7374,-3.7374,-3.7374,-3.7374,-3.7374,-3.7374,-3.7374,-3.7374,-3.7374,-3.7374,-3.7374,-3.7374,-3.7374,-3.7374,-3.7374,-3.7374,-3.7374,-3.7374,0.0,-3.7374,-3.7374,-3.7374,-3.7309,-3.7287,-3.7243,-3.6806,-3.6588,-3.6544,-3.6107,-3.5867,-3.5845,-3.5859,-3.5539,-3.5124,-3.4731,-3.4479,-3.4479,-3.4479,-3.4479,-3.4479,-3.4479,-3.4479,-3.4479,-3.4479,-3.4479,-3.4457,-3.4991,-3.5069,-3.468,-3.5598,-3.5982,-3.5598,-3.6526,-3.712,-3.7173,-3.8344,-3.9025,-3.9025,-3.9673,-4.016,-4.0414,-4.1322,-4.2043,-4.2533,-4.2776,-4.29,-4.29,-4.2928,-4.309,-4.3601,-4.371,-4.385,-4.4312,-4.4501,-4.4583,-4.4583,-4.5071,-4.5478,-4.5614,-4.6048,-4.6347,-4.6508,-4.6535,-4.6482,-4.6616,-4.6997,-4.7405,-4.7731,-4.7568,-4.7513,-4.8029,-4.8571,-4.8896,-4.8978,-4.9411,-4.9682,-4.9874,-4.9928,-5.001,-5.001,-5.001,-5.001,-5.001,-5.001,-5.001,-5.001,-5.001,-5.001,-5.001,-5.001,-5.001,-5.0064,-5.0091,-5.0064,-3.7374,-3.7374,-3.7374,-3.7374,-3.7374,-3.7374,-3.7374,-3.7374,-3.7374,-3.7374,-3.7374,-3.7374,-3.7374,-3.7374,-3.7374,-3.7374,-3.7374,-3.7374,-3.7374,-3.7374,-3.7374,-3.7374,-3.7374,-3.7374,-3.7374,-3.7352,-3.7178,-3.7068,-3.7025,-3.6588,-3.6369,-3.6347,-3.6107,-3.5903,-3.5627,-3.5408,-3.5321,-3.5299,-3.4797,-3.4479,-3.4479,-3.4479,-3.4479,-3.4479,-3.4479,-3.4479,-3.4534,-3.4791,-3.4936,-3.4991,-3.5488,-3.5982,-3.6309,-3.6796,-3.7251,-3.7601,-3.8185,-3.8554,-3.8554,-3.9725,-4.0568,-4.0901,-4.2069,-4.313,-4.3801,-4.3552,-4.3389,-4.3389,-4.366,-4.3986,-4.4257,-4.4284,-4.4393,-4.4664,-4.4719,-4.4827,-4.5153,-4.5397,-4.5723,-4.6021,-4.6345,-4.6535,-4.6535,-4.6535,-4.6671,-4.6969,-4.7459,-4.8056,-4.8626,-4.849,-4.8409,-4.8652,-4.9223,-4.9549,-4.9603,-4.9793,-4.9983,-5.001,-5.001,-5.001,-5.001,-5.001,-5.001,-5.001,-5.001,-5.001,-5.001,-5.001,-5.001,-5.001,-5.001,-5.0091,-5.0363,-5.0743,-5.077,-3.7374,-3.7374,-3.7374,-3.7374,-3.7374,-3.7374,-3.7374,-3.7374,-3.7374,-3.7374,-3.7374,-3.7374,-3.7374,-3.7374,-3.7374,-3.7374,-3.7374,-3.7374,-3.7374,-3.7374,-3.7374,-3.7374,-3.7374,-3.7374,-3.7374,-3.7374,-3.7374,-3.7374,-3.733,-3.7025,-3.685,-3.6784,-3.6369,-3.6187,-3.6129,-3.602,-3.6012,-3.5969,-3.5124,-3.4731,-3.484,-3.4731,-3.4687,-3.4666,-3.469,-3.468,-3.4736,-3.4958,-3.5235,-3.5598,-3.5708,-3.6145,-3.6874,-3.7036,-3.7304,-3.7761,-3.808,-3.8449,-3.8868,-3.9981,-4.0975,-4.1619,-4.2858,-4.3769,-4.4176,-4.4036,-4.39,-4.3986,-4.4257,-4.4501,-4.461,-4.4529,-4.4583,-4.4827,-4.4908,-4.518,-4.5668,-4.5777,-4.594,-4.6401,-4.6535,-4.6535,-4.6535,-4.6643,-4.7051,-4.7703,-4.8165,-4.8598,-4.9196,-4.9331,-4.9331,-4.9413,-4.9711,-4.9956,-5.001,-4.9983,-5.001,-5.001,-5.001,-5.001,-5.0037,-5.0091,-5.0227,-5.0254,-5.039,-5.0498,-5.0471,-5.0471,-5.0498,-5.0553,-5.058,-5.0634,-5.1014,-5.1421,-5.1529,-3.7374,-3.7374,-3.7374,-3.7374,-3.7374,-3.7374,-3.7374,-3.7374,-3.7374,-3.7374,-3.7374,-3.7374,-3.7374,-3.7374,-3.7374,-3.7374,-3.7374,-3.7374,-3.7374,-3.7374,-3.7374,-3.7374,-3.7374,-3.7374,-3.7374,-3.7374,-3.7374,-3.7374,-3.7374,-3.7309,-3.7309,-3.7265,-3.685,-3.6631,-3.6588,-3.6195,-3.6034,-3.6012,-3.543,-3.5364,-3.578,-3.5386,-3.5146,-3.5146,-3.5268,-3.5323,-3.5323,-3.6309,-3.6634,-3.6332,-3.6634,-3.6766,-3.6495,-3.6874,-3.7143,-3.7251,-3.8396,-3.9725,-4.1071,-4.1498,-4.1822,-4.2636,-4.2814,-4.3015,-4.3172,-4.3552,-4.4013,-4.4393,-4.4149,-4.4176,-4.4583,-4.4257,-4.4447,-4.5343,-4.5451,-4.575,-4.6263,-4.6401,-4.6453,-4.6508,-4.6509,-4.6535,-4.6643,-4.7051,-4.7784,-4.8653,-4.8897,-4.9196,-4.9711,-4.982,-4.9847,-4.9874,-4.9983,-4.9983,-5.001,-5.001,-5.0037,-5.0037,-5.0037,-5.0118,-5.0254,-5.0553,-5.0797,-5.0878,-5.1204,-5.139,-5.1471,-5.1607,-5.1525,-5.1421,-5.1475,-5.1665,-5.1747,-5.1882,-5.1828,-3.7374,-3.7374,-3.7374,-3.7374,-3.7374,-3.7374,-3.7374,-3.7374,-3.7374,-3.7374,-3.7374,-3.7374,-3.7374,-3.7374,-3.7374,-3.7374,-3.7374,-3.7374,-3.7374,-3.7374,-3.7374,-3.7374,-3.7374,-3.7374,-3.7374,-3.7374,-3.7374,-3.7374,-3.7374,-3.7374,-3.7374,-3.7352,-3.7178,-3.709,-3.709,-3.6894,-3.6675,-3.6391,-3.6195,-3.6063,-3.5947,-3.519,-3.4797,-3.4831,-3.5157,-3.5378,-3.5488,-3.62,-3.6657,-3.6766,-3.6958,-3.7197,-3.7281,-3.7495,-3.7601,-3.7655,-3.8133,-3.8764,-3.9492,-3.9955,-4.0543,-4.1208,-4.2172,-4.2881,-4.3255,-4.3926,-4.4447,-4.461,-4.4474,-4.4447,-4.4664,-4.4773,-4.5071,-4.5505,-4.5587,-4.5831,-4.6453,-4.6157,-4.6075,-4.648,-4.6781,-4.7051,-4.7187,-4.7812,-4.8545,-4.9114,-4.9386,-4.9739,-4.9983,-5.001,-5.001,-5.001,-5.001,-5.001,-5.001,-5.001,-5.0146,-5.0444,-5.0637,-5.0718,-5.1014,-5.1231,-5.1448,-5.1448,-5.1747,-5.1824,-5.1715,-5.1769,-5.1769,-5.1936,-5.2208,-5.2343,-5.2284,-5.2642,-5.2832,-3.7374,-3.7374,-3.7374,-3.7374,-3.7374,-3.7374,-3.7374,-3.7374,-3.7374,-3.7374,-3.7374,-3.7374,-3.7374,-3.7374,-3.7374,-3.7374,-3.7374,-3.7374,-3.7374,-3.7374,-3.7374,-3.7374,-3.7374,-3.7374,-3.7374,-3.7374,-3.7374,-3.7374,-3.7374,-3.7374,-3.7374,-3.7374,-3.7374,-3.7309,-3.7199,-3.7178,-3.6959,-3.6522,-3.6369,-3.6107,-3.5692,-3.4949,-3.4578,-3.4743,-3.5279,-3.5653,-3.5653,-3.6363,-3.6958,-3.7281,-3.7334,-3.7572,-3.7974,-3.7974,-3.7974,-3.7974,-3.7974,-3.8238,-3.8635,-3.9208,-3.9901,-4.0823,-4.2051,-4.2841,-4.3392,-4.4037,-4.4447,-4.4447,-4.461,-4.4691,-4.4746,-4.5098,-4.5397,-4.556,-4.5587,-4.5831,-4.6399,-4.6048,-4.6102,-4.6645,-4.7132,-4.7567,-4.7866,-4.8572,-4.9142,-4.9386,-4.9739,-5.001,-5.001,-5.001,-5.0037,-5.0227,-5.0254,-5.0254,-5.0254,-5.0335,-5.0553,-5.096,-5.1316,-5.1564,-5.1828,-5.1882,-5.2072,-5.2072,-5.2154,-5.2343,-5.2533,-5.2393,-5.223,-5.2398,-5.2642,-5.2913,-5.2968,-5.3347,-5.351,-3.7374,-3.7374,-3.7374,-3.7374,-3.7374,-3.7374,-3.7374,-3.7374,-3.7374,-3.7374,-3.7374,-3.7314,-3.7374,-3.7314,-3.7253,-3.7374,-3.7374,-3.7374,-3.7374,-3.7374,-3.7374,-3.7374,-3.7374,-3.7374,-3.7374,-3.7374,-3.7374,-3.7374,-3.7374,-3.7374,-3.7374,-3.7374,-3.7374,-3.7156,-3.6872,-3.6828,-3.65,-3.6129,-3.5714,-3.5343,-3.5255,-3.4818,-3.4853,-3.5272,-3.5846,-3.62,-3.6363,-3.7334,-3.7921,-3.7921,-3.7921,-3.7974,-3.7974,-3.7974,-3.7974,-3.7974,-3.7974,-3.8635,-3.9853,-4.016,-4.082,-4.232,-4.2623,-4.2912,-4.3062,-4.3643,-4.3986,-4.39,-4.4474,-4.4773,-4.4773,-4.4908,-4.5098,-4.5533,-4.5614,-4.5912,-4.6455,-4.6509,-4.6779,-4.7241,-4.7513,-4.7948,-4.887,-4.9087,-4.9413,-4.9739,-4.9983,-5.001,-5.001,-5.001,-5.0281,-5.0634,-5.0824,-5.0878,-5.0878,-5.0963,-5.1262,-5.1669,-5.1941,-5.2221,-5.2158,-5.2208,-5.2479,-5.275,-5.2995,-5.3239,-5.3429,-5.3456,-5.3347,-5.332,-5.3266,-5.3429,-5.3347,-5.3483,-5.3713,-3.7374,-3.7374,-3.7374,-3.7374,-3.7374,-3.7374,-3.7374,-3.7374,-3.7374,-3.7374,-3.7253,-3.6746,-3.6441,-3.6441,-3.5746,-3.6197,-3.7314,-3.7374,-3.7374,-3.7374,-3.7374,-3.7374,-3.7374,-3.7374,-3.7374,-3.7374,-3.7374,-3.7374,-3.7374,-3.7374,-3.7374,-3.7374,-3.7374,-3.7287,-3.7156,-3.7134,-3.6894,-3.6457,-3.6238,-3.623,-3.6245,-3.6124,-3.6295,-3.6782,-3.647,-3.6254,-3.6254,-3.7388,-3.7974,-3.7974,-3.7974,-3.7974,-3.7974,-3.7974,-3.7974,-3.7974,-3.7974,-3.8238,-3.8844,-3.9364,-4.003,-4.1029,-4.2124,-4.2911,-4.3309,-4.3929,-4.4366,-4.4474,-4.4908,-4.5261,-4.5261,-4.5261,-4.5343,-4.5587,-4.594,-4.6401,-4.6915,-4.7105,-4.7323,-4.7839,-4.8219,-4.8816,-4.9386,-4.9684,-4.9766,-4.9956,-5.001,-5.001,-5.0064,-5.0308,-5.0634,-5.0905,-5.1231,-5.1638,-5.2045,-5.1719,-5.1719,-5.2154,-5.2538,-5.2783,-5.2859,-5.294,-5.3185,-5.3158,-5.351,-5.3565,-5.3565,-5.3565,-5.3592,-5.3592,-5.3592,-5.3592,-5.3592,-5.3773,-5.4107,-3.7374,-3.7374,-3.7374,-3.7374,-3.7374,-3.7374,-3.7193,-3.7011,-3.7253,-3.7071,-3.6441,-3.5992,-3.5746,-3.5376,-3.4694,-3.5067,-3.638,-3.6441,-3.6624,-3.6868,-3.695,-3.6928,-3.6989,-3.7253,-3.7374,-3.7374,-3.7374,-3.7374,-3.7374,-3.7374,-3.7374,-3.7374,-3.7374,-3.7309,-3.7199,-3.7156,-3.6937,-3.6544,-3.6457,-3.6494,-3.6614,-3.6799,-3.7086,-3.7428,-3.7215,-3.709,-3.7067,-3.8017,-3.8503,-3.8503,-3.8503,-3.8503,-3.8503,-3.8503,-3.8503,-3.8503,-3.8527,-3.8664,-3.8907,-3.9438,-4.0167,-4.1072,-4.2138,-4.3118,-4.3797,-4.4549,-4.4939,-4.5098,-4.5505,-4.5912,-4.6102,-4.6157,-4.6157,-4.6211,-4.6537,-4.6998,-4.7541,-4.7649,-4.792,-4.8463,-4.9033,-4.9549,-4.9901,-4.9983,-4.9983,-5.001,-5.001,-5.0037,-5.0308,-5.0607,-5.1095,-5.1421,-5.1855,-5.2343,-5.2723,-5.2642,-5.2506,-5.2859,-5.294,-5.3239,-5.3375,-5.3537,-5.3592,-5.3592,-5.3592,-5.3592,-5.3592,-5.3592,-5.3592,-5.3592,-5.3592,-5.3592,-5.3773,-5.4047,-5.4497,-3.7374,-3.7374,-3.7374,-3.7374,-3.7374,-3.7253,-3.6746,-3.6258,-3.6807,-3.6197,-3.4943,-3.5376,-3.5129,-3.4507,-3.4113,-3.432,-3.4507,-3.4445,-3.4922,-3.5807,-3.5992,-3.5992,-3.6074,-3.7011,-3.7374,-3.7374,-3.7374,-3.7374,-3.7374,-3.7374,-3.7374,-3.7374,-3.7374,-3.7199,-3.6741,-3.6828,-3.6544,-3.626,-3.6253,-3.6166,-3.6114,-3.6818,-3.7221,-3.7313,-3.8189,-3.8695,-3.8727,-3.9205,-3.9465,-3.9489,-3.9513,-3.9585,-3.9465,-3.9465,-3.9537,-3.9465,-3.9537,-3.9922,-4.0528,-4.0641,-4.1317,-4.2474,-4.3178,-4.3723,-4.4611,-4.5321,-4.5723,-4.5885,-4.6265,-4.6727,-4.7188,-4.7269,-4.7269,-4.7404,-4.7351,-4.7622,-4.8083,-4.8219,-4.8435,-4.9005,-4.9603,-4.9956,-5.001,-5.001,-5.001,-5.001,-5.0091,-5.0281,-5.0715,-5.1014,-5.1529,-5.2262,-5.2642,-5.2913,-5.3293,-5.3565,-5.3537,-5.3537,-5.3456,-5.3537,-5.351,-5.3592,-5.3592,-5.3592,-5.3592,-5.3592,-5.3592,-5.3592,-5.3592,-5.3592,-5.3592,-5.3619,-5.3773,-5.4166,-5.506,-3.7374,-3.7374,-3.7374,-3.7374,-3.7314,-3.6685,-3.6135,-3.5869,-3.5561,-3.4943,-3.4383,-3.4007,-3.3631,-3.3253,-3.2683,-3.2746,-3.3253,-3.2765,-3.3253,-3.4757,-3.5561,-3.5869,-3.6053,-3.6928,-3.7374,-3.7374,-3.7374,-3.7374,-3.7374,-3.7374,-3.7374,-3.7374,-3.7374,-3.7309,-3.7156,-3.7156,-3.7068,-3.6981,-3.6937,-3.7176,-3.7592,-3.8159,-3.8686,-3.921,-3.9982,-4.0464,-4.0416,-3.9882,-3.9633,-3.9633,-3.9609,-3.9609,-3.9609,-3.9609,-3.9609,-3.9609,-3.9609,-3.9664,-3.9971,-4.0518,-4.1234,-4.2217,-4.3228,-4.4415,-4.5502,-4.6328,-4.6918,-4.7296,-4.7595,-4.7812,-4.792,-4.7921,-4.7975,-4.7975,-4.7975,-4.8219,-4.8707,-4.9169,-4.9494,-4.9684,-4.9901,-5.001,-5.001,-5.001,-5.0064,-5.0091,-5.0363,-5.0743,-5.096,-5.1638,-5.2154,-5.2669,-5.2995,-5.3293,-5.3483,-5.3592,-5.3592,-5.3592,-5.3592,-5.3592,-5.3592,-5.3592,-5.3592,-5.3592,-5.3592,-5.3592,-5.3592,-5.3592,-5.3592,-5.3619,-5.3646,-5.3679,-5.374,-5.4607,-5.5868,-3.7193,-3.6868,-3.6828,-3.6624,-3.6258,-3.5561,-3.5129,-3.4819,-3.457,-3.4007,-3.3316,-3.3063,-3.2683,-3.2256,-3.1699,-3.1744,-3.2256,-3.168,-3.2065,-3.3379,-3.4757,-3.5314,-3.5561,-3.6807,-3.7374,-3.7374,-3.7374,-3.7374,-3.7374,-3.7374,-3.7374,-3.7374,-3.7374,-3.7374,-3.7374,-3.7374,-3.7374,-3.7374,-3.7352,-3.7555,-3.7976,-3.8574,-3.9108,-3.9521,-4.0339,-4.0826,-4.0779,-4.041,-4.0186,-4.0186,-4.0186,-4.0186,-4.0186,-4.021,-4.0186,-4.0186,-4.021,-4.021,-4.0266,-4.0933,-4.1558,-4.2326,-4.3441,-4.4788,-4.5991,-4.6945,-4.7432,-4.8056,-4.8137,-4.8273,-4.8463,-4.8517,-4.8598,-4.8842,-4.8652,-4.887,-4.9386,-4.9766,-4.9956,-4.9983,-5.001,-5.001,-5.001,-5.0281,-5.0308,-5.0417,-5.0851,-5.1394,-5.1611,-5.2235,-5.2615,-5.2968,-5.3293,-5.3483,-5.3565,-5.3592,-5.3592,-5.3592,-5.3592,-5.3592,-5.3592,-5.3592,-5.3592,-5.3592,-5.3592,-5.3592,-5.3592,-5.3592,-5.3592,-5.3646,-5.387,-5.4342,-5.4841,-5.6257,-5.7512,-3.6746,-3.593,-3.5807,-3.5314,-3.457,-3.4363,-3.3882,-3.3253,-3.3694,-3.3126,-3.1937,-3.2384,-3.2256,-3.157,-3.1442,-3.1506,-3.1442,-3.1442,-3.1442,-3.2128,-3.3505,-3.4694,-3.5253,-3.6685,-3.7374,-3.7374,-3.7374,-3.7374,-3.7374,-3.7374,-3.7374,-3.7374,-3.7374,-3.7374,-3.7374,-3.7374,-3.7374,-3.7374,-3.7374,-3.7435,-3.7495,-3.8058,-3.8335,-3.8455,-3.9638,-4.0281,-4.0316,-4.0765,-4.1076,-4.1148,-4.1052,-4.1028,-4.1124,-4.1172,-4.1076,-4.1124,-4.1196,-4.122,-4.1341,-4.1721,-4.2278,-4.3021,-4.3861,-4.485,-4.6365,-4.7033,-4.7695,-4.8408,-4.8463,-4.8598,-4.9032,-4.9169,-4.9386,-4.9793,-4.944,-4.944,-4.9874,-5.001,-5.001,-5.001,-5.001,-5.0037,-5.0118,-5.0553,-5.0797,-5.1068,-5.1475,-5.2018,-5.2398,-5.2723,-5.3022,-5.3293,-5.351,-5.3565,-5.3592,-5.3592,-5.3592,-5.3592,-5.3619,-5.3619,-5.3619,-5.3619,-5.3592,-5.3592,-5.3782,-5.3727,-5.3782,-5.3917,-5.3999,-5.4134,-5.4603,-5.5199,-5.6209,-5.7416,-5.8754,-3.6135,-3.5828,-3.5129,-3.4632,-3.432,-3.3631,-3.3126,-3.281,-3.2384,-3.2001,-3.1506,-3.1699,-3.1699,-3.1442,-3.1377,-3.1377,-3.1377,-3.1377,-3.1377,-3.168,-3.3442,-3.5253,-3.638,-3.705,-3.7374,-3.7374,-3.7374,-3.7374,-3.7374,-3.7374,-3.7374,-3.7374,-3.7374,-3.7374,-3.7374,-3.7374,-3.7374,-3.7374,-3.7374,-3.7435,-3.7495,-3.8036,-3.8298,-3.8395,-3.9521,-4.0165,-4.0281,-4.0826,-4.1196,-4.1196,-4.1196,-4.1196,-4.122,-4.122,-4.1389,-4.1701,-4.1774,-4.1942,-4.2313,-4.2447,-4.2721,-4.3017,-4.4303,-4.5496,-4.6392,-4.7755,-4.8698,-4.9413,-4.9549,-4.9576,-4.9739,-4.9739,-4.9847,-4.9956,-4.982,-4.9793,-4.9956,-5.001,-5.001,-5.001,-5.001,-5.0227,-5.0553,-5.0851,-5.115,-5.1557,-5.2072,-5.2533,-5.2832,-5.3103,-5.3375,-5.3429,-5.3592,-5.3592,-5.3592,-5.3592,-5.3592,-5.3592,-5.3619,-5.3646,-5.3673,-5.3673,-5.3646,-5.3592,-5.4162,-5.4297,-5.446,-5.465,-5.4704,-5.4677,-5.5292,-5.5887,-5.6953,-5.808,-5.9478,-3.5438,-3.4632,-3.4007,-3.3505,-3.3126,-3.2492,-3.2256,-3.2192,-3.1699,-3.1377,-3.1377,-3.1377,-3.1377,-3.1377,-3.1377,-3.1377,-3.1377,-3.1377,-3.1377,-3.1744,-3.3442,-3.5438,-3.695,-3.7374,-3.7374,-3.7374,-3.7374,-3.7374,-3.7374,-3.7374,-3.7374,-3.7374,-3.7374,-3.7374,-3.7374,-3.7374,-3.7374,-3.7435,-3.7616,-3.7796,-3.7796,-3.8395,-3.8716,-3.8871,-3.9697,-4.0281,-4.0653,-4.1,-4.1196,-4.1196,-4.1196,-4.1293,-4.1509,-4.1533,-4.1749,-4.2313,-4.2362,-4.2447,-4.2771,-4.2988,-4.3312,-4.3839,-4.4978,-4.6101,-4.7198,-4.8395,-4.9177,-4.9845,-5.001,-5.001,-5.001,-5.001,-5.001,-5.001,-5.001,-5.001,-5.001,-5.001,-5.001,-5.0064,-5.0227,-5.0471,-5.0905,-5.1312,-5.1774,-5.2208,-5.2723,-5.2968,-5.3158,-5.3429,-5.3592,-5.3592,-5.3592,-5.3592,-5.3592,-5.3592,-5.3673,-5.3673,-5.3999,-5.3972,-5.4053,-5.4053,-5.4134,-5.427,-5.465,-5.4921,-5.5057,-5.5166,-5.5138,-5.5282,-5.5921,-5.6987,-5.8207,-5.9303,-6.0583,-3.457,-3.2873,-3.281,-3.2256,-3.157,-3.1442,-3.1506,-3.1442,-3.1442,-3.1377,-3.1377,-3.1377,-3.1377,-3.1377,-3.1377,-3.1377,-3.1377,-3.1377,-3.168,-3.232,-3.3694,-3.55,-3.7193,-3.7374,-3.7374,-3.7374,-3.7374,-3.7374,-3.7374,-3.7374,-3.7374,-3.7374,-3.7374,-3.7374,-3.7374,-3.7374,-3.7435,-3.7616,-3.7998,-3.8276,-3.8455,-3.8894,-3.9131,-3.9308,-3.9814,-4.0537,-4.0942,-4.1196,-4.1196,-4.1196,-4.122,-4.1509,-4.1976,-4.199,-4.2386,-4.2771,-4.2891,-4.288,-4.3,-4.3433,-4.4026,-4.4858,-4.559,-4.6645,-4.8041,-4.8793,-4.9247,-4.9926,-5.001,-5.001,-5.001,-5.001,-5.001,-5.0037,-5.0037,-5.0118,-5.0118,-5.0118,-5.0091,-5.0146,-5.0634,-5.0932,-5.1339,-5.1936,-5.2723,-5.275,-5.3185,-5.3293,-5.3375,-5.351,-5.3592,-5.3592,-5.3592,-5.3592,-5.3592,-5.3592,-5.3727,-5.3836,-5.4406,-5.4623,-5.4813,-5.4867,-5.4948,-5.5111,-5.5274,-5.541,-5.5545,-5.5573,-5.5717,-5.6382,-5.7301,-5.8649,-6.0059,-6.0999,-6.2159,-3.3316,-3.281,-3.2065,-3.1635,-3.1442,-3.1377,-3.1377,-3.1377,-3.1377,-3.1377,-3.1377,-3.1377,-3.1377,-3.1377,-3.1377,-3.1377,-3.1377,-3.1506,-3.2128,-3.3819,-3.407,-3.5561,-3.6989,-3.7314,-3.7374,-3.7374,-3.7374,-3.7374,-3.7374,-3.7374,-3.7374,-3.7374,-3.7374,-3.7374,-3.7374,-3.7435,-3.7676,-3.8036,-3.8298,-3.8656,-3.9049,-3.9308,-3.9426,-3.9485,-3.9931,-4.0537,-4.1057,-4.1196,-4.1196,-4.1268,-4.1557,-4.188,-4.199,-4.2303,-4.2735,-4.3205,-4.3373,-4.3566,-4.3914,-4.4218,-4.4585,-4.5689,-4.6484,-4.7357,-4.8469,-4.9301,-4.9727,-5.001,-5.001,-5.001,-5.001,-5.001,-5.0064,-5.0173,-5.0471,-5.0715,-5.0715,-5.0688,-5.0688,-5.0824,-5.1258,-5.1801,-5.2208,-5.2398,-5.294,-5.3293,-5.3456,-5.3565,-5.3592,-5.3592,-5.3592,-5.3592,-5.3592,-5.3646,-5.3863,-5.3972,-5.427,-5.4433,-5.4921,-5.5383,-5.5573,-5.56,-5.5654,-5.5708,-5.5817,-5.6016,-5.6404,-5.6732,-5.6995,-5.7827,-5.8699,-6.0014,-6.1322,-6.2435,-6.3273,-3.281,-3.2147,-3.1838,-3.1561,-3.1396,-3.1377,-3.1377,-3.1377,-3.1377,-3.1377,-3.1377,-3.1377,-3.1377,-3.1377,-3.1377,-3.1377,-3.1377,-3.1442,-3.2192,-3.3379,-3.3757,-3.4819,-3.6319,-3.6746,-3.6868,-3.7253,-3.7374,-3.7374,-3.7374,-3.7374,-3.7374,-3.7374,-3.7374,-3.7374,-3.7495,-3.7676,-3.7976,-3.8395,-3.893,-3.9403,-3.9697,-4.0071,-4.0188,-4.0188,-4.0537,-4.0884,-4.1172,-4.1196,-4.1196,-4.1317,-4.1677,-4.1966,-4.199,-4.2313,-4.2735,-4.3421,-4.3989,-4.4439,-4.489,-4.5489,-4.6105,-4.6942,-4.7593,-4.8294,-4.8988,-4.9783,-4.9953,-5.001,-5.001,-5.001,-5.0037,-5.0335,-5.039,-5.0553,-5.096,-5.1312,-5.1339,-5.1312,-5.1339,-5.1448,-5.1882,-5.2262,-5.2615,-5.2886,-5.313,-5.3483,-5.351,-5.3592,-5.3592,-5.3592,-5.3592,-5.3592,-5.3592,-5.3727,-5.4053,-5.4433,-5.4948,-5.5247,-5.5654,-5.6115,-5.6441,-5.6387,-5.6305,-5.6359,-5.6414,-5.7185,-5.7539,-5.7897,-5.8459,-5.9475,-6.0485,-6.1497,-6.2436,-6.3361,-6.3958,-3.2523,-3.1414,-3.1836,-3.1763,-3.1414,-3.1377,-3.1377,-3.1377,-3.1377,-3.1377,-3.1377,-3.1377,-3.1377,-3.1377,-3.1377,-3.1377,-3.1377,-3.1442,-3.2065,-3.2936,-3.3379,-3.4445,-3.5746,-3.6319,-3.6746,-3.7374,-3.7374,-3.7374,-3.7374,-3.7374,-3.7374,-3.7374,-3.7374,-3.7495,-3.7676,-3.7976,-3.8455,-3.8812,-3.9579,-4.0165,-4.0363,-4.0826,-4.1,-4.1057,-4.1057,-4.1115,-4.1172,-4.1196,-4.1196,-4.122,-4.1663,-4.1856,-4.1928,-4.2169,-4.2399,-4.3361,-4.3999,-4.441,-4.491,-4.5914,-4.6941,-4.8163,-4.85,-4.8988,-4.97,-4.9953,-5.001,-5.0064,-5.0118,-5.0281,-5.0308,-5.0743,-5.1014,-5.115,-5.1584,-5.1851,-5.1932,-5.2018,-5.2126,-5.2045,-5.2452,-5.2886,-5.3049,-5.3239,-5.3456,-5.3592,-5.3592,-5.3592,-5.3592,-5.3619,-5.3619,-5.3754,-5.3809,-5.4189,-5.4569,-5.5057,-5.5545,-5.5817,-5.6251,-5.6604,-5.7011,-5.6902,-5.6766,-5.6929,-5.7231,-5.7806,-5.8348,-5.8592,-5.9403,-6.087,-6.1821,-6.2494,-6.3304,-6.4158,-6.4579,-3.1893,-3.1414,-3.1836,-3.1763,-3.1414,-3.1377,-3.1377,-3.1377,-3.1377,-3.1377,-3.1377,-3.1377,-3.1377,-3.1377,-3.1377,-3.1377,-3.1377,-3.1442,-3.1873,-3.281,-3.3505,-3.4694,-3.5561,-3.6441,-3.705,-3.7314,-3.7374,-3.7374,-3.7374,-3.7374,-3.7374,-3.7374,-3.7374,-3.7555,-3.7916,-3.8298,-3.8871,-3.9462,-4.0048,-4.0479,-4.0884,-4.1081,-4.1196,-4.1196,-4.1196,-4.1196,-4.1196,-4.1196,-4.1196,-4.1196,-4.1268,-4.1341,-4.1581,-4.2158,-4.2663,-4.2999,-4.3311,-4.3755,-4.4238,-4.4973,-4.5843,-4.6765,-4.8032,-4.9045,-4.97,-5.0064,-5.0146,-5.0281,-5.058,-5.0932,-5.1475,-5.1584,-5.1638,-5.1801,-5.2154,-5.2561,-5.2642,-5.2832,-5.294,-5.2696,-5.3076,-5.3375,-5.3402,-5.3429,-5.351,-5.3592,-5.3592,-5.3592,-5.3592,-5.3619,-5.3646,-5.3836,-5.4053,-5.4596,-5.5166,-5.5708,-5.6197,-5.6305,-5.6604,-5.6848,-5.7119,-5.7146,-5.7174,-5.7174,-5.7431,-5.7889,-5.8368,-5.9121,-6.0537,-6.2086,-6.2756,-6.3304,-6.3958,-6.4579,-6.4666,-3.1946,-3.1451,-3.2038,-3.1946,-3.1433,-3.1377,-3.1377,-3.1377,-3.1377,-3.1377,-3.1377,-3.1377,-3.1377,-3.1377,-3.1377,-3.1377,-3.1396,-3.1442,-3.168,-3.232,-3.3189,-3.4195,-3.5294,-3.6218,-3.6868,-3.7253,-3.7374,-3.7374,-3.7374,-3.7374,-3.7374,-3.7374,-3.7374,-3.7555,-3.7976,-3.8537,-3.9049,-3.9837,-4.0363,-4.0826,-4.1196,-4.1196,-4.1196,-4.1196,-4.1196,-4.1196,-4.1196,-4.1196,-4.1196,-4.1244,-4.1437,-4.1557,-4.1822,-4.223,-4.2819,-4.2903,-4.3235,-4.4013,-4.4967,-4.6256,-4.738,-4.8241,-4.8996,-4.9472,-4.9921,-5.0281,-5.058,-5.0932,-5.1095,-5.1502,-5.1715,-5.2099,-5.2262,-5.2371,-5.2805,-5.3076,-5.3212,-5.3456,-5.3347,-5.3158,-5.3347,-5.351,-5.3537,-5.3565,-5.3592,-5.3592,-5.3592,-5.3619,-5.3646,-5.37,-5.3782,-5.4351,-5.4704,-5.5274,-5.579,-5.6224,-5.6604,-5.6739,-5.6848,-5.7092,-5.7174,-5.7174,-5.7174,-5.7174,-5.756,-5.8043,-5.9279,-6.0355,-6.1851,-6.3102,-6.3732,-6.4214,-6.4579,-6.4888,-6.4888,-3.2166,-3.1561,-3.2294,-3.2166,-3.1561,-3.1414,-3.1377,-3.1377,-3.1377,-3.1451,-3.1506,-3.1524,-3.1579,-3.1616,-3.1653,-3.1653,-3.1616,-3.1653,-3.1866,-3.2448,-3.3283,-3.4116,-3.5041,-3.5977,-3.7071,-3.7772,-3.7614,-3.7461,-3.7374,-3.7374,-3.7374,-3.7374,-3.7374,-3.7495,-3.7796,-3.8716,-3.919,-3.9837,-4.0537,-4.1196,-4.1196,-4.1196,-4.1196,-4.1196,-4.1196,-4.122,-4.1389,-4.1413,-4.1509,-4.1677,-4.1918,-4.2193,-4.2206,-4.2602,-4.2867,-4.3035,-4.3733,-4.5087,-4.6137,-4.7658,-4.8241,-4.8869,-4.9783,-5.0116,-5.0363,-5.0797,-5.1312,-5.1855,-5.2018,-5.2126,-5.2311,-5.2642,-5.2859,-5.2968,-5.3266,-5.3592,-5.3537,-5.3565,-5.3565,-5.351,-5.3592,-5.3592,-5.3592,-5.3592,-5.3592,-5.3592,-5.3592,-5.3863,-5.389,-5.3944,-5.4189,-5.4948,-5.5518,-5.6034,-5.6441,-5.6712,-5.6929,-5.6984,-5.7038,-5.7146,-5.7174,-5.7174,-5.7238,-5.7303,-5.7852,-5.8522,-5.999,-6.1289,-6.2261,-6.3304,-6.4356,-6.4888,-6.4888,-6.4888,-6.4888,-3.2331,-3.1964,-3.2404,-3.2349,-3.1909,-3.1579,-3.1396,-3.1414,-3.1451,-3.1598,-3.1928,-3.1946,-3.2111,-3.2294,-3.2368,-3.2404,-3.2404,-3.253,-3.287,-3.3554,-3.4679,-3.573,-3.6854,-3.8035,-3.8027,-3.827,-3.8051,-3.7789,-3.7483,-3.7374,-3.7374,-3.7374,-3.7435,-3.7637,-3.8096,-3.8894,-3.9544,-4.0106,-4.0826,-4.1196,-4.1196,-4.122,-4.1244,-4.1244,-4.1317,-4.1485,-4.188,-4.1952,-4.2038,-4.2506,-4.2591,-4.2723,-4.2747,-4.2771,-4.3024,-4.3445,-4.3885,-4.4319,-4.5246,-4.6869,-4.8136,-4.8832,-4.9771,-5.0547,-5.1041,-5.1394,-5.1964,-5.2533,-5.2615,-5.2778,-5.3076,-5.3375,-5.3483,-5.3456,-5.3483,-5.3592,-5.3592,-5.3592,-5.3592,-5.3592,-5.3592,-5.3592,-5.3592,-5.3592,-5.3592,-5.3592,-5.3673,-5.3944,-5.4243,-5.4379,-5.4677,-5.5464,-5.6007,-5.6522,-5.6739,-5.7038,-5.7119,-5.7174,-5.7174,-5.7174,-5.7174,-5.7238,-5.7367,-5.7532,-5.8143,-5.9217,-6.075,-6.188,-6.2582,-6.3475,-6.461,-6.4888,-6.4888,-6.4888,-6.4888,-3.2368,-3.2056,-3.268,-3.2716,-3.2331,-3.2129,-3.2074,-3.2056,-3.2074,-3.2166,-3.2313,-3.2331,-3.2441,-3.2625,-3.2606,-3.2588,-3.2721,-3.3159,-3.3719,-3.451,-3.5751,-3.6827,-3.7318,-3.7991,-3.8423,-3.8379,-3.7986,-3.7593,-3.7396,-3.7374,-3.7374,-3.7435,-3.7435,-3.7676,-3.8335,-3.899,-3.9579,-4.0165,-4.0826,-4.1196,-4.1244,-4.1461,-4.1629,-4.1629,-4.1952,-4.2217,-4.2386,-4.2482,-4.2554,-4.2867,-4.2976,-4.3192,-4.3289,-4.3457,-4.3794,-4.3975,-4.5024,-4.566,-4.6138,-4.7295,-4.8061,-4.8964,-5.0327,-5.1471,-5.1882,-5.2154,-5.2588,-5.3158,-5.3212,-5.3347,-5.351,-5.3592,-5.3592,-5.3592,-5.3592,-5.3592,-5.3592,-5.3592,-5.3592,-5.3592,-5.3619,-5.3646,-5.3673,-5.37,-5.3727,-5.3754,-5.3944,-5.427,-5.4731,-5.5193,-5.5545,-5.6034,-5.6495,-5.6902,-5.7011,-5.7146,-5.7146,-5.7174,-5.7174,-5.7174,-5.7174,-5.7238,-5.7532,-5.8016,-5.8683,-5.9929,-6.1526,-6.232,-6.2929,-6.3845,-6.4888,-6.4888,-6.4888,-6.4888,-6.4888,-3.2423,-3.2221,-3.2918,-3.3046,-3.2735,-3.2643,-3.2588,-3.2588,-3.257,-3.2643,-3.2771,-3.2845,-3.2918,-3.29,-3.2955,-3.3127,-3.339,-3.3889,-3.4422,-3.533,-3.6294,-3.7138,-3.7677,-3.8098,-3.8488,-3.827,-3.7942,-3.768,-3.7653,-3.7643,-3.7676,-3.7616,-3.7736,-3.8036,-3.8574,-3.9249,-3.9942,-4.0797,-4.1431,-4.1677,-4.1725,-4.2049,-4.2134,-4.2338,-4.2578,-4.2867,-4.2928,-4.2952,-4.2952,-4.3289,-4.3529,-4.3721,-4.3794,-4.401,-4.4323,-4.4553,-4.5415,-4.6462,-4.7297,-4.8368,-4.9046,-5.0055,-5.1105,-5.2262,-5.2778,-5.294,-5.3049,-5.351,-5.3537,-5.3537,-5.3592,-5.3592,-5.3592,-5.3592,-5.3592,-5.3592,-5.3592,-5.3592,-5.3592,-5.3592,-5.3646,-5.3782,-5.3809,-5.3863,-5.389,-5.3917,-5.4189,-5.4596,-5.5193,-5.5871,-5.6224,-5.6577,-5.6766,-5.7065,-5.7119,-5.7174,-5.7174,-5.7174,-5.7174,-5.7238,-5.7303,-5.7725,-5.8206,-5.8746,-5.9403,-6.0779,-6.2378,-6.2784,-6.3273,-6.4214,-6.4888,-6.4888,-6.4888,-6.4888,-6.4888,-3.2588,-3.2588,-3.3046,-3.323,-3.3156,-3.2753,-3.2625,-3.2698,-3.2661,-3.2863,-3.3211,-3.3505,-3.3615,-3.367,-3.3665,-3.4078,-3.5005,-3.419,-3.4997,-3.6147,-3.7052,-3.746,-3.7994,-3.8592,-3.9012,-3.8641,-3.816,-3.7986,-3.8148,-3.8331,-3.8252,-3.8238,-3.8455,-3.8761,-3.9364,-4.0117,-4.0846,-4.1601,-4.223,-4.2447,-4.2554,-4.2699,-4.2747,-4.2771,-4.2843,-4.2952,-4.3409,-4.3457,-4.3625,-4.401,-4.4106,-4.4189,-4.4237,-4.4333,-4.4659,-4.5334,-4.5702,-4.6936,-4.8493,-4.9447,-5.0539,-5.1465,-5.2139,-5.2739,-5.3293,-5.3483,-5.3592,-5.3592,-5.3592,-5.3592,-5.3592,-5.3592,-5.3592,-5.3592,-5.3592,-5.3592,-5.3592,-5.3592,-5.3592,-5.3592,-5.3754,-5.3999,-5.4297,-5.4406,-5.4433,-5.446,-5.4786,-5.5193,-5.5898,-5.6522,-5.6794,-5.7038,-5.7065,-5.7174,-5.7174,-5.7174,-5.7174,-5.7174,-5.7174,-5.7303,-5.7431,-5.7952,-5.827,-5.9806,-6.0658,-6.191,-6.2929,-6.3361,-6.3902,-6.4524,-6.4888,-6.4888,-6.4888,-6.4888,-6.4888,-3.2606,-3.2661,-3.3303,-3.3578,-3.3578,-3.3413,-3.334,-3.334,-3.334,-3.3413,-3.3578,-3.3743,-3.3817,-3.3817,-3.3817,-3.4024,-3.449,-3.4815,-3.553,-3.643,-3.7172,-3.7817,-3.8402,-3.846,-3.8532,-3.8401,-3.8182,-3.8402,-3.8725,-3.9075,-3.9863,-4.0037,-3.9748,-4.008,-4.0688,-4.1354,-4.1959,-4.234,-4.2723,-4.2819,-4.2891,-4.3096,-4.3216,-4.3216,-4.3649,-4.3794,-4.3949,-4.4034,-4.4117,-4.4213,-4.4285,-4.4477,-4.4693,-4.4741,-4.5344,-4.6308,-4.6641,-4.8046,-4.9615,-5.0333,-5.083,-5.2406,-5.2648,-5.2715,-5.3504,-5.3592,-5.3592,-5.3592,-5.3592,-5.3592,-5.3592,-5.3592,-5.3592,-5.3592,-5.3619,-5.3646,-5.3727,-5.3782,-5.3972,-5.4134,-5.427,-5.446,-5.4758,-5.5057,-5.5057,-5.5084,-5.5437,-5.5844,-5.6495,-5.6929,-5.7092,-5.7174,-5.7174,-5.7174,-5.7174,-5.7174,-5.7174,-5.7174,-5.7174,-5.7367,-5.756,-5.7431,-5.8016,-5.9867,-6.1615,-6.2582,-6.3304,-6.3902,-6.4412,-6.4777,-6.4888,-6.4888,-6.4888,-6.4888,-6.4888,-3.2606,-3.2698,-3.3486,-3.3817,-3.3817,-3.3817,-3.3817,-3.3817,-3.3798,-3.3817,-3.3817,-3.3817,-3.3817,-3.3817,-3.3817,-3.4075,-3.4365,-3.4595,-3.5384,-3.6124,-3.6889,-3.7549,-3.7972,-3.8301,-3.8423,-3.8182,-3.8601,-3.8975,-3.9366,-4.0089,-4.0923,-4.1411,-4.1476,-4.168,-4.1958,-4.2688,-4.2976,-4.3,-4.3168,-4.3216,-4.3337,-4.3577,-4.377,-4.3794,-4.4021,-4.4165,-4.4213,-4.4213,-4.4237,-4.4333,-4.4477,-4.4717,-4.4981,-4.5459,-4.6192,-4.7203,-4.8144,-4.9267,-5.0643,-5.1514,-5.1707,-5.3072,-5.3032,-5.3113,-5.341,-5.3592,-5.3592,-5.3592,-5.3592,-5.3592,-5.3592,-5.3592,-5.3592,-5.3619,-5.3944,-5.4026,-5.4134,-5.4243,-5.4487,-5.4731,-5.484,-5.5003,-5.5491,-5.5817,-5.5817,-5.5871,-5.6142,-5.6441,-5.6766,-5.7092,-5.7119,-5.7174,-5.7174,-5.7174,-5.7174,-5.7174,-5.7174,-5.7174,-5.7238,-5.7496,-5.7624,-5.7661,-5.8431,-6.0416,-6.1969,-6.2987,-6.3732,-6.4412,-6.4635,-6.4888,-6.4888,-6.4888,-6.4888,-6.4888,-6.4888,-3.2606,-3.2698,-3.3468,-3.3817,-3.3817,-3.3817,-3.3817,-3.3817,-3.3817,-3.3817,-3.3817,-3.3817,-3.3817,-3.3817,-3.3817,-3.4107,-3.4458,-3.4028,-3.4442,-3.5824,-3.6241,-3.6303,-3.7108,-3.7881,-3.8485,-3.8499,-3.9113,-3.9752,-4.0124,-4.1192,-4.2075,-4.2617,-4.2899,-4.2999,-4.282,-4.3265,-4.3481,-4.3577,-4.3949,-4.4045,-4.4069,-4.4117,-4.4117,-4.4165,-4.4213,-4.4285,-4.4285,-4.4429,-4.4453,-4.4477,-4.4861,-4.5125,-4.5381,-4.5742,-4.6704,-4.8217,-4.8355,-4.9647,-5.175,-5.2842,-5.3356,-5.3504,-5.3288,-5.347,-5.3531,-5.3592,-5.3592,-5.3592,-5.3592,-5.3592,-5.3592,-5.3646,-5.37,-5.3863,-5.4189,-5.4487,-5.4623,-5.4704,-5.4948,-5.5274,-5.5437,-5.5627,-5.6197,-5.6604,-5.6577,-5.6685,-5.6902,-5.7092,-5.7174,-5.7174,-5.7174,-5.7174,-5.7174,-5.7174,-5.7174,-5.7174,-5.7174,-5.7174,-5.756,-5.8043,-5.8683,-5.9217,-6.0144,-6.1408,-6.232,-6.3418,-6.4158,-6.4888,-6.4888,-6.4888,-6.4888,-6.4888,-6.4888,-6.4888,-6.4888,-3.2606,-3.268,-3.3468,-3.3817,-3.3817,-3.3817,-3.3817,-3.3817,-3.3817,-3.3817,-3.3817,-3.3817,-3.3817,-3.3817,-3.3762,-3.3927,-3.396,-3.4594,-3.4996,-3.54,-3.5945,-3.6834,-3.7522,-3.8149,-3.8737,-3.937,-4.0101,-4.0995,-4.1739,-4.2442,-4.3118,-4.3664,-4.3802,-4.3925,-4.3829,-4.401,-4.4058,-4.4021,-4.4189,-4.4285,-4.4285,-4.4285,-4.4285,-4.4285,-4.4309,-4.4333,-4.4381,-4.4597,-4.4789,-4.4861,-4.5317,-4.5766,-4.6006,-4.6391,-4.7498,-4.9138,-4.9838,-5.0798,-5.25,-5.3443,-5.3531,-5.3592,-5.3592,-5.3592,-5.3592,-5.3592,-5.3592,-5.3619,-5.3673,-5.3673,-5.3592,-5.4026,-5.4216,-5.4351,-5.465,-5.5003,-5.5166,-5.5247,-5.541,-5.579,-5.6034,-5.6278,-5.6739,-5.6875,-5.6902,-5.6929,-5.7065,-5.7119,-5.7174,-5.7174,-5.7174,-5.7174,-5.7174,-5.7174,-5.7174,-5.7174,-5.7174,-5.7201,-5.8079,-5.9121,-5.9806,-6.0327,-6.1585,-6.2698,-6.3246,-6.3789,-6.4412,-6.4888,-6.4888,-6.4888,-6.4888,-6.4888,-6.4888,-6.4888,-6.4888,-3.2606,-3.268,-3.3468,-3.3817,-3.3817,-3.3817,-3.3817,-3.3817,-3.3817,-3.3817,-3.3817,-3.3817,-3.3817,-3.378,-3.3633,-3.3848,-3.3718,-3.3984,-3.5093,-3.5405,-3.6143,-3.7041,-3.7851,-3.8693,-3.9508,-4.0298,-4.1137,-4.2061,-4.2685,-4.3349,-4.3841,-4.4089,-4.4285,-4.4213,-4.4213,-4.4237,-4.4237,-4.4237,-4.4285,-4.4285,-4.4285,-4.4285,-4.4285,-4.4357,-4.4453,-4.4573,-4.4717,-4.4981,-4.5342,-4.5486,-4.591,-4.6343,-4.6655,-4.7182,-4.8222,-4.9849,-5.1471,-5.2218,-5.3227,-5.3531,-5.3592,-5.3592,-5.3592,-5.3592,-5.3592,-5.3592,-5.3782,-5.3863,-5.389,-5.4053,-5.4243,-5.4677,-5.4813,-5.4948,-5.5274,-5.56,-5.5762,-5.5844,-5.6088,-5.6468,-5.6577,-5.6875,-5.7065,-5.7092,-5.7119,-5.7146,-5.7174,-5.7174,-5.7174,-5.7174,-5.7174,-5.7174,-5.7174,-5.7174,-5.7174,-5.7174,-5.7201,-5.7201,-5.836,-5.974,-6.0234,-6.069,-6.232,-6.3789,-6.4015,-6.427,-6.4635,-6.4888,-6.4888,-6.4888,-6.4888,-6.4888,-6.4888,-6.4888,-6.4888,-3.2606,-3.2716,-3.3468,-3.3817,-3.3817,-3.3817,-3.3817,-3.3817,-3.3817,-3.3817,-3.3817,-3.3817,-3.3762,-3.3688,-3.3395,-3.3632,-3.4299,-3.3931,-3.4992,-3.6058,-3.6708,-3.752,-3.8572,-3.9704,-4.0392,-4.1234,-4.2074,-4.2825,-4.3404,-4.3802,-4.4161,-4.4285,-4.4285,-4.4357,-4.4381,-4.4453,-4.4405,-4.4333,-4.4285,-4.4285,-4.4285,-4.4381,-4.4429,-4.4573,-4.4813,-4.5029,-4.5309,-4.5645,-4.5886,-4.6126,-4.6439,-4.6655,-4.692,-4.7299,-4.8754,-5.0499,-5.2465,-5.3227,-5.3531,-5.3592,-5.3727,-5.3754,-5.3727,-5.3673,-5.37,-5.3809,-5.4053,-5.4351,-5.4541,-5.4894,-5.5193,-5.5301,-5.5437,-5.5681,-5.6007,-5.6224,-5.6387,-5.6577,-5.6875,-5.7065,-5.7038,-5.7146,-5.7146,-5.7174,-5.7174,-5.7174,-5.7174,-5.7174,-5.7174,-5.7174,-5.7174,-5.7174,-5.7174,-5.7174,-5.7174,-5.7174,-5.7597,-5.7725,-5.8955,-6.0194,-6.0534,-6.1318,-6.2929,-6.4158,-6.4468,-6.4721,-6.4832,-6.4888,-6.4888,-6.4888,-6.4888,-6.4888,-6.4888,-6.4888,-6.4888,-3.2606,-3.268,-3.3468,-3.3817,-3.3817,-3.3817,-3.3817,-3.3817,-3.3817,-3.3817,-3.3817,-3.3817,-3.367,-3.3395,-3.3266,-3.3535,-3.3962,-3.4457,-3.5445,-3.6352,-3.7397,-3.8575,-3.9578,-4.0464,-4.1347,-4.2292,-4.3091,-4.3695,-4.3998,-4.4333,-4.4357,-4.4285,-4.4429,-4.4573,-4.4765,-4.4861,-4.4645,-4.4477,-4.4453,-4.4453,-4.4525,-4.4693,-4.4765,-4.4981,-4.5429,-4.5645,-4.5814,-4.6223,-4.6439,-4.6583,-4.6992,-4.7233,-4.7305,-4.8126,-4.9475,-5.1445,-5.2773,-5.3592,-5.3592,-5.3619,-5.3782,-5.4134,-5.4216,-5.4216,-5.4243,-5.4324,-5.4541,-5.4894,-5.5138,-5.541,-5.5708,-5.5871,-5.598,-5.6224,-5.6495,-5.6712,-5.6821,-5.6902,-5.7174,-5.7174,-5.7174,-5.7174,-5.7174,-5.7174,-5.7174,-5.7174,-5.7174,-5.7174,-5.7174,-5.7174,-5.7174,-5.7174,-5.7174,-5.7174,-5.7174,-5.7174,-5.7852,-5.8459,-5.9426,-6.0531,-6.1614,-6.2494,-6.3789,-6.4437,-6.4691,-6.4832,-6.4888,-6.4888,-6.4888,-6.4888,-6.4888,-6.4888,-6.4888,-6.4888,-6.4888,-3.2606,-3.2716,-3.3468,-3.3817,-3.3817,-3.3817,-3.3817,-3.3817,-3.3817,-3.3817,-3.3817,-3.3817,-3.3596,-3.3316,-3.3483,-3.3804,-3.425,-3.5298,-3.6269,-3.7292,-3.8239,-3.9283,-4.0275,-4.1339,-4.2402,-4.3332,-4.4136,-4.4714,-4.4798,-4.4885,-4.4933,-4.5044,-4.4909,-4.5077,-4.5293,-4.5429,-4.5309,-4.514,-4.502,-4.4909,-4.5029,-4.5261,-4.5381,-4.5549,-4.5958,-4.6175,-4.6295,-4.6752,-4.6968,-4.7147,-4.7599,-4.8043,-4.8436,-4.9411,-5.0436,-5.213,-5.2956,-5.366,-5.3944,-5.3972,-5.4324,-5.4677,-5.4867,-5.5003,-5.503,-5.5084,-5.5328,-5.56,-5.5708,-5.5871,-5.6142,-5.6387,-5.6522,-5.6658,-5.6902,-5.7146,-5.7174,-5.7174,-5.7174,-5.7174,-5.7174,-5.7174,-5.7174,-5.7174,-5.7174,-5.7174,-5.7174,-5.7174,-5.7174,-5.7174,-5.7174,-5.7174,-5.7174,-5.7174,-5.7174,-5.7238,-5.7661,-5.827,-5.8996,-6.0262,-6.1969,-6.3102,-6.3759,-6.4326,-6.4832,-6.4888,-6.4888,-6.4888,-6.4888,-6.4888,-6.4888,-6.4888,-6.4888,-6.4888,-6.4888,-3.2588,-3.2661,-3.3468,-3.3817,-3.3817,-3.3817,-3.3817,-3.3817,-3.3817,-3.3817,-3.3817,-3.3817,-3.356,-3.3237,-3.3661,-3.4335,-3.4912,-3.5891,-3.717,-3.8313,-3.9311,-4.0329,-4.1437,-4.2422,-4.3537,-4.4418,-4.5055,-4.5406,-4.5726,-4.5742,-4.5645,-4.591,-4.5814,-4.5838,-4.5958,-4.5982,-4.5982,-4.6102,-4.6006,-4.5894,-4.5838,-4.591,-4.5982,-4.6078,-4.6439,-4.6776,-4.6896,-4.7226,-4.763,-4.7936,-4.8461,-4.9087,-4.9964,-5.0727,-5.1757,-5.2545,-5.3335,-5.385,-5.4297,-5.446,-5.4894,-5.5247,-5.5491,-5.5762,-5.5871,-5.5681,-5.5844,-5.6197,-5.6359,-5.6468,-5.6712,-5.6794,-5.6902,-5.6956,-5.7065,-5.7174,-5.7174,-5.7174,-5.7174,-5.7174,-5.7174,-5.7174,-5.7174,-5.7174,-5.7174,-5.7174,-5.7174,-5.7174,-5.7174,-5.7174,-5.7174,-5.7174,-5.7174,-5.7174,-5.7174,-5.7238,-5.7367,-5.798,-5.8683,-6.0112,-6.1969,-6.2872,-6.3588,-6.427,-6.4888,-6.4888,-6.4888,-6.4888,-6.4888,-6.4888,-6.4888,-6.4888,-6.4888,-6.4888,-6.4888,-3.2418,-3.268,-3.3468,-3.3817,-3.3817,-3.3817,-3.3817,-3.3817,-3.3817,-3.3817,-3.3817,-3.3762,-3.3482,-3.3077,-3.3842,-3.4583,-3.5379,-3.6624,-3.7932,-3.932,-4.0578,-4.1517,-4.2814,-4.3785,-4.473,-4.5293,-4.5822,-4.6054,-4.6102,-4.6054,-4.5958,-4.5958,-4.603,-4.6223,-4.6511,-4.6511,-4.6655,-4.6896,-4.6896,-4.6583,-4.6175,-4.6367,-4.6535,-4.668,-4.6968,-4.7275,-4.7569,-4.8142,-4.8461,-4.8828,-4.9694,-5.0499,-5.1356,-5.1882,-5.2527,-5.3159,-5.3842,-5.4317,-5.4677,-5.503,-5.5491,-5.5871,-5.617,-5.6495,-5.6549,-5.6278,-5.6305,-5.6712,-5.6984,-5.7065,-5.7119,-5.7146,-5.7174,-5.7174,-5.7174,-5.7174,-5.7174,-5.7174,-5.7174,-5.7174,-5.7174,-5.7174,-5.7174,-5.7174,-5.7174,-5.7174,-5.7174,-5.7174,-5.7174,-5.7174,-5.7174,-5.7174,-5.7174,-5.7174,-5.7174,-5.7238,-5.7367,-5.7852,-5.8585,-6.0173,-6.188,-6.3159,-6.4214,-6.4524,-6.4888,-6.4888,-6.4888,-6.4888,-6.4888,-6.4888,-6.4888,-6.4888,-6.4888,-6.4888,-6.4888,-3.2351,-3.2698,-3.3468,-3.3817,-3.3817,-3.3817,-3.3817,-3.3817,-3.3817,-3.3817,-3.3817,-3.3762,-3.3563,-3.3396,-3.434,-3.5281,-3.6134,-3.7467,-3.8895,-4.0431,-4.1636,-4.2628,-4.3759,-4.4851,-4.5509,-4.6101,-4.6494,-4.668,-4.6559,-4.6655,-4.668,-4.6583,-4.6607,-4.6728,-4.704,-4.7064,-4.7185,-4.7473,-4.7497,-4.7136,-4.6559,-4.6872,-4.704,-4.7209,-4.7371,-4.7696,-4.8264,-4.8828,-4.9217,-4.9797,-5.0689,-5.1695,-5.2483,-5.3102,-5.3482,-5.3978,-5.4541,-5.5003,-5.5274,-5.5627,-5.6061,-5.6441,-5.6685,-5.6956,-5.6956,-5.6712,-5.6712,-5.7065,-5.7092,-5.7146,-5.7146,-5.7174,-5.7174,-5.7174,-5.7174,-5.7174,-5.7174,-5.7174,-5.7174,-5.7174,-5.7174,-5.7174,-5.7174,-5.7174,-5.7174,-5.7174,-5.7174,-5.7174,-5.7174,-5.7174,-5.7174,-5.7174,-5.7174,-5.7174,-5.7174,-5.7238,-5.7367,-5.7916,-5.8459,-5.9773,-6.1289,-6.3418,-6.4888,-6.4888,-6.4888,-6.4888,-6.4888,-6.4888,-6.4888,-6.4888,-6.4888,-6.4888,-6.4888,-6.4888,-6.4888,-3.2491,-3.2845,-3.3523,-3.3817,-3.3817,-3.3817,-3.3817,-3.3817,-3.3817,-3.3817,-3.3817,-3.3817,-3.3935,-3.447,-3.5349,-3.6391,-3.759,-3.883,-4.0214,-4.1485,-4.2571,-4.3684,-4.4576,-4.5446,-4.6204,-4.6789,-4.7136,-4.7281,-4.7281,-4.7305,-4.7281,-4.7473,-4.7497,-4.7473,-4.7497,-4.7473,-4.7497,-4.7497,-4.7497,-4.7497,-4.7449,-4.7497,-4.7581,-4.7581,-4.7762,-4.8289,-4.8853,-4.954,-4.9989,-5.083,-5.1826,-5.274,-5.3509,-5.4113,-5.4329,-5.4758,-5.5166,-5.5681,-5.6061,-5.6278,-5.6658,-5.6984,-5.7146,-5.7174,-5.7174,-5.7174,-5.7174,-5.7174,-5.7174,-5.7174,-5.7174,-5.7174,-5.7174,-5.7174,-5.7174,-5.7174,-5.7174,-5.7174,-5.7174,-5.7174,-5.7174,-5.7174,-5.7174,-5.7174,-5.7174,-5.7174,-5.7174,-5.7174,-5.7174,-5.7174,-5.7174,-5.7174,-5.7174,-5.7174,-5.7174,-5.7238,-5.7303,-5.7624,-5.8206,-5.9279,-6.0779,-6.3246,-6.4777,-6.4888,-6.4888,-6.4888,-6.4888,-6.4888,-6.4888,-6.4888,-6.4888,-6.4888,-6.4888,-6.4888,-6.4888,-3.2905,-3.3596,-3.3762,-3.3817,-3.3817,-3.3817,-3.3817,-3.3817,-3.3817,-3.3817,-3.3817,-3.3849,-3.4122,-3.4767,-3.6142,-3.7529,-3.9193,-4.0323,-4.164,-4.3018,-4.3825,-4.4859,-4.5669,-4.6338,-4.7016,-4.7311,-4.7425,-4.7449,-4.7497,-4.7497,-4.7497,-4.7497,-4.7497,-4.7497,-4.7497,-4.7497,-4.7497,-4.7497,-4.7497,-4.7497,-4.7497,-4.7696,-4.8067,-4.833,-4.8722,-4.9436,-5.0142,-5.1068,-5.1507,-5.22,-5.3077,-5.3874,-5.4391,-5.484,-5.5138,-5.5383,-5.579,-5.6142,-5.6468,-5.6739,-5.7038,-5.7119,-5.7174,-5.7174,-5.7174,-5.7174,-5.7174,-5.7174,-5.7174,-5.7174,-5.7174,-5.7174,-5.7174,-5.7174,-5.7174,-5.7174,-5.7174,-5.7174,-5.7174,-5.7174,-5.7174,-5.7174,-5.7174,-5.7174,-5.7174,-5.7174,-5.7174,-5.7174,-5.7174,-5.7174,-5.7174,-5.7174,-5.7174,-5.7174,-5.7174,-5.7174,-5.7303,-5.756,-5.8107,-5.9341,-6.1079,-6.3475,-6.4579,-6.4468,-6.4777,-6.4888,-6.4888,-6.4888,-6.4888,-6.4888,-6.4888,-6.4888,-6.4888,-6.4888,-6.4888]},{"header":{"parameterUnit":"m.s-1","parameterCategory":1,"la1":31.0,"la2":29.5877,"lo1":-88.7671,"lo2":-86.6584,"dx":0.0162,"dy":0.0185,"nx":115,"ny":88,"refTime":"2023-01-28T18:00:00:Z","depth":0,"parameterNumber":3,"parameterNumberName":"V-component_of_WINDS"},"data":[0.0,0.0,0.0,0.0,0.0,0.0,0.0,0.0,0.0,0.0,0.0,0.0,0.0,0.0,0.0,0.0,0.0,0.0,0.0,0.0,0.0,0.0,0.0,0.0,0.0,0.0,0.0,0.0,0.0,0.0,0.0,0.0,0.0,0.0,0.0,0.0,0.0,0.0,0.0,0.0,0.0,0.0,0.0,0.0,0.0,0.0,0.0,0.0,0.0,0.0,0.0,0.0,0.0,0.0,0.0,0.0,0.0,0.0,0.0,0.0,0.0,0.0,0.0,0.0,0.0,0.0,0.0,0.0,0.0,0.0,0.0,0.0,0.0,0.0,0.0,0.0,0.0,0.0,0.0,0.0,0.0,0.0,0.0,0.0,0.0,0.0,0.0,0.0,0.0,0.0,0.0,0.0,0.0,0.0,0.0,0.0,0.0,0.0,0.0,0.0,0.0,0.0,0.0,0.0,0.0,0.0,0.0,0.0,0.0,0.0,0.0,0.0,0.0,0.0,0.0,0.0,0.0,0.0,0.0,0.0,0.0,0.0,0.0,0.0,0.0,0.0,0.0,0.0,0.0,0.0,0.0,0.0,0.0,0.0,0.0,0.0,0.0,0.0,0.0,0.0,0.0,0.0,0.0,0.0,0.0,0.0,0.0,0.0,0.0,0.0,0.0,0.0,0.0,0.0,0.0,0.0,0.0,0.0,0.0,0.0,0.0,0.0,0.0,0.0,0.0,0.0,0.0,0.0,0.0,0.0,0.0,0.0,0.0,0.0,0.0,0.0,0.0,0.0,0.0,0.0,0.0,0.0,0.0,0.0,0.0,0.0,0.0,0.0,0.0,0.0,0.0,0.0,0.0,0.0,0.0,0.0,0.0,0.0,0.0,0.0,0.0,0.0,0.0,0.0,0.0,0.0,0.0,0.0,0.0,0.0,0.0,0.0,0.0,0.0,0.0,0.0,0.0,0.0,0.0,0.0,0.0,0.0,0.0,0.0,0.0,0.0,0.0,0.0,0.0,0.0,0.0,0.0,0.0,0.0,0.0,0.0,0.0,0.0,0.0,0.0,0.0,0.0,0.0,0.0,0.0,0.0,0.0,0.0,0.0,0.0,0.0,0.0,0.0,0.0,0.0,0.0,0.0,0.0,0.0,0.0,0.0,0.0,0.0,0.0,0.0,0.0,0.0,0.0,0.0,0.0,0.0,0.0,0.0,0.0,0.0,0.0,0.0,0.0,0.0,0.0,0.0,0.0,0.0,0.0,0.0,0.0,0.0,0.0,0.0,0.0,0.0,0.0,0.0,0.0,0.0,0.0,0.0,0.0,0.0,0.0,0.0,0.0,0.0,0.0,0.0,0.0,0.0,0.0,0.0,0.0,0.0,0.0,0.0,0.0,0.0,0.0,0.0,0.0,0.0,0.0,0.0,0.0,0.0,0.0,0.0,0.0,0.0,0.0,0.0,0.0,0.0,0.0,0.0,0.0,0.0,0.0,0.0,0.0,0.0,0.0,0.0,0.0,0.0,0.0,0.0,0.0,0.0,0.0,0.0,0.0,0.0,0.0,0.0,0.0,0.0,0.0,0.0,0.0,0.0,0.0,0.0,0.0,0.0,0.0,0.0,0.0,0.0,0.0,0.0,0.0,0.0,0.0,0.0,0.0,0.0,0.0,0.0,0.0,0.0,0.0,0.0,0.0,0.0,0.0,0.0,0.0,0.0,0.0,0.0,0.0,0.0,0.0,0.0,0.0,0.0,0.0,0.0,0.0,0.0,0.0,0.0,0.0,0.0,0.0,0.0,0.0,0.0,0.0,0.0,0.0,0.0,0.0,0.0,0.0,0.0,0.0,0.0,0.0,0.0,0.0,0.0,0.0,0.0,0.0,0.0,0.0,0.0,0.0,0.0,0.0,0.0,0.0,0.0,0.0,0.0,0.0,0.0,0.0,0.0,0.0,0.0,0.0,0.0,0.0,0.0,0.0,0.0,0.0,0.0,0.0,0.0,0.0,0.0,0.0,0.0,0.0,0.0,0.0,0.0,0.0,0.0,0.0,0.0,0.0,0.0,0.0,0.0,0.0,0.0,0.0,0.0,0.0,0.0,0.0,0.0,0.0,0.0,0.0,0.0,0.0,0.0,0.0,0.0,0.0,0.0,0.0,0.0,0.0,0.0,0.0,0.0,0.0,0.0,0.0,0.0,0.0,0.0,0.0,0.0,0.0,0.0,0.0,0.0,0.0,0.0,0.0,0.0,0.0,0.0,0.0,0.0,0.0,0.0,0.0,0.0,0.0,0.0,0.0,0.0,0.0,0.0,0.0,0.0,0.0,0.0,0.0,0.0,0.0,0.0,0.0,0.0,0.0,0.0,0.0,0.0,0.0,0.0,0.0,0.0,0.0,0.0,0.0,0.0,0.0,0.0,0.0,0.0,0.0,0.0,0.0,0.0,0.0,0.0,0.0,0.0,0.0,0.0,0.0,0.0,0.0,0.0,0.0,0.0,0.0,0.0,0.0,0.0,0.0,0.0,0.0,0.0,0.0,0.0,0.0,0.0,0.0,0.0,0.0,0.0,0.0,0.0,0.0,0.0,0.0,0.0,0.0,0.0,0.0,0.0,0.0,0.0,0.0,0.0,0.0,0.0,0.0,0.0,0.0,0.0,0.0,0.0,0.0,0.0,0.0,0.0,0.0,0.0,0.0,0.0,0.0,0.0,0.0,0.0,0.0,0.0,0.0,0.0,0.0,0.0,0.0,0.0,0.0,0.0,0.0,0.0,0.0,0.0,0.0,0.0,0.0,0.0,0.0,0.0,0.0,0.0,0.0,0.0,0.0,0.0,0.0,0.0,0.0,0.0,0.0,0.0,0.0,0.0,0.0,0.0,0.0,0.0,0.0,0.0,0.0,0.0,0.0,0.0,0.0,0.0,0.0,0.0,0.0,0.0,0.0,0.0,0.0,0.0,0.0,0.0,0.0,0.0,0.0,0.0,0.0,0.0,0.0,0.0,0.0,0.0,0.0,0.0,0.0,0.0,0.0,0.0,0.0,0.0,0.0,0.0,0.0,0.0,0.0,0.0,0.0,0.0,0.0,0.0,0.0,0.0,0.0,0.0,0.0,0.0,0.0,0.0,0.0,0.0,0.0,0.0,0.0,0.0,0.0,0.0,0.0,0.0,0.0,0.0,0.0,0.0,0.0,0.0,0.0,0.0,0.0,0.0,0.0,0.0,0.0,0.0,0.0,0.0,0.0,0.0,0.0,0.0,0.0,0.0,0.0,0.0,0.0,0.0,0.0,0.0,0.0,0.0,0.0,0.0,0.0,0.0,0.0,0.0,0.0,0.0,0.0,0.0,0.0,0.0,0.0,0.0,0.0,0.0,0.0,0.0,0.0,0.0,0.0,0.0,0.0,0.0,0.0,0.0,0.0,0.0,0.0,0.0,0.0,0.0,0.0,0.0,0.0,0.0,0.0,0.0,0.0,0.0,0.0,0.0,0.0,0.0,0.0,0.0,0.0,0.0,0.0,0.0,0.0,0.0,0.0,0.0,0.0,0.0,0.0,0.0,0.0,0.0,0.0,0.0,0.0,0.0,0.0,0.0,0.0,0.0,0.0,0.0,0.0,0.0,0.0,0.0,0.0,0.0,0.0,0.0,0.0,0.0,0.0,0.0,0.0,0.0,0.0,0.0,0.0,0.0,0.0,0.0,0.0,0.0,0.0,0.0,0.0,0.0,0.0,0.0,0.0,0.0,0.0,0.0,0.0,0.0,0.0,0.0,0.0,0.0,0.0,0.0,0.0,0.0,0.0,0.0,0.0,0.0,0.0,0.0,0.0,0.0,0.0,0.0,0.0,0.0,0.0,0.0,0.0,0.0,0.0,0.0,0.0,0.0,0.0,0.0,0.0,0.0,0.0,0.0,0.0,0.0,0.0,0.0,0.0,0.0,0.0,0.0,0.0,0.0,0.0,0.0,0.0,0.0,0.0,0.0,0.0,0.0,0.0,0.0,0.0,0.0,0.0,0.0,0.0,0.0,0.0,0.0,0.0,0.0,0.0,0.0,0.0,0.0,0.0,0.0,0.0,0.0,0.0,0.0,0.0,0.0,0.0,0.0,0.0,0.0,0.0,0.0,0.0,0.0,0.0,0.0,0.0,0.0,0.0,0.0,0.0,0.0,0.0,0.0,0.0,0.0,0.0,0.0,0.0,0.0,0.0,0.0,0.0,0.0,0.0,0.0,0.0,0.0,0.0,0.0,0.0,0.0,0.0,0.0,0.0,0.0,0.0,-3.9151,0.0,0.0,0.0,0.0,0.0,0.0,0.0,0.0,0.0,0.0,0.0,0.0,0.0,0.0,0.0,0.0,0.0,0.0,0.0,0.0,0.0,0.0,0.0,0.0,0.0,0.0,0.0,0.0,0.0,0.0,0.0,0.0,0.0,0.0,0.0,0.0,0.0,0.0,0.0,0.0,0.0,0.0,0.0,0.0,0.0,0.0,0.0,0.0,0.0,0.0,0.0,0.0,0.0,0.0,0.0,0.0,0.0,0.0,0.0,0.0,0.0,0.0,0.0,0.0,0.0,0.0,0.0,0.0,0.0,0.0,0.0,0.0,0.0,0.0,0.0,0.0,0.0,0.0,0.0,0.0,0.0,0.0,0.0,0.0,0.0,0.0,0.0,0.0,0.0,0.0,0.0,0.0,0.0,0.0,0.0,0.0,0.0,0.0,0.0,0.0,0.0,0.0,0.0,0.0,0.0,0.0,0.0,0.0,0.0,0.0,-4.1292,-3.9353,-4.0546,-4.0643,-3.9394,0.0,0.0,0.0,0.0,0.0,0.0,0.0,0.0,0.0,0.0,0.0,0.0,0.0,0.0,0.0,0.0,0.0,0.0,0.0,0.0,0.0,0.0,0.0,0.0,0.0,0.0,0.0,0.0,0.0,0.0,0.0,0.0,0.0,0.0,0.0,0.0,0.0,0.0,0.0,0.0,0.0,0.0,0.0,0.0,0.0,0.0,0.0,0.0,0.0,0.0,0.0,0.0,0.0,0.0,0.0,0.0,0.0,0.0,0.0,0.0,0.0,0.0,0.0,0.0,0.0,0.0,0.0,0.0,0.0,0.0,0.0,0.0,0.0,0.0,0.0,0.0,0.0,0.0,0.0,0.0,0.0,0.0,0.0,0.0,0.0,0.0,0.0,0.0,0.0,0.0,0.0,0.0,0.0,0.0,0.0,0.0,0.0,0.0,0.0,0.0,0.0,0.0,0.0,0.0,0.0,0.0,0.0,0.0,0.0,0.0,0.0,0.0,-4.065,-4.087,-4.0055,0.0,0.0,0.0,0.0,0.0,0.0,0.0,0.0,0.0,0.0,0.0,0.0,0.0,0.0,0.0,0.0,0.0,0.0,0.0,0.0,0.0,0.0,0.0,0.0,0.0,0.0,0.0,0.0,0.0,0.0,0.0,0.0,0.0,0.0,0.0,0.0,0.0,0.0,0.0,0.0,0.0,0.0,0.0,0.0,0.0,0.0,0.0,0.0,0.0,0.0,0.0,0.0,0.0,0.0,0.0,0.0,0.0,0.0,0.0,0.0,0.0,0.0,0.0,0.0,0.0,0.0,0.0,0.0,0.0,0.0,0.0,0.0,0.0,0.0,0.0,0.0,0.0,0.0,0.0,0.0,0.0,0.0,0.0,0.0,0.0,0.0,0.0,0.0,0.0,0.0,0.0,0.0,0.0,0.0,0.0,0.0,0.0,0.0,0.0,0.0,0.0,0.0,0.0,0.0,0.0,0.0,0.0,0.0,0.0,0.0,-3.9702,-3.9012,-3.966,0.0,-4.0575,0.0,0.0,0.0,0.0,0.0,0.0,0.0,0.0,0.0,0.0,0.0,0.0,0.0,0.0,0.0,0.0,0.0,0.0,0.0,0.0,0.0,0.0,0.0,0.0,0.0,0.0,0.0,0.0,0.0,0.0,0.0,0.0,0.0,0.0,0.0,0.0,0.0,0.0,0.0,0.0,0.0,0.0,0.0,0.0,0.0,0.0,0.0,0.0,0.0,0.0,0.0,0.0,0.0,0.0,0.0,0.0,0.0,0.0,0.0,0.0,0.0,0.0,0.0,0.0,0.0,0.0,0.0,0.0,0.0,0.0,0.0,0.0,0.0,0.0,0.0,0.0,0.0,0.0,0.0,0.0,0.0,0.0,0.0,0.0,0.0,0.0,0.0,0.0,0.0,0.0,0.0,0.0,0.0,0.0,0.0,0.0,0.0,0.0,0.0,0.0,0.0,0.0,0.0,0.0,0.0,0.0,0.0,0.0,0.0,0.0,-4.021,-3.9957,-4.0182,-4.0463,0.0,0.0,0.0,0.0,0.0,0.0,0.0,0.0,0.0,0.0,0.0,0.0,0.0,0.0,0.0,0.0,0.0,0.0,0.0,0.0,0.0,0.0,0.0,0.0,0.0,0.0,0.0,0.0,0.0,0.0,0.0,0.0,0.0,0.0,0.0,0.0,0.0,0.0,0.0,0.0,0.0,0.0,0.0,0.0,0.0,0.0,0.0,0.0,0.0,0.0,0.0,0.0,0.0,0.0,0.0,0.0,0.0,0.0,0.0,0.0,0.0,0.0,0.0,0.0,0.0,0.0,0.0,0.0,0.0,0.0,0.0,0.0,0.0,0.0,0.0,0.0,0.0,0.0,0.0,0.0,0.0,0.0,0.0,0.0,0.0,0.0,0.0,0.0,0.0,0.0,0.0,0.0,0.0,0.0,0.0,0.0,0.0,0.0,0.0,0.0,0.0,0.0,0.0,0.0,0.0,0.0,0.0,0.0,0.0,0.0,-4.0716,-4.0716,-4.0716,-4.0716,-4.0716,-4.0716,0.0,0.0,0.0,0.0,0.0,0.0,0.0,0.0,0.0,0.0,0.0,0.0,0.0,0.0,0.0,0.0,0.0,0.0,0.0,0.0,0.0,0.0,0.0,0.0,0.0,0.0,0.0,0.0,0.0,0.0,0.0,0.0,0.0,0.0,0.0,0.0,0.0,0.0,0.0,0.0,0.0,0.0,0.0,0.0,0.0,0.0,0.0,0.0,0.0,0.0,0.0,0.0,0.0,0.0,0.0,0.0,0.0,0.0,0.0,0.0,0.0,0.0,0.0,0.0,0.0,0.0,0.0,0.0,0.0,0.0,0.0,0.0,0.0,0.0,0.0,0.0,0.0,0.0,0.0,0.0,0.0,0.0,0.0,0.0,0.0,0.0,0.0,0.0,0.0,0.0,0.0,0.0,0.0,0.0,0.0,0.0,0.0,0.0,0.0,0.0,0.0,0.0,0.0,0.0,0.0,0.0,0.0,0.0,-4.0716,-4.0716,-4.0716,-4.0716,-4.0716,-4.0716,0.0,0.0,0.0,0.0,0.0,0.0,0.0,0.0,0.0,0.0,0.0,0.0,0.0,0.0,0.0,0.0,0.0,0.0,0.0,0.0,0.0,0.0,0.0,0.0,0.0,0.0,0.0,0.0,0.0,0.0,0.0,0.0,0.0,0.0,0.0,0.0,0.0,0.0,0.0,0.0,0.0,0.0,0.0,0.0,0.0,0.0,0.0,0.0,0.0,0.0,0.0,0.0,0.0,0.0,0.0,0.0,0.0,0.0,0.0,0.0,0.0,0.0,0.0,0.0,0.0,0.0,0.0,0.0,0.0,0.0,0.0,0.0,0.0,0.0,0.0,0.0,0.0,0.0,0.0,0.0,0.0,0.0,0.0,0.0,0.0,0.0,0.0,0.0,0.0,0.0,0.0,0.0,0.0,0.0,0.0,0.0,0.0,0.0,0.0,0.0,0.0,0.0,0.0,0.0,0.0,0.0,0.0,0.0,0.0,-4.0716,-4.0716,-4.0716,-4.0716,-4.0716,-4.0716,0.0,0.0,0.0,0.0,0.0,0.0,0.0,0.0,0.0,0.0,0.0,0.0,0.0,0.0,0.0,0.0,0.0,0.0,0.0,0.0,0.0,0.0,0.0,0.0,0.0,0.0,0.0,0.0,0.0,0.0,0.0,0.0,0.0,0.0,0.0,0.0,0.0,0.0,0.0,0.0,0.0,0.0,0.0,0.0,0.0,0.0,0.0,0.0,0.0,0.0,0.0,0.0,0.0,0.0,0.0,0.0,0.0,0.0,0.0,0.0,0.0,0.0,0.0,0.0,0.0,0.0,0.0,0.0,0.0,0.0,0.0,0.0,0.0,0.0,0.0,0.0,0.0,0.0,0.0,0.0,0.0,0.0,0.0,0.0,0.0,0.0,0.0,0.0,0.0,0.0,0.0,0.0,0.0,0.0,0.0,0.0,0.0,0.0,0.0,0.0,0.0,0.0,0.0,0.0,0.0,0.0,0.0,0.0,0.0,-4.0716,0.0,-4.0716,-4.0716,-4.0716,-4.0716,0.0,0.0,0.0,0.0,0.0,0.0,0.0,0.0,0.0,0.0,0.0,0.0,0.0,0.0,0.0,0.0,0.0,0.0,0.0,0.0,0.0,0.0,0.0,0.0,0.0,0.0,0.0,0.0,0.0,0.0,0.0,0.0,0.0,0.0,0.0,0.0,0.0,0.0,0.0,0.0,0.0,0.0,0.0,0.0,0.0,0.0,0.0,0.0,0.0,0.0,0.0,0.0,0.0,0.0,0.0,0.0,0.0,0.0,0.0,0.0,0.0,0.0,0.0,0.0,0.0,0.0,0.0,0.0,0.0,0.0,0.0,0.0,0.0,0.0,0.0,0.0,0.0,0.0,0.0,0.0,0.0,0.0,0.0,0.0,0.0,0.0,0.0,0.0,0.0,0.0,0.0,0.0,0.0,0.0,0.0,0.0,0.0,0.0,0.0,0.0,0.0,0.0,0.0,0.0,0.0,0.0,0.0,0.0,-4.0716,-4.0716,-4.0716,-4.0716,-4.0716,-4.0716,-4.0716,0.0,0.0,0.0,0.0,0.0,0.0,0.0,0.0,0.0,0.0,0.0,0.0,0.0,0.0,0.0,0.0,0.0,0.0,0.0,0.0,0.0,0.0,0.0,0.0,0.0,0.0,0.0,0.0,0.0,0.0,0.0,0.0,0.0,0.0,0.0,0.0,0.0,0.0,0.0,0.0,0.0,0.0,0.0,0.0,0.0,0.0,0.0,0.0,0.0,0.0,0.0,0.0,0.0,0.0,0.0,0.0,0.0,0.0,0.0,0.0,0.0,0.0,0.0,0.0,0.0,0.0,0.0,0.0,0.0,0.0,0.0,0.0,0.0,0.0,0.0,0.0,0.0,0.0,0.0,0.0,0.0,0.0,0.0,0.0,0.0,0.0,0.0,0.0,0.0,0.0,0.0,0.0,0.0,0.0,0.0,0.0,0.0,0.0,0.0,0.0,0.0,0.0,0.0,0.0,0.0,0.0,0.0,0.0,0.0,-4.0716,-4.0716,-4.0716,-4.0716,-4.0716,-4.0716,0.0,0.0,0.0,0.0,0.0,0.0,0.0,0.0,0.0,0.0,0.0,0.0,0.0,0.0,0.0,0.0,0.0,0.0,0.0,0.0,0.0,0.0,0.0,0.0,0.0,0.0,0.0,0.0,0.0,0.0,0.0,0.0,0.0,0.0,0.0,0.0,0.0,0.0,0.0,0.0,0.0,0.0,0.0,0.0,0.0,0.0,0.0,0.0,0.0,0.0,0.0,0.0,0.0,0.0,0.0,0.0,0.0,0.0,0.0,0.0,0.0,0.0,0.0,0.0,0.0,0.0,0.0,0.0,0.0,0.0,0.0,0.0,0.0,0.0,0.0,0.0,0.0,0.0,0.0,0.0,0.0,0.0,0.0,0.0,0.0,0.0,0.0,0.0,0.0,0.0,0.0,0.0,0.0,0.0,0.0,0.0,0.0,0.0,0.0,0.0,0.0,0.0,0.0,0.0,0.0,0.0,0.0,0.0,0.0,-4.0972,-4.0859,-4.0773,-4.0716,-4.0716,-4.0716,-4.0716,0.0,0.0,0.0,0.0,0.0,0.0,0.0,0.0,0.0,0.0,0.0,0.0,0.0,0.0,0.0,0.0,0.0,0.0,0.0,0.0,0.0,0.0,0.0,0.0,0.0,0.0,0.0,0.0,0.0,0.0,0.0,0.0,0.0,0.0,0.0,0.0,0.0,0.0,0.0,0.0,0.0,0.0,0.0,0.0,0.0,0.0,0.0,0.0,0.0,0.0,0.0,0.0,0.0,0.0,0.0,0.0,0.0,0.0,0.0,0.0,0.0,0.0,0.0,0.0,0.0,0.0,0.0,0.0,0.0,0.0,0.0,0.0,0.0,0.0,0.0,0.0,0.0,0.0,0.0,0.0,0.0,0.0,0.0,0.0,0.0,0.0,0.0,0.0,0.0,0.0,0.0,0.0,0.0,0.0,0.0,0.0,0.0,0.0,0.0,0.0,0.0,0.0,0.0,0.0,0.0,0.0,0.0,0.0,-4.1438,-4.1198,-4.0944,-4.073,-4.0688,-4.0716,0.0,0.0,0.0,0.0,0.0,0.0,0.0,0.0,0.0,0.0,0.0,0.0,0.0,0.0,0.0,0.0,0.0,0.0,0.0,0.0,0.0,0.0,0.0,0.0,0.0,0.0,0.0,0.0,0.0,0.0,0.0,0.0,0.0,0.0,0.0,0.0,0.0,0.0,0.0,0.0,0.0,0.0,0.0,0.0,0.0,0.0,0.0,0.0,0.0,0.0,0.0,0.0,0.0,0.0,0.0,0.0,0.0,0.0,0.0,0.0,0.0,0.0,0.0,0.0,0.0,0.0,0.0,0.0,0.0,0.0,0.0,0.0,0.0,0.0,0.0,0.0,0.0,0.0,0.0,0.0,0.0,0.0,0.0,0.0,0.0,0.0,0.0,0.0,0.0,0.0,0.0,0.0,0.0,0.0,0.0,0.0,0.0,0.0,0.0,0.0,0.0,0.0,0.0,0.0,0.0,0.0,0.0,0.0,0.0,-4.2222,-4.1798,-4.1325,-4.0916,-4.0773,-4.0716,0.0,0.0,0.0,0.0,0.0,0.0,0.0,0.0,0.0,0.0,0.0,0.0,0.0,0.0,0.0,0.0,0.0,0.0,0.0,0.0,0.0,0.0,0.0,0.0,0.0,0.0,0.0,0.0,0.0,0.0,0.0,0.0,0.0,0.0,0.0,0.0,0.0,0.0,0.0,0.0,0.0,0.0,0.0,0.0,0.0,0.0,0.0,0.0,0.0,0.0,0.0,0.0,0.0,0.0,0.0,0.0,0.0,0.0,0.0,0.0,0.0,0.0,0.0,0.0,0.0,0.0,0.0,0.0,0.0,0.0,0.0,0.0,0.0,0.0,0.0,0.0,0.0,0.0,0.0,0.0,0.0,0.0,0.0,0.0,0.0,0.0,0.0,0.0,0.0,0.0,0.0,0.0,0.0,0.0,0.0,0.0,0.0,0.0,0.0,0.0,0.0,0.0,0.0,0.0,0.0,0.0,0.0,0.0,-4.1798,-4.2871,-4.2005,-4.1493,-4.1296,-4.1114,-4.0944,0.0,0.0,0.0,0.0,0.0,0.0,0.0,0.0,0.0,0.0,0.0,0.0,0.0,0.0,0.0,0.0,0.0,0.0,0.0,0.0,0.0,0.0,0.0,0.0,0.0,0.0,0.0,0.0,0.0,0.0,0.0,0.0,0.0,0.0,0.0,0.0,0.0,0.0,0.0,0.0,0.0,0.0,0.0,0.0,0.0,0.0,0.0,0.0,0.0,0.0,0.0,0.0,0.0,0.0,0.0,0.0,0.0,0.0,0.0,0.0,0.0,0.0,0.0,0.0,0.0,0.0,0.0,0.0,0.0,0.0,0.0,0.0,0.0,0.0,0.0,0.0,0.0,0.0,0.0,0.0,0.0,0.0,0.0,0.0,0.0,0.0,0.0,0.0,0.0,0.0,0.0,0.0,0.0,0.0,0.0,0.0,0.0,0.0,0.0,0.0,0.0,0.0,0.0,0.0,0.0,0.0,0.0,0.0,-4.2262,-4.3598,-4.2415,-4.1904,-4.2042,-4.1621,-4.1241,0.0,0.0,0.0,0.0,0.0,0.0,0.0,0.0,0.0,0.0,0.0,0.0,0.0,0.0,0.0,0.0,0.0,0.0,0.0,0.0,0.0,0.0,0.0,0.0,0.0,0.0,0.0,0.0,0.0,0.0,0.0,0.0,0.0,0.0,0.0,0.0,0.0,0.0,0.0,0.0,0.0,0.0,0.0,0.0,0.0,0.0,0.0,0.0,0.0,0.0,0.0,0.0,0.0,0.0,0.0,0.0,0.0,0.0,0.0,0.0,0.0,0.0,0.0,0.0,0.0,0.0,0.0,0.0,0.0,0.0,0.0,0.0,0.0,0.0,0.0,0.0,0.0,0.0,0.0,0.0,0.0,0.0,0.0,0.0,0.0,0.0,0.0,0.0,0.0,0.0,0.0,0.0,0.0,0.0,0.0,0.0,0.0,0.0,0.0,0.0,0.0,0.0,0.0,0.0,0.0,0.0,0.0,0.0,-4.5374,-4.5773,-4.4918,-4.4496,-4.4537,-4.2515,-4.1269,0.0,0.0,0.0,0.0,0.0,0.0,0.0,0.0,0.0,0.0,0.0,0.0,0.0,0.0,0.0,0.0,0.0,0.0,0.0,0.0,0.0,0.0,0.0,0.0,0.0,0.0,0.0,0.0,0.0,0.0,0.0,0.0,0.0,0.0,0.0,0.0,0.0,0.0,0.0,0.0,0.0,0.0,0.0,0.0,0.0,0.0,0.0,0.0,-4.33,0.0,0.0,0.0,0.0,0.0,0.0,0.0,0.0,0.0,0.0,0.0,0.0,0.0,0.0,0.0,0.0,0.0,0.0,0.0,0.0,0.0,0.0,0.0,0.0,0.0,0.0,0.0,0.0,0.0,0.0,0.0,0.0,0.0,0.0,0.0,0.0,0.0,0.0,0.0,0.0,0.0,0.0,0.0,0.0,0.0,0.0,0.0,0.0,0.0,0.0,0.0,0.0,0.0,0.0,0.0,0.0,0.0,0.0,0.0,-4.6559,-4.7068,-4.5951,-4.5492,-4.5799,-4.3789,-4.2493,0.0,0.0,0.0,0.0,0.0,0.0,0.0,0.0,0.0,0.0,0.0,0.0,0.0,0.0,0.0,0.0,0.0,0.0,0.0,0.0,0.0,0.0,0.0,0.0,0.0,0.0,0.0,0.0,0.0,0.0,0.0,0.0,0.0,0.0,0.0,0.0,0.0,0.0,0.0,0.0,0.0,0.0,0.0,0.0,0.0,0.0,0.0,0.0,0.0,0.0,0.0,0.0,0.0,0.0,0.0,0.0,0.0,0.0,0.0,0.0,0.0,0.0,0.0,0.0,0.0,0.0,0.0,0.0,0.0,0.0,0.0,0.0,0.0,0.0,0.0,0.0,0.0,0.0,0.0,0.0,0.0,0.0,0.0,0.0,0.0,0.0,0.0,0.0,0.0,0.0,0.0,0.0,0.0,0.0,0.0,0.0,0.0,0.0,0.0,0.0,0.0,0.0,0.0,0.0,0.0,0.0,0.0,-4.6828,-4.7411,-4.8029,-4.6739,-4.6336,-4.7057,-4.5668,-4.4689,-4.4217,0.0,0.0,0.0,0.0,0.0,0.0,0.0,0.0,0.0,0.0,0.0,0.0,0.0,0.0,0.0,0.0,0.0,0.0,0.0,0.0,0.0,0.0,0.0,0.0,0.0,0.0,0.0,0.0,0.0,0.0,0.0,0.0,0.0,0.0,0.0,0.0,0.0,0.0,-4.434,-4.4425,0.0,0.0,0.0,0.0,0.0,0.0,0.0,0.0,-4.4425,0.0,0.0,0.0,0.0,0.0,0.0,0.0,0.0,0.0,0.0,0.0,0.0,0.0,0.0,0.0,0.0,0.0,0.0,0.0,0.0,0.0,0.0,0.0,0.0,0.0,0.0,0.0,0.0,0.0,0.0,0.0,0.0,0.0,0.0,0.0,0.0,0.0,0.0,0.0,0.0,0.0,0.0,0.0,0.0,0.0,0.0,0.0,0.0,0.0,0.0,0.0,0.0,0.0,0.0,0.0,0.0,-4.8903,-4.9871,-5.0135,-4.956,-4.9284,-4.9205,-4.9324,-4.9085,-4.8109,-4.6414,0.0,0.0,0.0,0.0,0.0,0.0,0.0,0.0,0.0,0.0,0.0,0.0,0.0,0.0,0.0,0.0,0.0,0.0,0.0,0.0,0.0,0.0,0.0,0.0,0.0,0.0,0.0,0.0,0.0,0.0,0.0,0.0,0.0,0.0,0.0,0.0,0.0,0.0,0.0,-4.4425,-4.4425,0.0,0.0,0.0,0.0,0.0,0.0,0.0,0.0,-4.4256,0.0,0.0,0.0,0.0,0.0,0.0,0.0,0.0,0.0,0.0,0.0,0.0,0.0,0.0,0.0,0.0,0.0,0.0,0.0,0.0,0.0,0.0,0.0,0.0,0.0,0.0,0.0,0.0,0.0,0.0,0.0,0.0,0.0,0.0,0.0,0.0,0.0,0.0,0.0,0.0,0.0,0.0,0.0,0.0,0.0,0.0,0.0,0.0,0.0,0.0,0.0,0.0,0.0,0.0,0.0,-4.9197,-5.0525,-5.0978,-5.0563,-5.0104,-5.0104,-5.0525,-4.9638,-4.8604,0.0,0.0,0.0,0.0,0.0,0.0,0.0,0.0,0.0,0.0,0.0,0.0,0.0,0.0,0.0,0.0,0.0,0.0,0.0,0.0,0.0,0.0,0.0,0.0,0.0,0.0,0.0,0.0,0.0,0.0,0.0,0.0,0.0,0.0,0.0,0.0,0.0,0.0,0.0,0.0,-4.4425,-4.4425,-4.4425,0.0,0.0,0.0,0.0,0.0,0.0,-4.4425,-4.4425,0.0,0.0,0.0,0.0,0.0,0.0,0.0,0.0,0.0,0.0,0.0,0.0,0.0,0.0,0.0,0.0,0.0,0.0,0.0,0.0,0.0,0.0,0.0,0.0,0.0,0.0,0.0,0.0,0.0,0.0,0.0,0.0,0.0,0.0,0.0,0.0,0.0,0.0,0.0,0.0,0.0,0.0,0.0,0.0,0.0,0.0,0.0,0.0,0.0,0.0,0.0,0.0,0.0,0.0,0.0,-4.8708,-5.0338,-5.1237,-5.1199,-5.0525,-5.0486,-5.1129,-4.9797,-4.8646,0.0,0.0,0.0,0.0,0.0,0.0,0.0,0.0,0.0,0.0,0.0,0.0,0.0,0.0,0.0,0.0,0.0,0.0,0.0,0.0,0.0,0.0,0.0,0.0,0.0,0.0,0.0,0.0,0.0,0.0,0.0,0.0,0.0,0.0,0.0,0.0,0.0,0.0,0.0,0.0,0.0,-4.4425,-4.4425,-4.4425,0.0,0.0,0.0,0.0,-4.4425,-4.4425,0.0,0.0,0.0,0.0,0.0,0.0,0.0,0.0,0.0,0.0,0.0,0.0,0.0,0.0,0.0,0.0,0.0,0.0,0.0,0.0,0.0,0.0,0.0,0.0,0.0,0.0,0.0,0.0,0.0,0.0,0.0,0.0,0.0,0.0,0.0,0.0,0.0,0.0,0.0,0.0,0.0,0.0,0.0,0.0,0.0,0.0,0.0,0.0,0.0,0.0,0.0,0.0,0.0,0.0,0.0,0.0,-4.8023,-5.0073,-5.1237,-5.1167,-5.1124,-5.1092,-5.1199,-5.0978,-4.9915,0.0,0.0,0.0,0.0,0.0,0.0,0.0,0.0,0.0,0.0,0.0,0.0,0.0,0.0,0.0,0.0,0.0,0.0,0.0,0.0,0.0,0.0,0.0,0.0,0.0,0.0,0.0,0.0,0.0,0.0,0.0,0.0,0.0,0.0,0.0,0.0,0.0,0.0,0.0,0.0,0.0,-4.4425,-4.4425,-4.4425,-4.4425,0.0,0.0,-4.4425,-4.4425,-4.4425,0.0,0.0,0.0,0.0,0.0,0.0,0.0,0.0,0.0,0.0,0.0,0.0,0.0,0.0,0.0,0.0,0.0,0.0,0.0,0.0,0.0,0.0,0.0,0.0,0.0,0.0,0.0,0.0,0.0,0.0,0.0,0.0,0.0,0.0,0.0,0.0,0.0,0.0,0.0,0.0,0.0,0.0,0.0,0.0,0.0,0.0,0.0,0.0,0.0,0.0,0.0,0.0,0.0,0.0,0.0,-4.8594,-4.9035,-5.0448,-5.1237,-5.1237,-5.1237,-5.1237,-5.1237,-5.1237,-5.0338,0.0,0.0,0.0,0.0,0.0,0.0,0.0,0.0,0.0,0.0,0.0,0.0,0.0,0.0,0.0,0.0,0.0,0.0,0.0,0.0,0.0,0.0,0.0,0.0,0.0,0.0,0.0,0.0,0.0,0.0,0.0,0.0,0.0,0.0,0.0,0.0,0.0,0.0,0.0,0.0,0.0,0.0,-4.4425,-4.4425,0.0,0.0,0.0,-4.4425,-4.4425,0.0,0.0,0.0,0.0,0.0,0.0,0.0,0.0,0.0,0.0,0.0,0.0,0.0,0.0,0.0,0.0,0.0,0.0,0.0,0.0,0.0,0.0,0.0,0.0,0.0,0.0,0.0,0.0,0.0,0.0,0.0,0.0,0.0,0.0,0.0,0.0,0.0,0.0,0.0,0.0,0.0,0.0,0.0,0.0,0.0,0.0,0.0,0.0,0.0,0.0,0.0,0.0,0.0,0.0,0.0,0.0,0.0,-4.9821,-5.0749,-5.1237,-5.1237,-5.1237,-5.1237,-5.1237,-5.1237,0.0,0.0,0.0,0.0,0.0,0.0,0.0,0.0,0.0,0.0,0.0,0.0,0.0,0.0,0.0,0.0,0.0,0.0,0.0,0.0,0.0,0.0,0.0,0.0,0.0,0.0,0.0,-4.4425,0.0,0.0,0.0,0.0,0.0,0.0,0.0,0.0,0.0,0.0,0.0,0.0,0.0,0.0,-4.4425,-4.4425,-4.4425,-4.4425,0.0,0.0,-4.4425,-4.4425,-4.4425,-4.4425,0.0,0.0,0.0,0.0,0.0,0.0,0.0,0.0,0.0,0.0,0.0,0.0,0.0,0.0,0.0,0.0,0.0,0.0,0.0,0.0,0.0,0.0,0.0,0.0,0.0,0.0,0.0,0.0,0.0,0.0,0.0,0.0,0.0,0.0,0.0,0.0,0.0,0.0,0.0,0.0,0.0,0.0,0.0,0.0,0.0,0.0,0.0,0.0,0.0,0.0,0.0,0.0,0.0,0.0,0.0,-4.9527,-5.064,-5.1237,-5.1237,-5.1237,-5.1237,-5.1237,-5.1237,-5.0679,0.0,0.0,0.0,0.0,0.0,0.0,0.0,0.0,0.0,0.0,0.0,0.0,0.0,0.0,0.0,0.0,0.0,0.0,0.0,0.0,0.0,0.0,0.0,0.0,0.0,0.0,0.0,0.0,0.0,0.0,0.0,0.0,0.0,0.0,0.0,0.0,0.0,0.0,0.0,0.0,0.0,-4.4425,-4.4425,-4.4425,-4.4425,0.0,0.0,-4.4425,-4.4425,-4.4425,-4.4425,-4.4425,0.0,0.0,0.0,0.0,0.0,0.0,0.0,0.0,0.0,0.0,0.0,0.0,0.0,0.0,0.0,0.0,0.0,0.0,0.0,0.0,0.0,0.0,0.0,0.0,0.0,0.0,0.0,0.0,0.0,0.0,0.0,0.0,0.0,0.0,0.0,0.0,0.0,0.0,0.0,0.0,0.0,0.0,0.0,0.0,0.0,0.0,0.0,0.0,0.0,0.0,0.0,0.0,0.0,-4.9622,-4.9749,-5.0711,-5.1237,-5.1237,-5.1237,-5.1237,-5.1237,-5.1237,-5.0864,0.0,0.0,0.0,0.0,0.0,0.0,0.0,0.0,0.0,0.0,0.0,0.0,0.0,0.0,0.0,0.0,0.0,0.0,0.0,0.0,0.0,0.0,0.0,0.0,0.0,0.0,0.0,0.0,-4.4425,-4.4425,-4.4425,0.0,0.0,0.0,0.0,0.0,0.0,0.0,0.0,0.0,0.0,-4.4425,-4.4425,-4.4425,0.0,0.0,-4.4425,-4.4425,-4.4425,-4.4425,-4.4425,-4.4425,-4.4425,0.0,0.0,0.0,0.0,0.0,0.0,0.0,0.0,0.0,0.0,0.0,0.0,0.0,0.0,0.0,0.0,0.0,0.0,0.0,0.0,0.0,0.0,0.0,0.0,0.0,0.0,0.0,0.0,0.0,0.0,0.0,0.0,0.0,0.0,0.0,0.0,0.0,0.0,0.0,0.0,0.0,0.0,0.0,0.0,0.0,0.0,0.0,0.0,0.0,0.0,0.0,0.0,-5.005,-5.0285,-5.0902,-5.1237,-5.1237,-5.1237,-5.1237,-5.1237,-5.1237,-5.1054,0.0,0.0,0.0,0.0,0.0,0.0,0.0,0.0,0.0,0.0,0.0,0.0,0.0,0.0,0.0,0.0,0.0,0.0,0.0,0.0,0.0,0.0,0.0,0.0,0.0,0.0,0.0,0.0,-4.4425,-4.4425,-4.4425,0.0,0.0,0.0,0.0,0.0,0.0,0.0,0.0,0.0,0.0,-4.4425,-4.4425,-4.4425,-4.4425,-4.4425,-4.4425,-4.4425,-4.4425,-4.4425,-4.4425,-4.4425,0.0,0.0,0.0,0.0,0.0,0.0,0.0,0.0,0.0,0.0,0.0,0.0,0.0,0.0,0.0,0.0,0.0,0.0,0.0,0.0,0.0,0.0,0.0,0.0,0.0,0.0,0.0,0.0,0.0,0.0,-5.0026,0.0,0.0,0.0,0.0,0.0,0.0,0.0,0.0,0.0,0.0,0.0,0.0,0.0,0.0,0.0,0.0,0.0,0.0,0.0,0.0,0.0,0.0,-5.0324,-5.1129,-5.1167,-5.1237,-5.1237,-5.1237,-5.1237,-5.1237,-5.1237,-5.1167,-5.1199,0.0,0.0,0.0,0.0,0.0,0.0,0.0,0.0,0.0,0.0,0.0,0.0,0.0,0.0,0.0,0.0,0.0,0.0,0.0,0.0,0.0,0.0,0.0,0.0,0.0,0.0,-4.4425,-4.4425,-4.4425,0.0,0.0,0.0,0.0,0.0,0.0,0.0,0.0,0.0,0.0,-4.4425,-4.4425,-4.4425,-4.4425,-4.4425,-4.4425,-4.4425,-4.4425,-4.4425,-4.4425,-4.4425,0.0,0.0,0.0,0.0,0.0,0.0,0.0,0.0,0.0,0.0,0.0,0.0,0.0,0.0,0.0,0.0,0.0,0.0,0.0,0.0,0.0,0.0,0.0,0.0,0.0,0.0,0.0,-5.1237,-5.1237,0.0,0.0,0.0,0.0,0.0,0.0,0.0,0.0,0.0,0.0,0.0,-5.0749,-5.0788,0.0,0.0,0.0,0.0,0.0,0.0,0.0,0.0,0.0,0.0,0.0,0.0,-5.0207,-5.0717,-5.1054,-5.1237,-5.1237,-5.1237,-5.1237,-5.1237,-5.1237,-5.1237,-5.1199,0.0,0.0,0.0,0.0,0.0,0.0,0.0,0.0,0.0,0.0,0.0,0.0,0.0,0.0,0.0,0.0,0.0,0.0,0.0,0.0,0.0,0.0,0.0,0.0,0.0,-4.4425,0.0,0.0,0.0,0.0,0.0,0.0,0.0,0.0,0.0,0.0,0.0,-4.4425,-4.4425,-4.4425,-4.4425,-4.4425,-4.4425,-4.4425,0.0,0.0,0.0,0.0,0.0,0.0,0.0,0.0,0.0,0.0,0.0,0.0,0.0,0.0,-4.5717,-4.5942,-4.597,-4.6026,-4.6251,0.0,0.0,0.0,0.0,0.0,0.0,0.0,0.0,0.0,0.0,0.0,0.0,0.0,0.0,-5.1237,0.0,-5.1237,0.0,0.0,0.0,0.0,0.0,0.0,0.0,0.0,-5.1237,-5.1237,-5.1237,-5.1237,-5.1237,0.0,-5.1237,-5.0679,0.0,0.0,0.0,0.0,0.0,0.0,0.0,0.0,-5.0331,-5.0717,-5.1054,-5.1237,-5.1237,-5.1237,-5.1237,-5.1237,-5.1237,-5.1237,-5.1205,-5.0755,-5.0525,0.0,0.0,0.0,0.0,0.0,0.0,0.0,0.0,0.0,0.0,0.0,0.0,0.0,0.0,0.0,0.0,0.0,0.0,0.0,0.0,0.0,0.0,0.0,-4.4425,0.0,0.0,0.0,0.0,0.0,0.0,0.0,0.0,0.0,-4.4425,-4.4425,-4.4425,-4.4425,-4.4425,-4.4425,-4.4425,0.0,0.0,0.0,0.0,0.0,0.0,0.0,-4.5212,-4.5605,-4.5661,-4.5886,-4.6504,-4.6616,-4.6673,-4.6897,0.0,0.0,-4.6645,-4.6616,-4.6673,-4.6897,-4.7263,-4.7403,-4.701,-4.7235,-4.7544,0.0,0.0,0.0,0.0,0.0,0.0,0.0,0.0,-5.1237,-5.1237,0.0,-5.1237,0.0,0.0,0.0,0.0,0.0,-5.1237,0.0,0.0,-5.1237,-5.1237,-5.1237,-5.1237,-5.1237,-5.1237,-5.1237,-5.1199,-5.1129,-5.0717,0.0,0.0,0.0,0.0,0.0,0.0,-5.0717,-5.1199,-5.1167,-5.1237,-5.1237,-5.1237,-5.1237,-5.1237,-5.1237,-5.1237,-5.1199,-5.0755,-5.0525,-5.0486,-4.9781,0.0,0.0,0.0,0.0,0.0,0.0,0.0,0.0,0.0,0.0,0.0,0.0,0.0,0.0,0.0,0.0,0.0,0.0,0.0,0.0,-4.4425,0.0,0.0,0.0,0.0,0.0,0.0,0.0,0.0,0.0,0.0,-4.4425,-4.4425,-4.4425,-4.4425,0.0,0.0,0.0,0.0,-4.4453,-4.4453,-4.4959,-4.5352,-4.5352,-4.5886,-4.6279,-4.6307,0.0,0.0,-4.715,-4.7235,-4.7431,-4.7993,-4.7999,-4.7937,-4.7347,-4.7235,-4.7403,-4.7915,-4.8027,-4.8055,-4.8055,-4.7971,-4.8078,-5.1237,0.0,0.0,0.0,0.0,-5.1237,-5.1237,-5.1237,-5.1237,-5.1237,-5.1237,-5.1237,0.0,0.0,0.0,0.0,0.0,0.0,-5.1237,-5.1237,-5.1237,-5.1237,-5.1237,-5.1237,-5.1237,-5.1237,-5.1237,-5.1237,-5.1199,-5.1054,-5.0788,-5.0331,0.0,0.0,0.0,0.0,-5.0717,-5.1199,-5.1237,-5.1237,-5.1237,-5.1237,-5.1237,-5.1237,-5.1237,-5.1237,-5.1237,-5.1054,-5.0864,-5.0525,-5.0292,0.0,0.0,0.0,0.0,0.0,0.0,0.0,0.0,0.0,0.0,0.0,0.0,0.0,0.0,0.0,0.0,0.0,0.0,0.0,-4.4425,-4.4425,-4.4425,0.0,0.0,0.0,0.0,0.0,0.0,0.0,0.0,0.0,-4.4425,-4.4425,-4.4425,0.0,0.0,-4.4425,-4.4425,-4.479,-4.5024,-4.5071,0.0,0.0,0.0,-4.6167,-4.6448,-4.6869,-4.7319,-4.7656,-4.7774,-4.7802,-4.7859,-4.8055,-4.8083,-4.805,-4.7909,-4.7853,-4.7887,-4.8106,-4.8083,-4.8083,-4.8083,-4.8083,-4.8083,-5.1237,-5.1237,-5.1237,-5.1237,-5.1237,-5.1237,-5.1237,-5.1199,-5.1496,-5.1588,-5.162,-5.1912,-5.2203,-5.2462,-5.2462,0.0,0.0,0.0,-5.1588,-5.1588,-5.1297,-5.1237,-5.1237,-5.1237,-5.1237,-5.1237,-5.1237,-5.1237,-5.1237,-5.1237,-5.1054,-5.0755,0.0,0.0,-5.0755,-5.0755,-5.094,-5.1199,-5.1237,-5.1237,-5.1237,-5.1237,-5.1237,-5.1237,-5.1237,-5.1237,-5.1237,-5.1237,-5.1054,-5.0826,-5.0602,-5.0409,0.0,0.0,0.0,0.0,0.0,0.0,0.0,0.0,0.0,0.0,0.0,-4.5792,-4.5549,0.0,0.0,0.0,-4.4583,-4.4425,-4.4425,-4.4425,0.0,0.0,0.0,0.0,0.0,0.0,0.0,-4.4425,-4.4425,-4.4425,-4.4425,-4.4621,-4.4678,-4.4453,-4.4621,-4.4762,-4.4762,0.0,-4.5717,-4.5717,-4.6251,-4.6673,-4.6673,-4.6869,-4.715,-4.7516,-4.7881,-4.8055,-4.8083,-4.8083,-4.8083,-4.8083,-4.8083,-4.8083,-4.8083,-4.8083,-4.8083,-4.8083,-4.8083,-4.8083,-4.8083,-4.8083,-4.8083,-5.1297,-5.1329,-5.1361,-5.1329,-5.1302,-5.1329,-5.1361,-5.1394,-5.2009,-5.23,-5.2333,-5.3013,-5.3693,-5.4308,-5.4308,0.0,-5.3233,-5.2592,-5.2268,-5.2268,-5.1653,-5.1329,-5.1264,-5.1302,-5.1232,-5.1237,-5.1237,-5.1237,-5.1237,-5.1237,-5.1237,-5.1237,-5.1237,-5.1237,-5.1237,-5.1237,-5.1237,-5.1237,-5.1237,-5.1237,-5.1237,-5.1237,-5.1237,-5.1237,-5.1237,-5.1237,-5.1237,-5.1237,-5.1237,-5.1199,-5.0755,-5.0563,-5.0563,0.0,0.0,0.0,0.0,0.0,0.0,0.0,0.0,0.0,0.0,0.0,0.0,0.0,0.0,0.0,-4.4769,0.0,-4.4425,-4.4425,0.0,0.0,0.0,-4.4425,-4.4425,-4.4425,-4.4425,-4.4425,0.0,0.0,-4.4481,0.0,-4.508,-4.4621,-4.5043,-4.536,-4.5408,-4.5942,-4.6364,-4.6364,-4.6897,-4.7263,-4.7291,-4.7712,-4.7971,-4.7999,-4.8083,-4.8083,-4.8083,-4.8167,-4.8139,-4.8195,-4.8246,-4.8302,-4.8302,-4.8359,-4.8274,-4.8331,-4.8218,-4.8134,-4.8218,-4.8195,-4.8223,-5.23,-5.2819,-5.2819,-5.2495,-5.2009,-5.256,-5.2819,-5.2851,-5.2981,-5.3045,-5.3078,-5.32,-5.3434,-5.3563,-5.3596,-5.3499,-5.3265,-5.3142,-5.3045,-5.3045,-5.2883,-5.2495,-5.1944,-5.1977,-5.1685,-5.1237,-5.1237,-5.1237,-5.1237,-5.1237,-5.1237,-5.1237,-5.1237,-5.1237,-5.1237,-5.1237,-5.1237,-5.1237,-5.1237,-5.1237,-5.1237,-5.1237,-5.1237,-5.1237,-5.1237,-5.1237,-5.1237,-5.1237,-5.1237,-5.1167,-5.1092,-5.1016,-5.1016,-5.0292,0.0,0.0,0.0,0.0,0.0,0.0,0.0,0.0,0.0,-4.7046,-4.6344,0.0,-4.5808,0.0,-4.449,-4.4425,-4.4425,-4.4425,0.0,0.0,-4.4425,-4.4425,-4.4425,-4.4425,-4.4425,-4.4425,-4.4425,-4.4593,-4.4995,-4.5192,-4.5464,-4.5774,-4.597,-4.6055,-4.6083,-4.6588,-4.6982,-4.7038,-4.7516,-4.7909,-4.783,-4.7971,-4.8134,-4.8083,-4.8083,-4.8083,-4.8083,-4.8476,-4.8757,-4.8813,-4.923,-4.9483,-4.9483,-4.9511,-4.9511,-4.9454,-4.878,-4.8274,-4.8673,-4.8785,-4.8949,-5.2948,-5.3298,-5.3661,-5.3563,-5.3207,-5.3272,-5.3265,-5.333,-5.3661,-5.3823,-5.3783,-5.4114,-5.4204,-5.4204,-5.4244,-5.4204,-5.4204,-5.392,-5.379,-5.379,-5.3466,-5.311,-5.2689,-5.2365,-5.2009,-5.162,-5.1329,-5.1237,-5.1237,-5.1237,-5.1237,-5.1237,-5.1237,-5.1237,-5.1237,-5.1237,-5.1237,-5.1237,-5.1237,-5.1237,-5.1237,-5.1237,-5.1237,-5.1237,-5.1237,-5.1237,-5.1237,-5.1237,-5.1092,-5.0902,-5.0902,-5.0902,-5.0902,-5.0285,-5.001,0.0,0.0,0.0,0.0,0.0,0.0,0.0,0.0,0.0,0.0,0.0,-4.5913,-4.4537,-4.4425,-4.4425,-4.4425,-4.4425,-4.4425,-4.4425,-4.4425,-4.4425,-4.4425,-4.4425,-4.4537,-4.479,-4.4818,-4.5043,-4.5661,-4.5998,-4.6279,-4.6673,-4.6926,-4.701,-4.6813,-4.7235,-4.7628,-4.7628,-4.7909,-4.8083,-4.8083,-4.8348,-4.8539,-4.8527,-4.8747,-4.8939,-4.8949,-4.9202,-4.9454,-4.9483,-4.9735,-5.0013,-5.0013,-5.0013,-5.0013,-4.9928,-4.9426,-4.9117,-4.937,-4.9454,-4.9567,-5.3492,-5.3621,-5.4276,-5.4535,-5.4503,-5.3855,-5.3556,-5.3628,-5.4244,-5.4535,-5.4567,-5.515,-5.5409,-5.5409,-5.5409,-5.5409,-5.5377,-5.4826,-5.4535,-5.4503,-5.3848,-5.3492,-5.3395,-5.2786,-5.243,-5.2333,-5.162,-5.1334,-5.1297,-5.1269,-5.1237,-5.1237,-5.1237,-5.1237,-5.1237,-5.1237,-5.1237,-5.1237,-5.1237,-5.1237,-5.1237,-5.1237,-5.1237,-5.1237,-5.1237,-5.1237,-5.1237,-5.1237,-5.1016,-5.0602,-5.0525,-5.0525,-5.0486,-5.0089,-4.9821,0.0,-4.9452,0.0,0.0,0.0,0.0,0.0,0.0,0.0,0.0,-4.627,-4.5718,-4.449,-4.4425,-4.4425,-4.4425,-4.4425,-4.4425,-4.4425,-4.4425,-4.4425,-4.4425,-4.4481,-4.4734,-4.5268,-4.538,-4.5689,-4.6335,-4.6897,-4.7207,-4.7347,-4.7712,-4.7825,-4.7488,-4.7718,-4.8027,-4.8083,-4.8139,-4.828,-4.8331,-4.8759,-4.9144,-4.9197,-4.9559,-5.0001,-4.99,-5.0041,-5.0125,-5.0154,-5.0238,-5.0294,-5.0238,-5.0266,-5.0266,-5.0322,-5.0294,-5.021,-5.0154,-5.0125,-5.0154,-5.4535,-5.5021,-5.515,-5.5215,-5.5215,-5.5086,-5.498,-5.5053,-5.515,-5.5215,-5.5247,-5.5377,-5.5409,-5.5409,-5.5409,-5.5409,-5.5409,-5.528,-5.5215,-5.5215,-5.5086,-5.4729,-5.4211,-5.4049,-5.3661,-5.3078,-5.2365,-5.2009,-5.2009,-5.1459,-5.1237,-5.1237,-5.1237,-5.1237,-5.1237,0.0,0.0,0.0,-5.1237,-5.1237,-5.1237,-5.1237,-5.1237,-5.1237,-5.1237,0.0,-5.1237,-5.1237,-5.1129,-5.1054,-5.0679,0.0,0.0,0.0,0.0,0.0,0.0,0.0,0.0,0.0,0.0,0.0,-4.8521,-4.7807,-4.5882,-4.5155,-4.4676,-4.4425,-4.4425,-4.4425,-4.4425,-4.4425,-4.4425,-4.4425,-4.4425,-4.4425,-4.4425,-4.4846,-4.5164,-4.5248,-4.5774,-4.6335,-4.6954,-4.715,-4.7403,-4.7774,-4.805,-4.8078,-4.7915,-4.8021,-4.8083,-4.8111,-4.8555,-4.8785,-4.8813,-4.9408,-4.9823,-4.9816,-4.9883,-4.9995,-5.0073,-5.0491,-5.0744,-5.0772,-5.1112,-5.1421,-5.1393,-5.145,-5.1365,-5.1421,-5.1421,-5.1281,-5.0857,-5.0744,-5.0885,-5.5086,0.0,-5.5409,-5.5409,0.0,-5.5409,-5.5409,-5.5409,-5.5409,-5.5409,-5.5409,-5.5409,-5.5409,-5.5409,-5.5409,-5.5409,-5.5409,-5.5409,-5.5409,-5.5409,-5.5409,-5.5247,-5.4891,-5.4567,-5.4211,-5.3823,-5.311,-5.2754,-5.2721,-5.2041,-5.1685,-5.1685,-5.1361,-5.1237,-5.1237,-5.1237,-5.1237,-5.1237,-5.1237,-5.1237,-5.1237,-5.1237,-5.1237,-5.1237,0.0,0.0,0.0,0.0,0.0,0.0,0.0,0.0,0.0,0.0,0.0,-4.9259,-4.8883,-4.8604,-4.8604,-4.8604,-4.8313,-4.7606,-4.6915,-4.6388,-4.5987,-4.5046,-4.4425,-4.4425,-4.4425,-4.4425,-4.4425,-4.4425,-4.4425,-4.4425,-4.4678,-4.4874,-4.4931,-4.5408,-4.5914,-4.6223,-4.656,-4.6982,-4.76,-4.7656,-4.7769,-4.8027,-4.8083,-4.8083,-4.8083,-4.8083,-4.8218,-4.8476,-4.9089,-4.9483,-4.9511,-5.0001,-5.0445,-5.0488,-5.0694,-5.089,-5.0888,-5.1112,-5.1337,-5.1337,-5.159,-5.1787,-5.1787,-5.1787,-5.1787,-5.1787,-5.1787,-5.1702,-5.1365,-5.1309,-5.1393,-5.5409,-5.5409,-5.5409,-5.5409,-5.5409,-5.5409,-5.5409,-5.5409,0.0,0.0,0.0,-5.5409,-5.5409,-5.5409,-5.5409,-5.5409,-5.5409,-5.5409,-5.5409,-5.5409,-5.5409,-5.5409,-5.5377,-5.4859,-5.4567,-5.4535,-5.3855,-5.3531,-5.3466,-5.2754,-5.2398,-5.2333,-5.1847,-5.1491,-5.1361,-5.1232,-5.1237,-5.1237,-5.1237,-5.1237,-5.1237,-5.1237,-5.1237,-5.1237,-5.1237,-5.1237,-5.1237,-5.1092,-5.094,-5.064,-5.0486,-5.0292,-4.9979,-4.9541,-4.9259,-4.9259,-4.8728,-4.8438,-4.8438,-4.8313,-4.7734,-4.6579,-4.5338,-4.5018,-4.6048,-4.5064,-4.4425,-4.4425,-4.4425,-4.4453,-4.4565,-4.4593,-4.4621,-4.4734,-4.5212,-4.5493,-4.5473,-4.6055,-4.6645,-4.7122,-4.7291,-4.7544,-4.7971,-4.8055,-4.8083,-4.8083,-4.8195,-4.8359,-4.8415,-4.8415,-4.8504,-4.9066,-4.9707,-5.0154,-5.021,-5.0678,-5.1014,-5.1054,-5.145,-5.1759,-5.1787,-5.1787,-5.1787,-5.1731,-5.1787,-5.1787,-5.1787,-5.1787,-5.1787,-5.1787,-5.1787,-5.1787,-5.1787,-5.1787,-5.1759,-5.5409,-5.5409,-5.5409,-5.5409,-5.5409,-5.5409,-5.5409,-5.5409,-5.5409,-5.5409,-5.5409,-5.5409,-5.5409,-5.5409,-5.5409,-5.5409,-5.5409,-5.5409,-5.5409,0.0,-5.5409,-5.5409,-5.5409,-5.5312,-5.528,-5.5215,-5.4567,-5.4244,-5.4179,-5.3531,-5.3175,-5.3142,-5.3039,-5.2689,-5.2074,-5.1491,-5.1237,-5.1237,-5.1237,-5.1237,-5.1237,-5.1237,-5.1237,-5.1237,-5.1237,-5.1237,-5.1205,-5.0794,-5.0788,-5.1054,-5.037,-5.0097,-5.037,-4.9701,-4.9259,-4.9219,-4.8313,-4.7764,-4.7764,-4.7176,-4.6711,-4.6491,-4.5792,-4.5184,-4.4723,-4.449,-4.4425,-4.4425,-4.4453,-4.4621,-4.5052,-4.5164,-4.5408,-4.5886,-4.6083,-4.6167,-4.6167,-4.6673,-4.7094,-4.7235,-4.7684,-4.7993,-4.8055,-4.8083,-4.8134,-4.8167,-4.856,-4.9089,-4.9426,-4.9258,-4.9202,-4.9735,-5.0407,-5.0744,-5.0829,-5.1279,-5.156,-5.1646,-5.1702,-5.1787,-5.1787,-5.1787,-5.1787,-5.1787,-5.1787,-5.1787,-5.1787,-5.1787,-5.1787,-5.1787,-5.1787,-5.1787,-5.1843,-5.1871,-5.1843,-5.5409,-5.5409,-5.5409,-5.5409,-5.5409,-5.5409,-5.5409,-5.5409,-5.5409,-5.5409,-5.5409,-5.5409,-5.5409,-5.5409,-5.5409,-5.5409,-5.5409,-5.5409,-5.5409,-5.5409,-5.5409,-5.5409,-5.5409,-5.5409,-5.5409,-5.5377,-5.5118,-5.4956,-5.4891,-5.4244,-5.392,-5.3887,-5.3531,-5.3103,-5.2819,-5.2495,-5.2365,-5.2333,-5.1588,-5.1237,-5.1237,-5.1237,-5.1237,-5.1237,-5.1237,-5.1237,-5.1199,-5.0978,-5.0832,-5.0794,-5.0448,-5.0097,-4.986,-4.9501,-4.921,-4.8893,-4.8438,-4.8145,-4.8145,-4.7133,-4.6668,-4.6948,-4.601,-4.5449,-4.5456,-4.5099,-4.4931,-4.4931,-4.5212,-4.5549,-4.583,-4.5858,-4.597,-4.6251,-4.6307,-4.642,-4.6757,-4.701,-4.7347,-4.7656,-4.7887,-4.8083,-4.8083,-4.8083,-4.8223,-4.8532,-4.9145,-4.9764,-5.0354,-5.0213,-5.0129,-5.0491,-5.0972,-5.1309,-5.1365,-5.1562,-5.1759,-5.1787,-5.1787,-5.1787,-5.1787,-5.1787,-5.1787,-5.1787,-5.1787,-5.1787,-5.1787,-5.1787,-5.1787,-5.1787,-5.1787,-5.1871,-5.2152,-5.2545,-5.2574,-5.5409,-5.5409,-5.5409,-5.5409,-5.5409,-5.5409,-5.5409,-5.5409,-5.5409,-5.5409,-5.5409,-5.5409,-5.5409,-5.5409,-5.5409,-5.5409,-5.5409,-5.5409,-5.5409,-5.5409,-5.5409,-5.5409,-5.5409,-5.5409,-5.5409,-5.5409,-5.5409,-5.5409,-5.5345,-5.4891,-5.4632,-5.4535,-5.392,-5.3524,-5.3563,-5.3402,-5.3265,-5.32,-5.2074,-5.1491,-5.1653,-5.1491,-5.1426,-5.1394,-5.1189,-5.1054,-5.1016,-5.0864,-5.0672,-5.037,-5.0292,-4.9979,-4.9493,-4.9372,-4.9169,-4.8769,-4.8521,-4.8229,-4.7892,-4.6915,-4.6416,-4.6732,-4.5759,-4.5324,-4.5745,-4.5501,-4.536,-4.5549,-4.583,-4.6083,-4.6195,-4.6111,-4.6167,-4.642,-4.6504,-4.6785,-4.7291,-4.7403,-4.7572,-4.805,-4.8083,-4.8083,-4.8083,-4.8195,-4.8616,-4.9398,-4.9876,-5.0435,-5.0944,-5.1084,-5.1084,-5.1169,-5.1478,-5.1731,-5.1787,-5.1759,-5.1787,-5.1787,-5.1787,-5.1787,-5.1815,-5.1871,-5.2012,-5.204,-5.218,-5.2293,-5.2264,-5.2264,-5.2293,-5.2349,-5.2377,-5.2433,-5.2826,-5.3248,-5.336,-5.5409,-5.5409,-5.5409,-5.5409,-5.5409,-5.5409,-5.5409,-5.5409,-5.5409,-5.5409,-5.5409,-5.5409,-5.5409,-5.5409,-5.5409,-5.5409,-5.5409,-5.5409,-5.5409,-5.5409,-5.5409,-5.5409,-5.5409,-5.5409,-5.5409,-5.5409,-5.5409,-5.5409,-5.5409,-5.5312,-5.5312,-5.5247,-5.4632,-5.4308,-5.4244,-5.3661,-5.3298,-5.3265,-5.2527,-5.243,-5.3045,-5.2462,-5.2106,-5.2106,-5.1077,-5.0563,-5.0563,-4.986,-4.9622,-4.9892,-4.9622,-4.9573,-4.9773,-4.9493,-4.9291,-4.921,-4.8271,-4.7133,-4.6016,-4.5685,-4.5441,-4.4733,-4.4724,-4.464,-4.4706,-4.5099,-4.5577,-4.597,-4.5717,-4.5745,-4.6167,-4.583,-4.6026,-4.6954,-4.7066,-4.7375,-4.7802,-4.805,-4.7999,-4.8055,-4.8162,-4.8083,-4.8195,-4.8616,-4.9374,-5.0382,-5.0635,-5.0944,-5.1478,-5.159,-5.1618,-5.1646,-5.1759,-5.1759,-5.1787,-5.1787,-5.1815,-5.1815,-5.1815,-5.1899,-5.204,-5.2349,-5.2602,-5.2686,-5.3023,-5.3332,-5.3416,-5.3557,-5.3473,-5.3248,-5.3304,-5.3501,-5.3585,-5.3726,-5.3669,-5.5409,-5.5409,-5.5409,-5.5409,-5.5409,-5.5409,-5.5409,-5.5409,-5.5409,-5.5409,-5.5409,-5.5409,-5.5409,-5.5409,-5.5409,-5.5409,-5.5409,-5.5409,-5.5409,-5.5409,-5.5409,-5.5409,-5.5409,-5.5409,-5.5409,-5.5409,-5.5409,-5.5409,-5.5409,-5.5409,-5.5409,-5.5377,-5.5118,-5.4988,-5.4988,-5.4697,-5.4373,-5.3952,-5.3661,-5.3466,-5.3168,-5.2171,-5.1588,-5.1518,-5.0916,-5.0525,-5.0448,-4.9939,-4.9653,-4.9573,-4.9381,-4.925,-4.9138,-4.8975,-4.8893,-4.8852,-4.848,-4.7976,-4.7379,-4.6989,-4.6742,-4.6783,-4.6022,-4.5684,-4.6082,-4.5986,-4.6026,-4.6195,-4.6055,-4.6026,-4.6251,-4.6364,-4.6673,-4.7122,-4.7207,-4.7459,-4.7999,-4.7797,-4.7712,-4.8027,-4.8443,-4.8616,-4.8757,-4.9511,-5.0269,-5.0859,-5.114,-5.1506,-5.1759,-5.1787,-5.1787,-5.1787,-5.1787,-5.1787,-5.1787,-5.1787,-5.1927,-5.2236,-5.2322,-5.2406,-5.2826,-5.3051,-5.3276,-5.3276,-5.3585,-5.3782,-5.367,-5.3726,-5.3726,-5.3782,-5.4063,-5.4203,-5.426,-5.4512,-5.4709,-5.5409,-5.5409,-5.5409,-5.5409,-5.5409,-5.5409,-5.5409,-5.5409,-5.5409,-5.5409,-5.5409,-5.5409,-5.5409,-5.5409,-5.5409,-5.5409,-5.5409,-5.5409,-5.5409,-5.5409,-5.5409,-5.5409,-5.5409,-5.5409,-5.5409,-5.5409,-5.5409,-5.5409,-5.5409,-5.5409,-5.5409,-5.5409,-5.5409,-5.5312,-5.515,-5.5118,-5.4794,-5.4146,-5.392,-5.3531,-5.2916,-5.1815,-5.1264,-5.1388,-5.0737,-5.0331,-5.0331,-4.9821,-4.9381,-4.9138,-4.9097,-4.8965,-4.8604,-4.8604,-4.8604,-4.8604,-4.8604,-4.8396,-4.803,-4.7563,-4.7342,-4.7274,-4.6396,-4.6042,-4.6329,-4.6203,-4.6026,-4.6026,-4.6195,-4.6279,-4.6335,-4.6701,-4.701,-4.7178,-4.7207,-4.7459,-4.7943,-4.7684,-4.774,-4.8302,-4.8701,-4.915,-4.9567,-5.0297,-5.0888,-5.114,-5.1506,-5.1787,-5.1787,-5.1787,-5.1815,-5.2012,-5.204,-5.204,-5.204,-5.2124,-5.2349,-5.277,-5.3023,-5.3164,-5.3669,-5.3726,-5.3922,-5.3922,-5.4007,-5.4203,-5.44,-5.4373,-5.4204,-5.4259,-5.4512,-5.4793,-5.485,-5.5243,-5.5412,-5.5409,-5.5409,-5.5409,-5.5409,-5.5409,-5.5409,-5.5409,-5.5409,-5.5409,-5.5409,-5.5409,-5.545,-5.5409,-5.545,-5.5491,-5.5409,-5.5409,-5.5409,-5.5409,-5.5409,-5.5409,-5.5409,-5.5409,-5.5409,-5.5409,-5.5409,-5.5409,-5.5409,-5.5409,-5.5409,-5.5409,-5.5409,-5.5409,-5.5086,-5.4665,-5.46,-5.4114,-5.3563,-5.2948,-5.2398,-5.2268,-5.162,-5.155,-5.1926,-5.0721,-4.9939,-4.9821,-4.9097,-4.8646,-4.8646,-4.8646,-4.8604,-4.8604,-4.8604,-4.8604,-4.8604,-4.8604,-4.803,-4.6973,-4.6711,-4.624,-4.5086,-4.5014,-4.4631,-4.5082,-4.5391,-4.5549,-4.536,-4.6055,-4.6364,-4.6364,-4.6504,-4.6701,-4.715,-4.7235,-4.7544,-4.8106,-4.8162,-4.8336,-4.8813,-4.9094,-4.9651,-5.0607,-5.0831,-5.1169,-5.1506,-5.1759,-5.1787,-5.1787,-5.1787,-5.2068,-5.2433,-5.263,-5.2686,-5.2686,-5.2658,-5.2967,-5.3388,-5.3669,-5.3724,-5.3893,-5.4063,-5.4344,-5.4625,-5.4878,-5.5131,-5.5327,-5.5355,-5.5243,-5.5215,-5.5159,-5.5327,-5.5243,-5.5383,-5.5379,-5.5409,-5.5409,-5.5409,-5.5409,-5.5409,-5.5409,-5.5409,-5.5409,-5.5409,-5.5409,-5.5491,-5.5781,-5.5981,-5.5981,-5.6381,-5.6139,-5.545,-5.5409,-5.5409,-5.5409,-5.5409,-5.5409,-5.5409,-5.5409,-5.5409,-5.5409,-5.5409,-5.5409,-5.5409,-5.5409,-5.5409,-5.5409,-5.5409,-5.528,-5.5086,-5.5053,-5.4697,-5.4049,-5.3725,-5.3212,-5.2491,-5.2195,-5.2076,-5.1925,-5.066,-4.99,-4.99,-4.9056,-4.8604,-4.8604,-4.8604,-4.8604,-4.8604,-4.8604,-4.8604,-4.8604,-4.8604,-4.8396,-4.7861,-4.7435,-4.7181,-4.6991,-4.6172,-4.5816,-4.6139,-4.609,-4.5942,-4.6055,-4.6504,-4.6869,-4.6869,-4.6869,-4.6954,-4.7207,-4.7572,-4.805,-4.8476,-4.8673,-4.8897,-4.9539,-4.9932,-5.055,-5.114,-5.145,-5.1534,-5.1731,-5.1787,-5.1787,-5.1843,-5.2096,-5.2433,-5.2714,-5.3051,-5.3473,-5.3894,-5.3557,-5.3557,-5.4007,-5.4286,-5.4539,-5.4737,-5.4821,-5.5074,-5.5046,-5.5412,-5.5468,-5.5468,-5.5468,-5.5496,-5.5496,-5.5496,-5.5496,-5.5496,-5.532,-5.4939,-5.5409,-5.5409,-5.5409,-5.5409,-5.5409,-5.5409,-5.5531,-5.5653,-5.5491,-5.5612,-5.5981,-5.6224,-5.6381,-5.6614,-5.7034,-5.6806,-5.602,-5.5981,-5.5861,-5.5701,-5.5693,-5.5661,-5.562,-5.5491,-5.5409,-5.5409,-5.5409,-5.5409,-5.5409,-5.5409,-5.5409,-5.5409,-5.5409,-5.5312,-5.515,-5.5086,-5.4762,-5.4179,-5.4049,-5.3599,-5.2901,-5.2677,-5.2475,-5.1991,-5.0988,-5.0353,-5.0322,-4.9657,-4.9281,-4.9281,-4.9281,-4.9281,-4.9281,-4.9281,-4.9281,-4.9281,-4.9312,-4.9155,-4.8913,-4.8486,-4.8189,-4.809,-4.7316,-4.685,-4.6967,-4.674,-4.6637,-4.6701,-4.7122,-4.7544,-4.774,-4.7797,-4.7797,-4.7853,-4.819,-4.8668,-4.923,-4.9342,-4.9623,-5.0185,-5.0775,-5.1309,-5.1674,-5.1759,-5.1759,-5.1787,-5.1787,-5.1815,-5.2096,-5.2405,-5.2911,-5.3248,-5.3697,-5.4203,-5.4597,-5.4512,-5.4372,-5.4737,-5.4821,-5.5131,-5.5271,-5.544,-5.5496,-5.5496,-5.5496,-5.5496,-5.5496,-5.5496,-5.5496,-5.5496,-5.5496,-5.5496,-5.532,-5.4998,-5.4497,-5.5409,-5.5409,-5.5409,-5.5409,-5.5409,-5.5491,-5.5781,-5.61,-5.5741,-5.6139,-5.6882,-5.6614,-5.6768,-5.7147,-5.7338,-5.726,-5.7147,-5.7185,-5.6849,-5.6342,-5.6224,-5.6224,-5.6218,-5.5653,-5.5409,-5.5409,-5.5409,-5.5409,-5.5409,-5.5409,-5.5409,-5.5409,-5.5409,-5.515,-5.447,-5.46,-5.4179,-5.3758,-5.3621,-5.3492,-5.3291,-5.295,-5.2667,-5.2554,-5.1727,-5.135,-5.1276,-5.0863,-5.0513,-5.0543,-5.0574,-5.0667,-5.0513,-5.0513,-5.0605,-5.0513,-5.0605,-5.0302,-4.9714,-4.9521,-4.8805,-4.8114,-4.7536,-4.7196,-4.7113,-4.7137,-4.7347,-4.7516,-4.7909,-4.8387,-4.8864,-4.8949,-4.8949,-4.8981,-4.9033,-4.9314,-4.9792,-5.0041,-5.0266,-5.0857,-5.1365,-5.1731,-5.1787,-5.1787,-5.1787,-5.1787,-5.1871,-5.2068,-5.2517,-5.2826,-5.336,-5.4119,-5.4512,-5.4793,-5.5187,-5.5468,-5.544,-5.544,-5.5355,-5.544,-5.5412,-5.5496,-5.5496,-5.5496,-5.5496,-5.5496,-5.5496,-5.5496,-5.5496,-5.5496,-5.5496,-5.5524,-5.532,-5.488,-5.3872,-5.5409,-5.5409,-5.5409,-5.5409,-5.545,-5.5821,-5.6179,-5.6303,-5.6498,-5.6882,-5.7222,-5.7446,-5.7668,-5.7887,-5.821,-5.8174,-5.7887,-5.8209,-5.7887,-5.6996,-5.6498,-5.6303,-5.6185,-5.5661,-5.5409,-5.5409,-5.5409,-5.5409,-5.5409,-5.5409,-5.5409,-5.5409,-5.5409,-5.5312,-5.5086,-5.5086,-5.4956,-5.4826,-5.4762,-5.46,-5.4315,-5.3869,-5.3492,-5.311,-5.258,-5.226,-5.2198,-5.1277,-5.0728,-5.0728,-5.0697,-5.0697,-5.0697,-5.0697,-5.0697,-5.0697,-5.0697,-5.0654,-5.0363,-4.9924,-4.9689,-4.9321,-4.8646,-4.847,-4.8795,-4.8607,-4.8691,-4.8977,-4.9286,-4.9511,-4.9623,-4.9732,-4.9679,-4.9679,-4.9679,-4.9932,-5.0547,-5.0916,-5.1253,-5.145,-5.1674,-5.1787,-5.1787,-5.1787,-5.1843,-5.1871,-5.2152,-5.2545,-5.277,-5.3473,-5.4007,-5.454,-5.4878,-5.5187,-5.5383,-5.5496,-5.5496,-5.5496,-5.5496,-5.5496,-5.5496,-5.5496,-5.5496,-5.5496,-5.5496,-5.5496,-5.5496,-5.5496,-5.5496,-5.5524,-5.5552,-5.5465,-5.5407,-5.4607,-5.3599,-5.5531,-5.5701,-5.5774,-5.5861,-5.61,-5.6498,-5.6768,-5.6958,-5.711,-5.7446,-5.785,-5.7995,-5.821,-5.8492,-5.884,-5.8771,-5.8492,-5.8806,-5.8597,-5.7814,-5.6996,-5.6652,-5.6498,-5.5741,-5.5409,-5.5409,-5.5409,-5.5409,-5.5409,-5.5409,-5.5409,-5.5409,-5.5409,-5.5409,-5.5409,-5.5409,-5.5409,-5.5409,-5.5377,-5.5287,-5.4998,-5.4581,-5.42,-5.3899,-5.329,-5.2966,-5.2905,-5.1955,-5.1436,-5.1436,-5.1436,-5.1436,-5.1436,-5.1467,-5.1436,-5.1436,-5.1467,-5.1467,-5.1423,-5.1344,-5.1092,-5.1118,-5.0639,-5.0291,-5.0522,-5.0013,-4.9983,-4.9981,-4.9957,-5.0097,-5.0294,-5.035,-5.0435,-5.0688,-5.0491,-5.0607,-5.114,-5.1534,-5.1731,-5.1759,-5.1787,-5.1787,-5.1787,-5.2068,-5.2096,-5.2208,-5.2658,-5.322,-5.3445,-5.4091,-5.4484,-5.485,-5.5187,-5.5383,-5.5468,-5.5496,-5.5496,-5.5496,-5.5496,-5.5496,-5.5496,-5.5496,-5.5496,-5.5496,-5.5496,-5.5496,-5.5496,-5.5496,-5.5496,-5.5552,-5.5662,-5.542,-5.5201,-5.4209,-5.3164,-5.5781,-5.6264,-5.6342,-5.6652,-5.711,-5.7189,-5.752,-5.7887,-5.7631,-5.7959,-5.8667,-5.8422,-5.8492,-5.8909,-5.8978,-5.8944,-5.8978,-5.8978,-5.8978,-5.8562,-5.7741,-5.7034,-5.6691,-5.5821,-5.5409,-5.5409,-5.5409,-5.5409,-5.5409,-5.5409,-5.5409,-5.5409,-5.5409,-5.5409,-5.5409,-5.5409,-5.5409,-5.5409,-5.5409,-5.5369,-5.5328,-5.4989,-5.4749,-5.4665,-5.3813,-5.3334,-5.3258,-5.2767,-5.2575,-5.2667,-5.2544,-5.2513,-5.2637,-5.2698,-5.2575,-5.2637,-5.2729,-5.276,-5.2914,-5.3161,-5.3269,-5.2772,-5.2738,-5.2979,-5.1606,-5.1104,-5.0701,-5.0347,-5.0294,-5.0435,-5.0885,-5.0916,-5.114,-5.1562,-5.1197,-5.1197,-5.1646,-5.1787,-5.1787,-5.1787,-5.1787,-5.1815,-5.1899,-5.2349,-5.2602,-5.2883,-5.3304,-5.3866,-5.4259,-5.4597,-5.4906,-5.5187,-5.5412,-5.5468,-5.5496,-5.5496,-5.5496,-5.5496,-5.5524,-5.5524,-5.5524,-5.5524,-5.5496,-5.5496,-5.5693,-5.5636,-5.5693,-5.5833,-5.5917,-5.6058,-5.5929,-5.5562,-5.4876,-5.4012,-5.2787,-5.6179,-5.6375,-5.6768,-5.7072,-5.726,-5.7668,-5.7959,-5.8139,-5.8422,-5.8632,-5.8944,-5.884,-5.884,-5.8978,-5.9012,-5.9012,-5.9012,-5.9012,-5.9012,-5.8806,-5.7777,-5.6691,-5.602,-5.558,-5.5409,-5.5409,-5.5409,-5.5409,-5.5409,-5.5409,-5.5409,-5.5409,-5.5409,-5.5409,-5.5409,-5.5409,-5.5409,-5.5409,-5.5409,-5.5369,-5.5328,-5.4957,-5.4822,-5.4707,-5.3899,-5.3421,-5.3334,-5.2966,-5.2729,-5.2729,-5.2729,-5.2729,-5.276,-5.276,-5.2975,-5.3375,-5.3468,-5.3683,-5.4037,-5.433,-5.4313,-5.4079,-5.3387,-5.2684,-5.2784,-5.1661,-5.1205,-5.1169,-5.1309,-5.1337,-5.1506,-5.1506,-5.1618,-5.1731,-5.159,-5.1562,-5.1731,-5.1787,-5.1787,-5.1787,-5.1787,-5.2012,-5.2349,-5.2658,-5.2967,-5.3388,-5.3922,-5.44,-5.4709,-5.499,-5.5271,-5.5327,-5.5496,-5.5496,-5.5496,-5.5496,-5.5496,-5.5496,-5.5524,-5.5552,-5.558,-5.558,-5.5552,-5.5496,-5.6086,-5.6226,-5.6395,-5.6592,-5.6648,-5.662,-5.6512,-5.6254,-5.5119,-5.416,-5.2738,-5.6575,-5.7072,-5.7446,-5.7741,-5.7959,-5.8317,-5.8492,-5.8527,-5.884,-5.9012,-5.9012,-5.9012,-5.9012,-5.9012,-5.9012,-5.9012,-5.9012,-5.9012,-5.9012,-5.8771,-5.7777,-5.6575,-5.5693,-5.5409,-5.5409,-5.5409,-5.5409,-5.5409,-5.5409,-5.5409,-5.5409,-5.5409,-5.5409,-5.5409,-5.5409,-5.5409,-5.5409,-5.5369,-5.5246,-5.5122,-5.5122,-5.4707,-5.4528,-5.437,-5.377,-5.3334,-5.31,-5.2833,-5.2729,-5.2729,-5.2729,-5.2852,-5.3129,-5.316,-5.3437,-5.4037,-5.4099,-5.433,-5.4621,-5.4898,-5.4941,-5.4622,-5.3841,-5.3503,-5.3114,-5.2239,-5.1935,-5.1729,-5.1787,-5.1787,-5.1787,-5.1787,-5.1787,-5.1787,-5.1787,-5.1787,-5.1787,-5.1787,-5.1787,-5.1843,-5.2012,-5.2264,-5.2714,-5.3135,-5.3613,-5.4063,-5.4597,-5.485,-5.5046,-5.5327,-5.5496,-5.5496,-5.5496,-5.5496,-5.5496,-5.5496,-5.558,-5.558,-5.5917,-5.5889,-5.5973,-5.5973,-5.6058,-5.6198,-5.6592,-5.6873,-5.7013,-5.7126,-5.7097,-5.7121,-5.7154,-5.6369,-5.4995,-5.3985,-5.2664,-5.711,-5.8103,-5.8139,-5.8492,-5.8909,-5.8978,-5.8944,-5.8978,-5.8978,-5.9012,-5.9012,-5.9012,-5.9012,-5.9012,-5.9012,-5.9012,-5.9012,-5.9012,-5.8806,-5.8457,-5.7631,-5.6536,-5.5531,-5.5409,-5.5409,-5.5409,-5.5409,-5.5409,-5.5409,-5.5409,-5.5409,-5.5409,-5.5409,-5.5409,-5.5409,-5.5409,-5.5369,-5.5246,-5.5031,-5.479,-5.4665,-5.4401,-5.4231,-5.4103,-5.3683,-5.3188,-5.2877,-5.2729,-5.2729,-5.2729,-5.276,-5.3129,-5.3607,-5.3745,-5.4129,-5.4621,-5.4775,-5.4884,-5.5037,-5.5592,-5.5472,-5.4903,-5.506,-5.4735,-5.3355,-5.2669,-5.2352,-5.1813,-5.1787,-5.1787,-5.1787,-5.1787,-5.1787,-5.1815,-5.1815,-5.1899,-5.1899,-5.1899,-5.1871,-5.1927,-5.2433,-5.2742,-5.3164,-5.3782,-5.4597,-5.4625,-5.5074,-5.5187,-5.5271,-5.5412,-5.5496,-5.5496,-5.5496,-5.5496,-5.5496,-5.5496,-5.5636,-5.5749,-5.6339,-5.6564,-5.676,-5.6816,-5.6901,-5.7069,-5.7238,-5.7378,-5.7519,-5.7547,-5.7571,-5.7249,-5.7051,-5.5778,-5.4315,-5.3613,-5.2505,-5.785,-5.8139,-5.8597,-5.8875,-5.8978,-5.9012,-5.9012,-5.9012,-5.9012,-5.9012,-5.9012,-5.9012,-5.9012,-5.9012,-5.9012,-5.9012,-5.9012,-5.8944,-5.8562,-5.7557,-5.7409,-5.6498,-5.562,-5.545,-5.5409,-5.5409,-5.5409,-5.5409,-5.5409,-5.5409,-5.5409,-5.5409,-5.5409,-5.5409,-5.5409,-5.5369,-5.5205,-5.4957,-5.4822,-5.4571,-5.4242,-5.4103,-5.4017,-5.3974,-5.3596,-5.3188,-5.2788,-5.2729,-5.2729,-5.2821,-5.3191,-5.3484,-5.3745,-5.4145,-5.4699,-5.5175,-5.539,-5.5636,-5.6207,-5.6217,-5.6176,-5.518,-5.4666,-5.4119,-5.3126,-5.2408,-5.2059,-5.1787,-5.1787,-5.1787,-5.1787,-5.1787,-5.1843,-5.1955,-5.2264,-5.2517,-5.2517,-5.2489,-5.2489,-5.263,-5.3079,-5.3641,-5.4063,-5.4259,-5.4821,-5.5187,-5.5355,-5.5468,-5.5496,-5.5496,-5.5496,-5.5496,-5.5496,-5.5552,-5.5777,-5.5889,-5.6198,-5.6367,-5.6873,-5.735,-5.7547,-5.7575,-5.7631,-5.7688,-5.78,-5.7879,-5.7774,-5.811,-5.8125,-5.7575,-5.6685,-5.5234,-5.3896,-5.3207,-5.2391,-5.8587,-5.8597,-5.9254,-5.9357,-5.9047,-5.9012,-5.9012,-5.9012,-5.9012,-5.9012,-5.9012,-5.9012,-5.9012,-5.9012,-5.9012,-5.9012,-5.9012,-5.8978,-5.8527,-5.7814,-5.7594,-5.6958,-5.606,-5.5781,-5.5701,-5.5491,-5.5409,-5.5409,-5.5409,-5.5409,-5.5409,-5.5409,-5.5409,-5.5409,-5.5328,-5.5205,-5.4998,-5.4707,-5.4327,-5.3985,-5.377,-5.354,-5.3452,-5.3452,-5.3188,-5.2922,-5.2698,-5.2729,-5.2729,-5.2883,-5.3345,-5.3714,-5.3745,-5.4037,-5.4699,-5.5452,-5.5302,-5.5493,-5.5932,-5.58,-5.519,-5.4479,-5.3912,-5.3285,-5.2648,-5.2004,-5.1841,-5.1787,-5.1787,-5.1787,-5.1815,-5.2124,-5.218,-5.2349,-5.277,-5.3135,-5.3164,-5.3135,-5.3164,-5.3276,-5.3726,-5.4119,-5.4484,-5.4765,-5.5018,-5.5383,-5.5412,-5.5496,-5.5496,-5.5496,-5.5496,-5.5496,-5.5496,-5.5636,-5.5973,-5.6367,-5.6901,-5.721,-5.7631,-5.8109,-5.8446,-5.839,-5.8306,-5.8362,-5.8418,-5.7938,-5.7917,-5.8277,-5.7825,-5.644,-5.5182,-5.4288,-5.3326,-5.2347,-5.1677,-5.9282,-5.9081,-5.9875,-5.9737,-5.9081,-5.9012,-5.9012,-5.9012,-5.9012,-5.9012,-5.9012,-5.9012,-5.9012,-5.9012,-5.9012,-5.9012,-5.9012,-5.8978,-5.8597,-5.8067,-5.7814,-5.7185,-5.6381,-5.606,-5.5781,-5.5409,-5.5409,-5.5409,-5.5409,-5.5409,-5.5409,-5.5409,-5.5409,-5.5328,-5.5205,-5.4998,-5.4665,-5.4412,-5.3856,-5.3421,-5.3321,-5.2966,-5.2833,-5.2788,-5.2788,-5.2743,-5.2698,-5.2729,-5.2729,-5.276,-5.3207,-5.3453,-5.3545,-5.3853,-5.4268,-5.5499,-5.4944,-5.4965,-5.5213,-5.484,-5.4119,-5.314,-5.3045,-5.2648,-5.203,-5.1841,-5.1787,-5.1843,-5.1899,-5.2068,-5.2096,-5.2545,-5.2826,-5.2967,-5.3416,-5.381,-5.3895,-5.3866,-5.3978,-5.3894,-5.4316,-5.4765,-5.4934,-5.5131,-5.5355,-5.5496,-5.5496,-5.5496,-5.5496,-5.5524,-5.5524,-5.5664,-5.5721,-5.6114,-5.6507,-5.7013,-5.7519,-5.78,-5.825,-5.8615,-5.9036,-5.8924,-5.8783,-5.8952,-5.8877,-5.8313,-5.7715,-5.7578,-5.6742,-5.5049,-5.3978,-5.3258,-5.2416,-5.1492,-5.1025,-5.9667,-5.9081,-5.9875,-5.9737,-5.9081,-5.9012,-5.9012,-5.9012,-5.9012,-5.9012,-5.9012,-5.9012,-5.9012,-5.9012,-5.9012,-5.9012,-5.9012,-5.8978,-5.8702,-5.8139,-5.7741,-5.7034,-5.6498,-5.5981,-5.558,-5.545,-5.5409,-5.5409,-5.5409,-5.5409,-5.5409,-5.5409,-5.5409,-5.5287,-5.504,-5.4822,-5.437,-5.3942,-5.3509,-5.3233,-5.2922,-5.2819,-5.2729,-5.2729,-5.2729,-5.2729,-5.2729,-5.2729,-5.2729,-5.2729,-5.2821,-5.2914,-5.3221,-5.396,-5.4607,-5.479,-5.4694,-5.464,-5.4752,-5.4556,-5.4032,-5.3443,-5.2995,-5.2594,-5.203,-5.1843,-5.1927,-5.2068,-5.2377,-5.2742,-5.3304,-5.3416,-5.3473,-5.3641,-5.4007,-5.4428,-5.4512,-5.4709,-5.4821,-5.4569,-5.4962,-5.5271,-5.5299,-5.5327,-5.5412,-5.5496,-5.5496,-5.5496,-5.5496,-5.5524,-5.5552,-5.5749,-5.5973,-5.6535,-5.7126,-5.7688,-5.8193,-5.8306,-5.8615,-5.8868,-5.9149,-5.9177,-5.9205,-5.9205,-5.8955,-5.8396,-5.7861,-5.7092,-5.5472,-5.3733,-5.301,-5.2416,-5.1677,-5.1025,-5.0978,-6.0082,-5.915,-6.0254,-6.0082,-5.9116,-5.9012,-5.9012,-5.9012,-5.9012,-5.9012,-5.9012,-5.9012,-5.9012,-5.9012,-5.9012,-5.9012,-5.9047,-5.8978,-5.8806,-5.8457,-5.7923,-5.7335,-5.6757,-5.6172,-5.5701,-5.5491,-5.5409,-5.5409,-5.5409,-5.5409,-5.5409,-5.5409,-5.5409,-5.5287,-5.4998,-5.4655,-5.4242,-5.3714,-5.3321,-5.2966,-5.2729,-5.2729,-5.2729,-5.2729,-5.2729,-5.2729,-5.2729,-5.2729,-5.2729,-5.279,-5.3037,-5.3191,-5.3529,-5.4052,-5.4683,-5.4667,-5.4354,-5.4231,-5.4307,-5.4039,-5.3318,-5.2646,-5.2427,-5.2247,-5.2035,-5.2068,-5.2377,-5.2742,-5.2911,-5.3332,-5.367,-5.395,-5.4119,-5.4231,-5.4681,-5.4962,-5.5102,-5.5355,-5.5243,-5.5046,-5.5243,-5.5412,-5.544,-5.5468,-5.5496,-5.5496,-5.5496,-5.5524,-5.5552,-5.5608,-5.5693,-5.6283,-5.6648,-5.7238,-5.7772,-5.8221,-5.8615,-5.8755,-5.8868,-5.9121,-5.9205,-5.9205,-5.9205,-5.9205,-5.8829,-5.8297,-5.6871,-5.567,-5.4004,-5.2598,-5.1956,-5.1422,-5.1025,-5.0696,-5.0696,-6.0496,-5.9357,-6.0737,-6.0496,-5.9357,-5.9081,-5.9012,-5.9012,-5.9012,-5.915,-5.9254,-5.9288,-5.9392,-5.9461,-5.953,-5.953,-5.9461,-5.953,-5.946,-5.9145,-5.8679,-5.8062,-5.7463,-5.6882,-5.6409,-5.6131,-5.5766,-5.5539,-5.5409,-5.5409,-5.5409,-5.5409,-5.5409,-5.5328,-5.5122,-5.4528,-5.4189,-5.3714,-5.3188,-5.2729,-5.2729,-5.2729,-5.2729,-5.2729,-5.2729,-5.276,-5.2975,-5.3006,-5.3129,-5.3345,-5.3652,-5.3883,-5.4022,-5.4406,-5.4745,-5.4712,-5.4005,-5.3852,-5.3781,-5.3279,-5.2646,-5.2063,-5.2004,-5.201,-5.2152,-5.2602,-5.3135,-5.3697,-5.3866,-5.3978,-5.4288,-5.4512,-5.4737,-5.485,-5.5159,-5.5496,-5.544,-5.5468,-5.5468,-5.5412,-5.5496,-5.5496,-5.5496,-5.5496,-5.5496,-5.5496,-5.5496,-5.5777,-5.5805,-5.5861,-5.6114,-5.6901,-5.7491,-5.8025,-5.8446,-5.8727,-5.8952,-5.9008,-5.9064,-5.9177,-5.9205,-5.9205,-5.9142,-5.908,-5.8487,-5.7761,-5.6064,-5.4582,-5.353,-5.2416,-5.1306,-5.0696,-5.0696,-5.0696,-5.0696,-6.0806,-6.0116,-6.0944,-6.084,-6.0013,-5.9392,-5.9047,-5.9081,-5.915,-5.9426,-6.0047,-6.0082,-6.0392,-6.0737,-6.0875,-6.0944,-6.0944,-6.07,-6.0383,-5.9916,-5.9317,-5.8736,-5.8269,-5.7738,-5.7182,-5.6737,-5.6413,-5.6025,-5.5571,-5.5409,-5.5409,-5.5409,-5.5369,-5.5278,-5.4915,-5.4401,-5.3931,-5.3465,-5.2966,-5.2729,-5.2729,-5.276,-5.279,-5.279,-5.2883,-5.3098,-5.3484,-5.3576,-5.3806,-5.4283,-5.4514,-5.456,-5.4591,-5.4621,-5.5068,-5.4986,-5.4435,-5.3525,-5.3565,-5.3092,-5.2531,-5.2366,-5.2448,-5.2572,-5.2854,-5.322,-5.381,-5.44,-5.4484,-5.4653,-5.4962,-5.5271,-5.5383,-5.5355,-5.5383,-5.5496,-5.5496,-5.5496,-5.5496,-5.5496,-5.5496,-5.5496,-5.5496,-5.5496,-5.5496,-5.5496,-5.558,-5.5861,-5.617,-5.6311,-5.662,-5.7435,-5.7997,-5.8531,-5.8755,-5.9064,-5.9149,-5.9205,-5.9205,-5.9205,-5.9205,-5.9142,-5.9017,-5.8802,-5.8143,-5.6936,-5.5181,-5.391,-5.3215,-5.2208,-5.1049,-5.0696,-5.0696,-5.0696,-5.0696,-6.0875,-6.0289,-6.1461,-6.153,-6.0806,-6.0427,-6.0323,-6.0289,-6.0323,-6.0496,-6.0771,-6.0806,-6.1013,-6.1358,-6.1323,-6.1289,-6.1218,-6.1071,-6.0674,-6.0227,-5.9499,-5.8793,-5.8297,-5.7534,-5.6964,-5.6899,-5.6316,-5.5733,-5.5442,-5.5409,-5.5409,-5.5369,-5.5369,-5.5205,-5.4749,-5.4285,-5.3856,-5.3421,-5.2966,-5.2729,-5.279,-5.3067,-5.3283,-5.3283,-5.3576,-5.3914,-5.4129,-5.4252,-5.4345,-5.4745,-5.5007,-5.5284,-5.5407,-5.5622,-5.6053,-5.6159,-5.5724,-5.49,-5.414,-5.3811,-5.3495,-5.3202,-5.3266,-5.3416,-5.3726,-5.4007,-5.4456,-5.5046,-5.5102,-5.5243,-5.5412,-5.5496,-5.5496,-5.5496,-5.5496,-5.5496,-5.5496,-5.5496,-5.5496,-5.5496,-5.5524,-5.5552,-5.558,-5.5608,-5.5636,-5.5664,-5.5861,-5.6198,-5.6676,-5.7154,-5.7519,-5.8025,-5.8502,-5.8924,-5.9036,-5.9177,-5.9177,-5.9205,-5.9205,-5.9205,-5.9205,-5.9142,-5.8802,-5.827,-5.7542,-5.6129,-5.4314,-5.3462,-5.2804,-5.1816,-5.0696,-5.0696,-5.0696,-5.0696,-5.0696,-6.0978,-6.0599,-6.191,-6.2151,-6.1565,-6.1392,-6.1289,-6.1289,-6.1254,-6.1392,-6.1634,-6.1772,-6.191,-6.1875,-6.1979,-6.1975,-6.1657,-6.1294,-6.0996,-6.043,-5.981,-5.929,-5.8717,-5.7697,-5.7061,-5.6737,-5.6251,-5.5863,-5.5692,-5.5416,-5.5205,-5.5246,-5.5164,-5.4957,-5.4581,-5.4146,-5.3734,-5.353,-5.3388,-5.3345,-5.3406,-5.3699,-5.3929,-5.4068,-5.4375,-5.4745,-5.4945,-5.4976,-5.4976,-5.5407,-5.5715,-5.5961,-5.6053,-5.633,-5.673,-5.6897,-5.6713,-5.6113,-5.5256,-5.4791,-5.4711,-5.4268,-5.409,-5.4119,-5.4653,-5.4821,-5.4934,-5.5412,-5.544,-5.544,-5.5496,-5.5496,-5.5496,-5.5496,-5.5496,-5.5496,-5.5496,-5.5496,-5.5496,-5.5496,-5.5552,-5.5693,-5.5721,-5.5777,-5.5805,-5.5833,-5.6114,-5.6535,-5.7154,-5.7856,-5.8221,-5.8587,-5.8783,-5.9093,-5.9149,-5.9205,-5.9205,-5.9205,-5.9205,-5.9142,-5.908,-5.8613,-5.8079,-5.7478,-5.6742,-5.5207,-5.3394,-5.2916,-5.2391,-5.1422,-5.0696,-5.0696,-5.0696,-5.0696,-5.0696,-6.1289,-6.1289,-6.2151,-6.2496,-6.2358,-6.1599,-6.1358,-6.1496,-6.1427,-6.1806,-6.2461,-6.3013,-6.322,-6.3324,-6.3149,-6.2927,-6.2506,-6.3134,-6.2332,-6.1672,-6.1361,-6.024,-5.921,-5.8307,-5.7838,-5.7288,-5.6575,-5.6316,-5.6159,-5.5513,-5.514,-5.4864,-5.5047,-5.4592,-5.4304,-5.4091,-5.3837,-5.3849,-5.4052,-5.433,-5.4345,-5.4529,-5.4591,-5.4621,-5.4714,-5.4976,-5.5561,-5.5622,-5.5838,-5.633,-5.6453,-5.6686,-5.6748,-5.6871,-5.7161,-5.7377,-5.7584,-5.6937,-5.6031,-5.54,-5.4672,-5.4233,-5.4346,-5.4852,-5.5187,-5.5383,-5.5496,-5.5496,-5.5496,-5.5496,-5.5496,-5.5496,-5.5496,-5.5496,-5.5496,-5.5496,-5.5496,-5.5496,-5.5496,-5.5496,-5.5664,-5.5917,-5.6226,-5.6339,-5.6367,-5.6395,-5.6732,-5.7154,-5.7884,-5.8531,-5.8812,-5.9064,-5.9093,-5.9205,-5.9205,-5.9205,-5.9205,-5.9205,-5.9205,-5.908,-5.8955,-5.8333,-5.8016,-5.626,-5.534,-5.3936,-5.2804,-5.2347,-5.1747,-5.1095,-5.0696,-5.0696,-5.0696,-5.0696,-5.0696,-6.1323,-6.1427,-6.2634,-6.3151,-6.3151,-6.2841,-6.2703,-6.2703,-6.2703,-6.2841,-6.3151,-6.3462,-6.36,-6.36,-6.36,-6.3489,-6.3193,-6.2969,-6.2164,-6.1233,-6.051,-5.9647,-5.8573,-5.7832,-5.7126,-5.6931,-5.6608,-5.6269,-5.5953,-5.5805,-5.5629,-5.536,-5.5087,-5.5039,-5.4737,-5.4383,-5.4313,-5.4314,-5.456,-5.4683,-5.4775,-5.5161,-5.5315,-5.5315,-5.5869,-5.6053,-5.6378,-5.6361,-5.6594,-5.6717,-5.681,-5.7056,-5.7333,-5.7395,-5.7518,-5.7699,-5.7983,-5.7386,-5.6451,-5.6023,-5.5837,-5.5225,-5.548,-5.5793,-5.5526,-5.5496,-5.5496,-5.5496,-5.5496,-5.5496,-5.5496,-5.5496,-5.5496,-5.5496,-5.5524,-5.5552,-5.5636,-5.5693,-5.5889,-5.6058,-5.6198,-5.6395,-5.6704,-5.7013,-5.7013,-5.7041,-5.7407,-5.7828,-5.8502,-5.8952,-5.9121,-5.9205,-5.9205,-5.9205,-5.9205,-5.9205,-5.9205,-5.9205,-5.9205,-5.9017,-5.8829,-5.8955,-5.827,-5.6195,-5.4273,-5.3215,-5.2416,-5.1747,-5.1236,-5.0837,-5.0696,-5.0696,-5.0696,-5.0696,-5.0696,-6.1323,-6.1496,-6.2979,-6.36,-6.36,-6.36,-6.36,-6.36,-6.3565,-6.36,-6.36,-6.36,-6.36,-6.36,-6.36,-6.3417,-6.3127,-6.2734,-6.1753,-6.0869,-5.9904,-5.8799,-5.778,-5.7187,-5.6964,-5.6608,-5.656,-5.6445,-5.6221,-5.6332,-5.6068,-5.5709,-5.5416,-5.5312,-5.5052,-5.5132,-5.5007,-5.5037,-5.5253,-5.5315,-5.5468,-5.5776,-5.6023,-5.6053,-5.6471,-5.6656,-5.6717,-5.6717,-5.6748,-5.6871,-5.7056,-5.7364,-5.7703,-5.7924,-5.7942,-5.8031,-5.8016,-5.7684,-5.6741,-5.6217,-5.6305,-5.5561,-5.5762,-5.5847,-5.5671,-5.5496,-5.5496,-5.5496,-5.5496,-5.5496,-5.5496,-5.5496,-5.5496,-5.5524,-5.5861,-5.5945,-5.6058,-5.617,-5.6423,-5.6676,-5.6788,-5.6957,-5.7463,-5.78,-5.78,-5.7856,-5.8137,-5.8446,-5.8783,-5.9121,-5.9149,-5.9205,-5.9205,-5.9205,-5.9205,-5.9205,-5.9205,-5.9205,-5.9142,-5.8892,-5.8767,-5.8676,-5.7797,-5.5604,-5.3868,-5.2735,-5.1956,-5.1236,-5.0954,-5.0696,-5.0696,-5.0696,-5.0696,-5.0696,-5.0696,-6.1323,-6.1496,-6.2944,-6.36,-6.36,-6.36,-6.36,-6.36,-6.36,-6.36,-6.36,-6.36,-6.36,-6.36,-6.36,-6.3311,-6.2809,-6.251,-6.1657,-6.0365,-5.9431,-5.8522,-5.7829,-5.7232,-5.6922,-5.6676,-5.6777,-5.6904,-5.6643,-5.6307,-5.609,-5.6171,-5.5906,-5.5533,-5.493,-5.5376,-5.5653,-5.5776,-5.6378,-5.6502,-5.6532,-5.6594,-5.6594,-5.6656,-5.6717,-5.681,-5.681,-5.6994,-5.7025,-5.7056,-5.7549,-5.7888,-5.8085,-5.8547,-5.8583,-5.8362,-5.8399,-5.7873,-5.6848,-5.605,-5.5615,-5.5526,-5.5787,-5.5613,-5.5554,-5.5496,-5.5496,-5.5496,-5.5496,-5.5496,-5.5496,-5.5552,-5.5608,-5.5777,-5.6114,-5.6423,-5.6564,-5.6648,-5.6901,-5.7238,-5.7407,-5.7603,-5.8193,-5.8615,-5.8587,-5.8699,-5.8924,-5.9121,-5.9205,-5.9205,-5.9205,-5.9205,-5.9205,-5.9205,-5.9205,-5.9205,-5.9205,-5.9205,-5.8829,-5.8297,-5.7542,-5.6936,-5.5841,-5.4448,-5.3462,-5.2278,-5.1492,-5.0696,-5.0696,-5.0696,-5.0696,-5.0696,-5.0696,-5.0696,-5.0696,-6.1323,-6.1461,-6.2944,-6.36,-6.36,-6.36,-6.36,-6.36,-6.36,-6.36,-6.36,-6.36,-6.36,-6.36,-6.3496,-6.3142,-6.2547,-6.193,-6.1075,-5.9208,-5.8513,-5.7679,-5.7094,-5.6959,-5.6892,-5.6884,-5.7137,-5.7077,-5.6535,-5.645,-5.6575,-5.6648,-5.6443,-5.6347,-5.6224,-5.633,-5.6392,-5.6471,-5.6686,-5.681,-5.681,-5.681,-5.681,-5.681,-5.684,-5.6871,-5.6933,-5.721,-5.7457,-5.7549,-5.8134,-5.8577,-5.8885,-5.9378,-5.9049,-5.856,-5.8224,-5.7544,-5.6423,-5.5584,-5.5554,-5.5496,-5.5496,-5.5496,-5.5496,-5.5496,-5.5496,-5.5524,-5.558,-5.558,-5.5496,-5.5945,-5.6142,-5.6283,-5.6592,-5.6957,-5.7126,-5.721,-5.7378,-5.7772,-5.8025,-5.8278,-5.8755,-5.8896,-5.8924,-5.8952,-5.9093,-5.9149,-5.9205,-5.9205,-5.9205,-5.9205,-5.9205,-5.9205,-5.9205,-5.9205,-5.9205,-5.9233,-5.8206,-5.7092,-5.626,-5.5643,-5.4247,-5.3078,-5.2485,-5.1886,-5.1236,-5.0696,-5.0696,-5.0696,-5.0696,-5.0696,-5.0696,-5.0696,-5.0696,-6.1323,-6.1461,-6.2944,-6.36,-6.36,-6.36,-6.36,-6.36,-6.36,-6.36,-6.36,-6.36,-6.36,-6.3531,-6.3255,-6.283,-6.2101,-6.1152,-6.0025,-5.8202,-5.7701,-5.7175,-5.6782,-5.6828,-5.7216,-5.7285,-5.7407,-5.7365,-5.6902,-5.7135,-5.7005,-5.6814,-5.681,-5.6717,-5.6717,-5.6748,-5.6748,-5.6748,-5.681,-5.681,-5.681,-5.681,-5.681,-5.6902,-5.7025,-5.7179,-5.7364,-5.7703,-5.8165,-5.835,-5.8762,-5.9316,-5.9716,-5.985,-5.9417,-5.8624,-5.7416,-5.6737,-5.5845,-5.5554,-5.5496,-5.5496,-5.5496,-5.5496,-5.5496,-5.5496,-5.5693,-5.5777,-5.5805,-5.5973,-5.617,-5.662,-5.676,-5.6901,-5.7238,-5.7575,-5.7744,-5.7828,-5.8081,-5.8474,-5.8587,-5.8896,-5.9093,-5.9121,-5.9149,-5.9177,-5.9205,-5.9205,-5.9205,-5.9205,-5.9205,-5.9205,-5.9205,-5.9205,-5.9205,-5.9205,-5.9233,-5.9233,-5.798,-5.6444,-5.5802,-5.5247,-5.3462,-5.1886,-5.1607,-5.1352,-5.0954,-5.0696,-5.0696,-5.0696,-5.0696,-5.0696,-5.0696,-5.0696,-5.0696,-6.1323,-6.153,-6.2944,-6.36,-6.36,-6.36,-6.36,-6.36,-6.36,-6.36,-6.36,-6.36,-6.3496,-6.3358,-6.2806,-6.2103,-6.1245,-5.9973,-5.8815,-5.7846,-5.7343,-5.6955,-5.7051,-5.7366,-5.7552,-5.7674,-5.7645,-5.748,-5.7338,-5.7084,-5.6906,-5.681,-5.681,-5.6902,-5.6933,-5.7025,-5.6964,-5.6871,-5.681,-5.681,-5.681,-5.6933,-5.6994,-5.7179,-5.7487,-5.7765,-5.7993,-5.8423,-5.8731,-5.9039,-5.9439,-5.9716,-6.0055,-6.0403,-5.9539,-5.8221,-5.6509,-5.5845,-5.5554,-5.5496,-5.5636,-5.5664,-5.5636,-5.558,-5.5608,-5.5721,-5.5973,-5.6283,-5.6479,-5.6845,-5.7154,-5.7266,-5.7407,-5.7659,-5.7997,-5.8221,-5.839,-5.8587,-5.8896,-5.9093,-5.9064,-5.9177,-5.9177,-5.9205,-5.9205,-5.9205,-5.9205,-5.9205,-5.9205,-5.9205,-5.9205,-5.9205,-5.9205,-5.9205,-5.9205,-5.9205,-5.8739,-5.8613,-5.7431,-5.6132,-5.5591,-5.4608,-5.2804,-5.1492,-5.1165,-5.0908,-5.0767,-5.0696,-5.0696,-5.0696,-5.0696,-5.0696,-5.0696,-5.0696,-5.0696,-6.1323,-6.1461,-6.2944,-6.36,-6.36,-6.36,-6.36,-6.36,-6.36,-6.36,-6.36,-6.36,-6.3324,-6.2806,-6.2565,-6.1444,-6.018,-5.9085,-5.8269,-5.7615,-5.7176,-5.7191,-5.7452,-5.7788,-5.7833,-5.768,-5.7574,-5.7461,-5.7081,-5.6871,-5.6902,-5.681,-5.6994,-5.7179,-5.7426,-5.7549,-5.7272,-5.7056,-5.7025,-5.7025,-5.7118,-5.7333,-5.7426,-5.7703,-5.8146,-5.8423,-5.8639,-5.9162,-5.9439,-5.9624,-6.0147,-6.0455,-6.0547,-6.0097,-5.9093,-5.7387,-5.6222,-5.5496,-5.5496,-5.5524,-5.5693,-5.6058,-5.6142,-5.6142,-5.617,-5.6254,-5.6479,-5.6845,-5.7097,-5.7378,-5.7688,-5.7856,-5.7969,-5.8221,-5.8502,-5.8727,-5.884,-5.8924,-5.9205,-5.9205,-5.9205,-5.9205,-5.9205,-5.9205,-5.9205,-5.9205,-5.9205,-5.9205,-5.9205,-5.9205,-5.9205,-5.9205,-5.9205,-5.9205,-5.9205,-5.9205,-5.8487,-5.7825,-5.6888,-5.571,-5.4392,-5.3258,-5.1886,-5.1141,-5.0884,-5.0767,-5.0696,-5.0696,-5.0696,-5.0696,-5.0696,-5.0696,-5.0696,-5.0696,-5.0696,-6.1323,-6.153,-6.2944,-6.36,-6.36,-6.36,-6.36,-6.36,-6.36,-6.36,-6.36,-6.36,-6.3186,-6.2494,-6.1828,-6.0671,-5.9025,-5.8313,-5.7622,-5.7151,-5.7228,-5.756,-5.7921,-5.8223,-5.8228,-5.8028,-5.7911,-5.8009,-5.7598,-5.758,-5.7641,-5.7654,-5.7611,-5.7826,-5.8104,-5.8146,-5.7993,-5.7777,-5.7623,-5.7611,-5.7765,-5.7931,-5.8085,-5.83,-5.8824,-5.9101,-5.9255,-5.9839,-6.0116,-6.0075,-6.0515,-6.0263,-5.9948,-5.9147,-5.8276,-5.6765,-5.6049,-5.581,-5.5861,-5.5889,-5.6254,-5.662,-5.6816,-5.6957,-5.6985,-5.7041,-5.7294,-5.7575,-5.7688,-5.7856,-5.8137,-5.839,-5.8531,-5.8671,-5.8924,-5.9177,-5.9205,-5.9205,-5.9205,-5.9205,-5.9205,-5.9205,-5.9205,-5.9205,-5.9205,-5.9205,-5.9205,-5.9205,-5.9205,-5.9205,-5.9205,-5.9205,-5.9205,-5.9205,-5.9205,-5.9142,-5.8676,-5.8016,-5.7221,-5.5828,-5.3868,-5.2598,-5.1861,-5.1282,-5.0767,-5.0696,-5.0696,-5.0696,-5.0696,-5.0696,-5.0696,-5.0696,-5.0696,-5.0696,-5.0696,-6.1289,-6.1427,-6.2944,-6.36,-6.36,-6.36,-6.36,-6.36,-6.36,-6.36,-6.36,-6.36,-6.3117,-6.2182,-6.1197,-5.9922,-5.8681,-5.7858,-5.7649,-5.6802,-5.7872,-5.8406,-5.8632,-5.8793,-5.8703,-5.8678,-5.8585,-5.8511,-5.8658,-5.8547,-5.8423,-5.8762,-5.8639,-5.867,-5.8824,-5.8854,-5.8854,-5.9008,-5.8885,-5.8874,-5.867,-5.8762,-5.8854,-5.8978,-5.9439,-5.987,-6.0024,-6.0311,-6.069,-6.0399,-5.9978,-5.9416,-5.8629,-5.797,-5.7105,-5.6595,-5.5958,-5.6007,-5.6226,-5.6395,-5.6845,-5.721,-5.7463,-5.7744,-5.7856,-5.7659,-5.7828,-5.8193,-5.8362,-5.8474,-5.8727,-5.8812,-5.8924,-5.898,-5.9093,-5.9205,-5.9205,-5.9205,-5.9205,-5.9205,-5.9205,-5.9205,-5.9205,-5.9205,-5.9205,-5.9205,-5.9205,-5.9205,-5.9205,-5.9205,-5.9205,-5.9205,-5.9205,-5.9205,-5.9205,-5.9142,-5.9017,-5.836,-5.7542,-5.5933,-5.3868,-5.2872,-5.207,-5.1352,-5.0696,-5.0696,-5.0696,-5.0696,-5.0696,-5.0696,-5.0696,-5.0696,-5.0696,-5.0696,-5.0696,-6.1291,-6.1461,-6.2944,-6.36,-6.36,-6.36,-6.36,-6.36,-6.36,-6.36,-6.36,-6.3496,-6.2804,-6.1559,-6.074,-5.9599,-5.8446,-5.7906,-5.8133,-5.8432,-5.9041,-5.9292,-5.9473,-5.9443,-5.9225,-5.8894,-5.8781,-5.8947,-5.9008,-5.8947,-5.8824,-5.8824,-5.8916,-5.9162,-5.9532,-5.9532,-5.9716,-6.0024,-6.0024,-5.9624,-5.9101,-5.9347,-5.9562,-5.9747,-6.0116,-6.0373,-6.034,-5.9984,-5.9978,-5.9629,-5.8961,-5.8221,-5.7414,-5.6992,-5.6451,-5.6018,-5.6122,-5.637,-5.662,-5.6985,-5.7463,-5.7856,-5.8165,-5.8502,-5.8559,-5.8278,-5.8306,-5.8727,-5.9008,-5.9093,-5.9149,-5.9177,-5.9205,-5.9205,-5.9205,-5.9205,-5.9205,-5.9205,-5.9205,-5.9205,-5.9205,-5.9205,-5.9205,-5.9205,-5.9205,-5.9205,-5.9205,-5.9205,-5.9205,-5.9205,-5.9205,-5.9205,-5.9205,-5.9205,-5.9205,-5.9142,-5.9017,-5.8487,-5.7697,-5.5867,-5.391,-5.2529,-5.1422,-5.1095,-5.0696,-5.0696,-5.0696,-5.0696,-5.0696,-5.0696,-5.0696,-5.0696,-5.0696,-5.0696,-5.0696,-6.1326,-6.1496,-6.2944,-6.36,-6.36,-6.36,-6.36,-6.36,-6.36,-6.36,-6.36,-6.3496,-6.2628,-6.103,-6.0235,-5.9598,-5.8534,-5.8109,-5.8903,-5.9661,-6.0019,-6.0039,-6.0091,-6.0063,-5.9713,-5.9406,-5.9644,-5.9747,-5.9593,-5.9716,-5.9747,-5.9624,-5.9655,-5.9809,-6.0209,-6.024,-6.0393,-6.0763,-6.0794,-6.0332,-5.9593,-5.9993,-6.0209,-6.0424,-6.0496,-6.0638,-6.0136,-5.9629,-5.9308,-5.8822,-5.8055,-5.7162,-5.6652,-5.6449,-5.6358,-5.6263,-5.6479,-5.6957,-5.7238,-5.7603,-5.8053,-5.8446,-5.8699,-5.898,-5.898,-5.8727,-5.8727,-5.9093,-5.9121,-5.9177,-5.9177,-5.9205,-5.9205,-5.9205,-5.9205,-5.9205,-5.9205,-5.9205,-5.9205,-5.9205,-5.9205,-5.9205,-5.9205,-5.9205,-5.9205,-5.9205,-5.9205,-5.9205,-5.9205,-5.9205,-5.9205,-5.9205,-5.9205,-5.9205,-5.9205,-5.9142,-5.9017,-5.8424,-5.7825,-5.6352,-5.4582,-5.2278,-5.0696,-5.0696,-5.0696,-5.0696,-5.0696,-5.0696,-5.0696,-5.0696,-5.0696,-5.0696,-5.0696,-5.0696,-5.0696,-6.1429,-6.1772,-6.3048,-6.36,-6.36,-6.36,-6.36,-6.36,-6.36,-6.36,-6.36,-6.36,-6.2338,-6.0925,-6.0011,-5.9385,-5.9004,-5.9086,-5.9902,-6.0644,-6.0939,-6.082,-6.0655,-6.0446,-6.0214,-6.0157,-6.0332,-6.0517,-6.0517,-6.0547,-6.0517,-6.0763,-6.0794,-6.0763,-6.0794,-6.0763,-6.0794,-6.0794,-6.0794,-6.0794,-6.0732,-6.0794,-6.0628,-6.0628,-6.0586,-6.0167,-5.966,-5.9039,-5.8659,-5.8088,-5.7306,-5.668,-5.6386,-5.6404,-5.6629,-5.6704,-5.7126,-5.7659,-5.8053,-5.8278,-5.8671,-5.9008,-5.9177,-5.9205,-5.9205,-5.9205,-5.9205,-5.9205,-5.9205,-5.9205,-5.9205,-5.9205,-5.9205,-5.9205,-5.9205,-5.9205,-5.9205,-5.9205,-5.9205,-5.9205,-5.9205,-5.9205,-5.9205,-5.9205,-5.9205,-5.9205,-5.9205,-5.9205,-5.9205,-5.9205,-5.9205,-5.9205,-5.9205,-5.9205,-5.9205,-5.9142,-5.908,-5.8767,-5.8079,-5.6871,-5.5207,-5.2485,-5.0837,-5.0696,-5.0696,-5.0696,-5.0696,-5.0696,-5.0696,-5.0696,-5.0696,-5.0696,-5.0696,-5.0696,-5.0696,-6.2049,-6.3186,-6.3496,-6.36,-6.36,-6.36,-6.36,-6.36,-6.36,-6.36,-6.36,-6.3494,-6.2681,-6.1295,-6.1357,-6.0795,-5.9922,-6.0064,-6.087,-6.1722,-6.144,-6.132,-6.1158,-6.08,-6.0722,-6.0691,-6.0701,-6.0732,-6.0794,-6.0794,-6.0794,-6.0794,-6.0794,-6.0794,-6.0794,-6.0794,-6.0794,-6.0794,-6.0794,-6.0794,-6.0794,-6.0638,-6.0294,-6.0084,-5.9766,-5.9177,-5.858,-5.7722,-5.733,-5.6966,-5.6793,-5.6524,-5.657,-5.6788,-5.7097,-5.735,-5.7772,-5.8137,-5.8474,-5.8755,-5.9064,-5.9149,-5.9205,-5.9205,-5.9205,-5.9205,-5.9205,-5.9205,-5.9205,-5.9205,-5.9205,-5.9205,-5.9205,-5.9205,-5.9205,-5.9205,-5.9205,-5.9205,-5.9205,-5.9205,-5.9205,-5.9205,-5.9205,-5.9205,-5.9205,-5.9205,-5.9205,-5.9205,-5.9205,-5.9205,-5.9205,-5.9205,-5.9205,-5.9205,-5.9205,-5.9205,-5.908,-5.8829,-5.8234,-5.6807,-5.4875,-5.2208,-5.1025,-5.1165,-5.0837,-5.0696,-5.0696,-5.0696,-5.0696,-5.0696,-5.0696,-5.0696,-5.0696,-5.0696,-5.0696]}]]